<?xml version="1.0" encoding="UTF-8" standalone="no" ?>
<gpx xmlns="http://www.topografix.com/GPX/1/1" xmlns:xsi="http://www.w3.org/2001/XMLSchema-instance" xsi:schemaLocation="http://www.topografix.com/GPX/1/1 http://www.topografix.com/GPX/1/1/gpx.xsd" version="1.1" creator="VisuGPX - https://www.visugpx.com">
  <metadata>
    <name>Belvedere de Mandeure etc...</name>
    <desc><![CDATA[Belvedere de Mandeure etc...]]></desc>
  </metadata>
  <trk>
    <name><![CDATA[Path Segment 1]]></name>
    <trkseg>
      <trkpt lat="47.51788" lon="6.7753">
        <ele>461</ele>
        <time>2014-03-08T12:46:14.601Z</time>
      </trkpt>
      <trkpt lat="47.51799" lon="6.77496">
        <ele>440</ele>
        <time>2014-03-08T12:46:19.509Z</time>
      </trkpt>
      <trkpt lat="47.518" lon="6.775">
        <ele>440</ele>
        <time>2014-03-08T12:46:24.581Z</time>
      </trkpt>
      <trkpt lat="47.518" lon="6.77496">
        <ele>440</ele>
        <time>2014-03-08T12:46:29.512Z</time>
      </trkpt>
      <trkpt lat="47.51801" lon="6.77497">
        <ele>440</ele>
        <time>2014-03-08T12:46:34.582Z</time>
      </trkpt>
      <trkpt lat="47.51803" lon="6.77496">
        <ele>440</ele>
        <time>2014-03-08T12:46:39.513Z</time>
      </trkpt>
      <trkpt lat="47.51802" lon="6.77498">
        <ele>440</ele>
        <time>2014-03-08T12:46:44.586Z</time>
      </trkpt>
      <trkpt lat="47.51802" lon="6.77497">
        <ele>440</ele>
        <time>2014-03-08T12:46:49.515Z</time>
      </trkpt>
      <trkpt lat="47.51803" lon="6.77494">
        <ele>440</ele>
        <time>2014-03-08T12:46:54.585Z</time>
      </trkpt>
      <trkpt lat="47.51803" lon="6.77493">
        <ele>440</ele>
        <time>2014-03-08T12:46:59.509Z</time>
      </trkpt>
      <trkpt lat="47.51804" lon="6.77495">
        <ele>448</ele>
        <time>2014-03-08T12:47:04.584Z</time>
      </trkpt>
      <trkpt lat="47.51805" lon="6.77493">
        <ele>447</ele>
        <time>2014-03-08T12:47:09.509Z</time>
      </trkpt>
      <trkpt lat="47.51802" lon="6.77495">
        <ele>447</ele>
        <time>2014-03-08T12:47:14.586Z</time>
      </trkpt>
      <trkpt lat="47.51801" lon="6.77494">
        <ele>447</ele>
        <time>2014-03-08T12:47:19.511Z</time>
      </trkpt>
      <trkpt lat="47.518" lon="6.77491">
        <ele>446</ele>
        <time>2014-03-08T12:47:24.575Z</time>
      </trkpt>
      <trkpt lat="47.51802" lon="6.77487">
        <ele>445</ele>
        <time>2014-03-08T12:47:29.515Z</time>
      </trkpt>
      <trkpt lat="47.51804" lon="6.77493">
        <ele>444</ele>
        <time>2014-03-08T12:47:34.594Z</time>
      </trkpt>
      <trkpt lat="47.51795" lon="6.77492">
        <ele>444</ele>
        <time>2014-03-08T12:47:39.554Z</time>
      </trkpt>
      <trkpt lat="47.51779" lon="6.7749">
        <ele>444</ele>
        <time>2014-03-08T12:47:44.507Z</time>
      </trkpt>
      <trkpt lat="47.51763" lon="6.77485">
        <ele>445</ele>
        <time>2014-03-08T12:47:49.593Z</time>
      </trkpt>
      <trkpt lat="47.51744" lon="6.77482">
        <ele>444</ele>
        <time>2014-03-08T12:47:54.792Z</time>
      </trkpt>
      <trkpt lat="47.51726" lon="6.77497">
        <ele>444</ele>
        <time>2014-03-08T12:47:59.509Z</time>
      </trkpt>
      <trkpt lat="47.51721" lon="6.77528">
        <ele>444</ele>
        <time>2014-03-08T12:48:04.586Z</time>
      </trkpt>
      <trkpt lat="47.51714" lon="6.77551">
        <ele>444</ele>
        <time>2014-03-08T12:48:09.521Z</time>
      </trkpt>
      <trkpt lat="47.51696" lon="6.77543">
        <ele>444</ele>
        <time>2014-03-08T12:48:14.583Z</time>
      </trkpt>
      <trkpt lat="47.51673" lon="6.77517">
        <ele>444</ele>
        <time>2014-03-08T12:48:19.512Z</time>
      </trkpt>
      <trkpt lat="47.51647" lon="6.77486">
        <ele>444</ele>
        <time>2014-03-08T12:48:24.587Z</time>
      </trkpt>
      <trkpt lat="47.51618" lon="6.77452">
        <ele>442</ele>
        <time>2014-03-08T12:48:29.510Z</time>
      </trkpt>
      <trkpt lat="47.51587" lon="6.77413">
        <ele>439</ele>
        <time>2014-03-08T12:48:34.586Z</time>
      </trkpt>
      <trkpt lat="47.51552" lon="6.77371">
        <ele>437</ele>
        <time>2014-03-08T12:48:39.511Z</time>
      </trkpt>
      <trkpt lat="47.51515" lon="6.77326">
        <ele>432</ele>
        <time>2014-03-08T12:48:44.558Z</time>
      </trkpt>
      <trkpt lat="47.51491" lon="6.77277">
        <ele>428</ele>
        <time>2014-03-08T12:48:49.512Z</time>
      </trkpt>
      <trkpt lat="47.51488" lon="6.7722">
        <ele>428</ele>
        <time>2014-03-08T12:48:54.586Z</time>
      </trkpt>
      <trkpt lat="47.51469" lon="6.77198">
        <ele>428</ele>
        <time>2014-03-08T12:48:59.478Z</time>
      </trkpt>
      <trkpt lat="47.51432" lon="6.77217">
        <ele>427</ele>
        <time>2014-03-08T12:49:04.589Z</time>
      </trkpt>
      <trkpt lat="47.51401" lon="6.77233">
        <ele>427</ele>
        <time>2014-03-08T12:49:09.511Z</time>
      </trkpt>
      <trkpt lat="47.51377" lon="6.77248">
        <ele>428</ele>
        <time>2014-03-08T12:49:14.585Z</time>
      </trkpt>
      <trkpt lat="47.51357" lon="6.77263">
        <ele>429</ele>
        <time>2014-03-08T12:49:19.507Z</time>
      </trkpt>
      <trkpt lat="47.51342" lon="6.77276">
        <ele>430</ele>
        <time>2014-03-08T12:49:24.584Z</time>
      </trkpt>
      <trkpt lat="47.51326" lon="6.77281">
        <ele>431</ele>
        <time>2014-03-08T12:49:29.512Z</time>
      </trkpt>
      <trkpt lat="47.5131" lon="6.77277">
        <ele>432</ele>
        <time>2014-03-08T12:49:34.593Z</time>
      </trkpt>
      <trkpt lat="47.51292" lon="6.77268">
        <ele>433</ele>
        <time>2014-03-08T12:49:39.695Z</time>
      </trkpt>
      <trkpt lat="47.51275" lon="6.77256">
        <ele>434</ele>
        <time>2014-03-08T12:49:44.589Z</time>
      </trkpt>
      <trkpt lat="47.51261" lon="6.77238">
        <ele>435</ele>
        <time>2014-03-08T12:49:49.510Z</time>
      </trkpt>
      <trkpt lat="47.51246" lon="6.77213">
        <ele>436</ele>
        <time>2014-03-08T12:49:54.584Z</time>
      </trkpt>
      <trkpt lat="47.5123" lon="6.77182">
        <ele>436</ele>
        <time>2014-03-08T12:49:59.510Z</time>
      </trkpt>
      <trkpt lat="47.51212" lon="6.77149">
        <ele>436</ele>
        <time>2014-03-08T12:50:04.545Z</time>
      </trkpt>
      <trkpt lat="47.51191" lon="6.7711">
        <ele>435</ele>
        <time>2014-03-08T12:50:09.521Z</time>
      </trkpt>
      <trkpt lat="47.51168" lon="6.77071">
        <ele>434</ele>
        <time>2014-03-08T12:50:14.584Z</time>
      </trkpt>
      <trkpt lat="47.51139" lon="6.77043">
        <ele>433</ele>
        <time>2014-03-08T12:50:19.517Z</time>
      </trkpt>
      <trkpt lat="47.51111" lon="6.77018">
        <ele>433</ele>
        <time>2014-03-08T12:50:24.587Z</time>
      </trkpt>
      <trkpt lat="47.51084" lon="6.76992">
        <ele>433</ele>
        <time>2014-03-08T12:50:29.489Z</time>
      </trkpt>
      <trkpt lat="47.51055" lon="6.76966">
        <ele>434</ele>
        <time>2014-03-08T12:50:34.586Z</time>
      </trkpt>
      <trkpt lat="47.51027" lon="6.7694">
        <ele>434</ele>
        <time>2014-03-08T12:50:39.516Z</time>
      </trkpt>
      <trkpt lat="47.51003" lon="6.76919">
        <ele>434</ele>
        <time>2014-03-08T12:50:44.588Z</time>
      </trkpt>
      <trkpt lat="47.5099" lon="6.76899">
        <ele>434</ele>
        <time>2014-03-08T12:50:49.511Z</time>
      </trkpt>
      <trkpt lat="47.50972" lon="6.76896">
        <ele>434</ele>
        <time>2014-03-08T12:50:54.583Z</time>
      </trkpt>
      <trkpt lat="47.50952" lon="6.76878">
        <ele>435</ele>
        <time>2014-03-08T12:50:59.511Z</time>
      </trkpt>
      <trkpt lat="47.50935" lon="6.76854">
        <ele>436</ele>
        <time>2014-03-08T12:51:04.592Z</time>
      </trkpt>
      <trkpt lat="47.5092" lon="6.76824">
        <ele>436</ele>
        <time>2014-03-08T12:51:09.523Z</time>
      </trkpt>
      <trkpt lat="47.50906" lon="6.76794">
        <ele>436</ele>
        <time>2014-03-08T12:51:14.587Z</time>
      </trkpt>
      <trkpt lat="47.50893" lon="6.76766">
        <ele>437</ele>
        <time>2014-03-08T12:51:19.515Z</time>
      </trkpt>
      <trkpt lat="47.50884" lon="6.76739">
        <ele>438</ele>
        <time>2014-03-08T12:51:24.567Z</time>
      </trkpt>
      <trkpt lat="47.50876" lon="6.76713">
        <ele>438</ele>
        <time>2014-03-08T12:51:29.486Z</time>
      </trkpt>
      <trkpt lat="47.50866" lon="6.76689">
        <ele>439</ele>
        <time>2014-03-08T12:51:34.584Z</time>
      </trkpt>
      <trkpt lat="47.50848" lon="6.76646">
        <ele>441</ele>
        <time>2014-03-08T12:51:44.576Z</time>
      </trkpt>
      <trkpt lat="47.50839" lon="6.76627">
        <ele>441</ele>
        <time>2014-03-08T12:51:49.515Z</time>
      </trkpt>
      <trkpt lat="47.50831" lon="6.76609">
        <ele>442</ele>
        <time>2014-03-08T12:51:54.571Z</time>
      </trkpt>
      <trkpt lat="47.50826" lon="6.76596">
        <ele>443</ele>
        <time>2014-03-08T12:51:59.513Z</time>
      </trkpt>
      <trkpt lat="47.50815" lon="6.76598">
        <ele>444</ele>
        <time>2014-03-08T12:52:04.585Z</time>
      </trkpt>
      <trkpt lat="47.50808" lon="6.76589">
        <ele>445</ele>
        <time>2014-03-08T12:52:09.510Z</time>
      </trkpt>
      <trkpt lat="47.50799" lon="6.76592">
        <ele>446</ele>
        <time>2014-03-08T12:52:14.587Z</time>
      </trkpt>
      <trkpt lat="47.50788" lon="6.76596">
        <ele>446</ele>
        <time>2014-03-08T12:52:19.515Z</time>
      </trkpt>
      <trkpt lat="47.50773" lon="6.76597">
        <ele>448</ele>
        <time>2014-03-08T12:52:24.558Z</time>
      </trkpt>
      <trkpt lat="47.50757" lon="6.76597">
        <ele>448</ele>
        <time>2014-03-08T12:52:29.517Z</time>
      </trkpt>
      <trkpt lat="47.50742" lon="6.76596">
        <ele>448</ele>
        <time>2014-03-08T12:52:34.587Z</time>
      </trkpt>
      <trkpt lat="47.50725" lon="6.76592">
        <ele>449</ele>
        <time>2014-03-08T12:52:39.523Z</time>
      </trkpt>
      <trkpt lat="47.50709" lon="6.76591">
        <ele>450</ele>
        <time>2014-03-08T12:52:44.524Z</time>
      </trkpt>
      <trkpt lat="47.50693" lon="6.76591">
        <ele>450</ele>
        <time>2014-03-08T12:52:49.589Z</time>
      </trkpt>
      <trkpt lat="47.50678" lon="6.76593">
        <ele>450</ele>
        <time>2014-03-08T12:52:54.514Z</time>
      </trkpt>
      <trkpt lat="47.50664" lon="6.76597">
        <ele>451</ele>
        <time>2014-03-08T12:52:59.587Z</time>
      </trkpt>
      <trkpt lat="47.50651" lon="6.76603">
        <ele>451</ele>
        <time>2014-03-08T12:53:04.515Z</time>
      </trkpt>
      <trkpt lat="47.50636" lon="6.7661">
        <ele>450</ele>
        <time>2014-03-08T12:53:09.582Z</time>
      </trkpt>
      <trkpt lat="47.50622" lon="6.76616">
        <ele>451</ele>
        <time>2014-03-08T12:53:14.520Z</time>
      </trkpt>
      <trkpt lat="47.50608" lon="6.76623">
        <ele>451</ele>
        <time>2014-03-08T12:53:19.587Z</time>
      </trkpt>
      <trkpt lat="47.50595" lon="6.76628">
        <ele>451</ele>
        <time>2014-03-08T12:53:24.519Z</time>
      </trkpt>
      <trkpt lat="47.50581" lon="6.76631">
        <ele>452</ele>
        <time>2014-03-08T12:53:29.585Z</time>
      </trkpt>
      <trkpt lat="47.50567" lon="6.76635">
        <ele>452</ele>
        <time>2014-03-08T12:53:34.515Z</time>
      </trkpt>
      <trkpt lat="47.50553" lon="6.76638">
        <ele>453</ele>
        <time>2014-03-08T12:53:39.587Z</time>
      </trkpt>
      <trkpt lat="47.50537" lon="6.76642">
        <ele>453</ele>
        <time>2014-03-08T12:53:44.530Z</time>
      </trkpt>
      <trkpt lat="47.50521" lon="6.76647">
        <ele>452</ele>
        <time>2014-03-08T12:53:49.526Z</time>
      </trkpt>
      <trkpt lat="47.50505" lon="6.76653">
        <ele>453</ele>
        <time>2014-03-08T12:53:54.588Z</time>
      </trkpt>
      <trkpt lat="47.50448" lon="6.76677">
        <ele>452</ele>
        <time>2014-03-08T12:54:09.523Z</time>
      </trkpt>
      <trkpt lat="47.50431" lon="6.76685">
        <ele>452</ele>
        <time>2014-03-08T12:54:14.588Z</time>
      </trkpt>
      <trkpt lat="47.50416" lon="6.7669">
        <ele>452</ele>
        <time>2014-03-08T12:54:19.520Z</time>
      </trkpt>
      <trkpt lat="47.50399" lon="6.76695">
        <ele>452</ele>
        <time>2014-03-08T12:54:24.608Z</time>
      </trkpt>
      <trkpt lat="47.50382" lon="6.76704">
        <ele>452</ele>
        <time>2014-03-08T12:54:29.512Z</time>
      </trkpt>
      <trkpt lat="47.50366" lon="6.76714">
        <ele>452</ele>
        <time>2014-03-08T12:54:34.587Z</time>
      </trkpt>
      <trkpt lat="47.50348" lon="6.7672">
        <ele>452</ele>
        <time>2014-03-08T12:54:39.517Z</time>
      </trkpt>
      <trkpt lat="47.50329" lon="6.76727">
        <ele>452</ele>
        <time>2014-03-08T12:54:44.596Z</time>
      </trkpt>
      <trkpt lat="47.50312" lon="6.76734">
        <ele>453</ele>
        <time>2014-03-08T12:54:49.516Z</time>
      </trkpt>
      <trkpt lat="47.50296" lon="6.76739">
        <ele>453</ele>
        <time>2014-03-08T12:54:54.594Z</time>
      </trkpt>
      <trkpt lat="47.50279" lon="6.76742">
        <ele>453</ele>
        <time>2014-03-08T12:54:59.530Z</time>
      </trkpt>
      <trkpt lat="47.50262" lon="6.76747">
        <ele>452</ele>
        <time>2014-03-08T12:55:04.569Z</time>
      </trkpt>
      <trkpt lat="47.50248" lon="6.76741">
        <ele>452</ele>
        <time>2014-03-08T12:55:09.516Z</time>
      </trkpt>
      <trkpt lat="47.5024" lon="6.76725">
        <ele>452</ele>
        <time>2014-03-08T12:55:14.589Z</time>
      </trkpt>
      <trkpt lat="47.50231" lon="6.76708">
        <ele>454</ele>
        <time>2014-03-08T12:55:19.666Z</time>
      </trkpt>
      <trkpt lat="47.50222" lon="6.76686">
        <ele>455</ele>
        <time>2014-03-08T12:55:24.589Z</time>
      </trkpt>
      <trkpt lat="47.50214" lon="6.76662">
        <ele>455</ele>
        <time>2014-03-08T12:55:29.520Z</time>
      </trkpt>
      <trkpt lat="47.50207" lon="6.76637">
        <ele>454</ele>
        <time>2014-03-08T12:55:34.590Z</time>
      </trkpt>
      <trkpt lat="47.50199" lon="6.76612">
        <ele>454</ele>
        <time>2014-03-08T12:55:39.488Z</time>
      </trkpt>
      <trkpt lat="47.50196" lon="6.76596">
        <ele>454</ele>
        <time>2014-03-08T12:55:44.590Z</time>
      </trkpt>
      <trkpt lat="47.50197" lon="6.76582">
        <ele>455</ele>
        <time>2014-03-08T12:55:49.519Z</time>
      </trkpt>
      <trkpt lat="47.50211" lon="6.76578">
        <ele>454</ele>
        <time>2014-03-08T12:55:54.587Z</time>
      </trkpt>
      <trkpt lat="47.5022" lon="6.76555">
        <ele>453</ele>
        <time>2014-03-08T12:55:59.523Z</time>
      </trkpt>
      <trkpt lat="47.50213" lon="6.76508">
        <ele>453</ele>
        <time>2014-03-08T12:56:04.587Z</time>
      </trkpt>
      <trkpt lat="47.50202" lon="6.76445">
        <ele>454</ele>
        <time>2014-03-08T12:56:09.521Z</time>
      </trkpt>
      <trkpt lat="47.50188" lon="6.76392">
        <ele>455</ele>
        <time>2014-03-08T12:56:14.512Z</time>
      </trkpt>
      <trkpt lat="47.50172" lon="6.7635">
        <ele>455</ele>
        <time>2014-03-08T12:56:19.604Z</time>
      </trkpt>
      <trkpt lat="47.5016" lon="6.76309">
        <ele>457</ele>
        <time>2014-03-08T12:56:24.515Z</time>
      </trkpt>
      <trkpt lat="47.50148" lon="6.76264">
        <ele>457</ele>
        <time>2014-03-08T12:56:29.593Z</time>
      </trkpt>
      <trkpt lat="47.50133" lon="6.7621">
        <ele>457</ele>
        <time>2014-03-08T12:56:34.513Z</time>
      </trkpt>
      <trkpt lat="47.50121" lon="6.76148">
        <ele>456</ele>
        <time>2014-03-08T12:56:39.585Z</time>
      </trkpt>
      <trkpt lat="47.50109" lon="6.76088">
        <ele>457</ele>
        <time>2014-03-08T12:56:44.509Z</time>
      </trkpt>
      <trkpt lat="47.50097" lon="6.7602">
        <ele>455</ele>
        <time>2014-03-08T12:56:49.586Z</time>
      </trkpt>
      <trkpt lat="47.50085" lon="6.75956">
        <ele>455</ele>
        <time>2014-03-08T12:56:54.522Z</time>
      </trkpt>
      <trkpt lat="47.50063" lon="6.75908">
        <ele>454</ele>
        <time>2014-03-08T12:56:59.588Z</time>
      </trkpt>
      <trkpt lat="47.50036" lon="6.75872">
        <ele>453</ele>
        <time>2014-03-08T12:57:04.523Z</time>
      </trkpt>
      <trkpt lat="47.50015" lon="6.75833">
        <ele>453</ele>
        <time>2014-03-08T12:57:09.583Z</time>
      </trkpt>
      <trkpt lat="47.49993" lon="6.75783">
        <ele>453</ele>
        <time>2014-03-08T12:57:14.480Z</time>
      </trkpt>
      <trkpt lat="47.49964" lon="6.75742">
        <ele>452</ele>
        <time>2014-03-08T12:57:19.586Z</time>
      </trkpt>
      <trkpt lat="47.49927" lon="6.75714">
        <ele>447</ele>
        <time>2014-03-08T12:57:24.487Z</time>
      </trkpt>
      <trkpt lat="47.49886" lon="6.75714">
        <ele>444</ele>
        <time>2014-03-08T12:57:29.589Z</time>
      </trkpt>
      <trkpt lat="47.49844" lon="6.75725">
        <ele>443</ele>
        <time>2014-03-08T12:57:34.524Z</time>
      </trkpt>
      <trkpt lat="47.49793" lon="6.75739">
        <ele>440</ele>
        <time>2014-03-08T12:57:39.588Z</time>
      </trkpt>
      <trkpt lat="47.49739" lon="6.75753">
        <ele>437</ele>
        <time>2014-03-08T12:57:44.515Z</time>
      </trkpt>
      <trkpt lat="47.49683" lon="6.7576">
        <ele>433</ele>
        <time>2014-03-08T12:57:49.574Z</time>
      </trkpt>
      <trkpt lat="47.49644" lon="6.7576">
        <ele>431</ele>
        <time>2014-03-08T12:57:54.521Z</time>
      </trkpt>
      <trkpt lat="47.49415" lon="6.75667">
        <ele>378</ele>
        <time>2014-03-08T12:59:09.846Z</time>
      </trkpt>
      <trkpt lat="47.4941" lon="6.75679">
        <ele>378</ele>
        <time>2014-03-08T12:59:15.645Z</time>
      </trkpt>
      <trkpt lat="47.49393" lon="6.75693">
        <ele>369</ele>
        <time>2014-03-08T12:59:20.579Z</time>
      </trkpt>
      <trkpt lat="47.49373" lon="6.75703">
        <ele>374</ele>
        <time>2014-03-08T12:59:25.625Z</time>
      </trkpt>
      <trkpt lat="47.49344" lon="6.75721">
        <ele>381</ele>
        <time>2014-03-08T12:59:30.570Z</time>
      </trkpt>
      <trkpt lat="47.4931" lon="6.75744">
        <ele>383</ele>
        <time>2014-03-08T12:59:35.643Z</time>
      </trkpt>
      <trkpt lat="47.49287" lon="6.75777">
        <ele>380</ele>
        <time>2014-03-08T12:59:40.580Z</time>
      </trkpt>
      <trkpt lat="47.49263" lon="6.75808">
        <ele>379</ele>
        <time>2014-03-08T12:59:45.613Z</time>
      </trkpt>
      <trkpt lat="47.49247" lon="6.7584">
        <ele>379</ele>
        <time>2014-03-08T12:59:50.565Z</time>
      </trkpt>
      <trkpt lat="47.4923" lon="6.75873">
        <ele>379</ele>
        <time>2014-03-08T12:59:55.619Z</time>
      </trkpt>
      <trkpt lat="47.49215" lon="6.75905">
        <ele>379</ele>
        <time>2014-03-08T13:00:00.576Z</time>
      </trkpt>
      <trkpt lat="47.49201" lon="6.75934">
        <ele>377</ele>
        <time>2014-03-08T13:00:05.650Z</time>
      </trkpt>
      <trkpt lat="47.49184" lon="6.75951">
        <ele>377</ele>
        <time>2014-03-08T13:00:10.578Z</time>
      </trkpt>
      <trkpt lat="47.49172" lon="6.75984">
        <ele>377</ele>
        <time>2014-03-08T13:00:15.619Z</time>
      </trkpt>
      <trkpt lat="47.49164" lon="6.76021">
        <ele>377</ele>
        <time>2014-03-08T13:00:20.572Z</time>
      </trkpt>
      <trkpt lat="47.49141" lon="6.76062">
        <ele>378</ele>
        <time>2014-03-08T13:00:25.650Z</time>
      </trkpt>
      <trkpt lat="47.49124" lon="6.76101">
        <ele>378</ele>
        <time>2014-03-08T13:00:30.580Z</time>
      </trkpt>
      <trkpt lat="47.49112" lon="6.76138">
        <ele>377</ele>
        <time>2014-03-08T13:00:35.650Z</time>
      </trkpt>
      <trkpt lat="47.49105" lon="6.76179">
        <ele>379</ele>
        <time>2014-03-08T13:00:40.576Z</time>
      </trkpt>
      <trkpt lat="47.49109" lon="6.76226">
        <ele>380</ele>
        <time>2014-03-08T13:00:45.651Z</time>
      </trkpt>
      <trkpt lat="47.49117" lon="6.7627">
        <ele>381</ele>
        <time>2014-03-08T13:00:50.572Z</time>
      </trkpt>
      <trkpt lat="47.49119" lon="6.7631">
        <ele>383</ele>
        <time>2014-03-08T13:00:55.646Z</time>
      </trkpt>
      <trkpt lat="47.49121" lon="6.76352">
        <ele>383</ele>
        <time>2014-03-08T13:01:00.576Z</time>
      </trkpt>
      <trkpt lat="47.49119" lon="6.76396">
        <ele>384</ele>
        <time>2014-03-08T13:01:05.651Z</time>
      </trkpt>
      <trkpt lat="47.49119" lon="6.76437">
        <ele>385</ele>
        <time>2014-03-08T13:01:10.584Z</time>
      </trkpt>
      <trkpt lat="47.4912" lon="6.76473">
        <ele>386</ele>
        <time>2014-03-08T13:01:15.655Z</time>
      </trkpt>
      <trkpt lat="47.49124" lon="6.7651">
        <ele>383</ele>
        <time>2014-03-08T13:01:20.577Z</time>
      </trkpt>
      <trkpt lat="47.49154" lon="6.76514">
        <ele>377</ele>
        <time>2014-03-08T13:01:25.654Z</time>
      </trkpt>
      <trkpt lat="47.49172" lon="6.76508">
        <ele>374</ele>
        <time>2014-03-08T13:01:30.576Z</time>
      </trkpt>
      <trkpt lat="47.49181" lon="6.76499">
        <ele>374</ele>
        <time>2014-03-08T13:01:35.649Z</time>
      </trkpt>
      <trkpt lat="47.49182" lon="6.76498">
        <ele>375</ele>
        <time>2014-03-08T13:01:40.579Z</time>
      </trkpt>
      <trkpt lat="47.49181" lon="6.76498">
        <ele>376</ele>
        <time>2014-03-08T13:01:45.629Z</time>
      </trkpt>
      <trkpt lat="47.49179" lon="6.76501">
        <ele>376</ele>
        <time>2014-03-08T13:01:50.584Z</time>
      </trkpt>
      <trkpt lat="47.4918" lon="6.76501">
        <ele>376</ele>
        <time>2014-03-08T13:01:55.650Z</time>
      </trkpt>
      <trkpt lat="47.4918" lon="6.76501">
        <ele>376</ele>
        <time>2014-03-08T13:02:00.576Z</time>
      </trkpt>
      <trkpt lat="47.4918" lon="6.76501">
        <ele>376</ele>
        <time>2014-03-08T13:02:05.649Z</time>
      </trkpt>
      <trkpt lat="47.4918" lon="6.76501">
        <ele>376</ele>
        <time>2014-03-08T13:02:10.577Z</time>
      </trkpt>
      <trkpt lat="47.4918" lon="6.76501">
        <ele>376</ele>
        <time>2014-03-08T13:02:15.632Z</time>
      </trkpt>
      <trkpt lat="47.4918" lon="6.76501">
        <ele>376</ele>
        <time>2014-03-08T13:02:20.573Z</time>
      </trkpt>
      <trkpt lat="47.4918" lon="6.76501">
        <ele>376</ele>
        <time>2014-03-08T13:02:25.656Z</time>
      </trkpt>
      <trkpt lat="47.4918" lon="6.76501">
        <ele>376</ele>
        <time>2014-03-08T13:02:30.575Z</time>
      </trkpt>
      <trkpt lat="47.4918" lon="6.76501">
        <ele>376</ele>
        <time>2014-03-08T13:02:35.651Z</time>
      </trkpt>
      <trkpt lat="47.4918" lon="6.76501">
        <ele>376</ele>
        <time>2014-03-08T13:02:40.576Z</time>
      </trkpt>
      <trkpt lat="47.4918" lon="6.76501">
        <ele>376</ele>
        <time>2014-03-08T13:02:45.617Z</time>
      </trkpt>
      <trkpt lat="47.4918" lon="6.76501">
        <ele>376</ele>
        <time>2014-03-08T13:02:50.582Z</time>
      </trkpt>
      <trkpt lat="47.4918" lon="6.76501">
        <ele>376</ele>
        <time>2014-03-08T13:02:55.649Z</time>
      </trkpt>
      <trkpt lat="47.4918" lon="6.76502">
        <ele>376</ele>
        <time>2014-03-08T13:03:00.584Z</time>
      </trkpt>
      <trkpt lat="47.4918" lon="6.76502">
        <ele>375</ele>
        <time>2014-03-08T13:03:05.639Z</time>
      </trkpt>
      <trkpt lat="47.4918" lon="6.76501">
        <ele>375</ele>
        <time>2014-03-08T13:03:10.584Z</time>
      </trkpt>
      <trkpt lat="47.4918" lon="6.76502">
        <ele>376</ele>
        <time>2014-03-08T13:03:15.647Z</time>
      </trkpt>
      <trkpt lat="47.4918" lon="6.76504">
        <ele>376</ele>
        <time>2014-03-08T13:03:20.577Z</time>
      </trkpt>
      <trkpt lat="47.4918" lon="6.76504">
        <ele>376</ele>
        <time>2014-03-08T13:03:25.648Z</time>
      </trkpt>
      <trkpt lat="47.4918" lon="6.76504">
        <ele>376</ele>
        <time>2014-03-08T13:03:30.587Z</time>
      </trkpt>
      <trkpt lat="47.49181" lon="6.76503">
        <ele>376</ele>
        <time>2014-03-08T13:03:35.649Z</time>
      </trkpt>
      <trkpt lat="47.49184" lon="6.765">
        <ele>375</ele>
        <time>2014-03-08T13:03:40.592Z</time>
      </trkpt>
      <trkpt lat="47.49178" lon="6.7651">
        <ele>374</ele>
        <time>2014-03-08T13:03:45.630Z</time>
      </trkpt>
      <trkpt lat="47.4916" lon="6.76519">
        <ele>374</ele>
        <time>2014-03-08T13:03:50.578Z</time>
      </trkpt>
      <trkpt lat="47.49142" lon="6.76523">
        <ele>376</ele>
        <time>2014-03-08T13:03:55.651Z</time>
      </trkpt>
      <trkpt lat="47.49122" lon="6.76536">
        <ele>375</ele>
        <time>2014-03-08T13:04:00.576Z</time>
      </trkpt>
      <trkpt lat="47.49113" lon="6.76559">
        <ele>375</ele>
        <time>2014-03-08T13:04:05.648Z</time>
      </trkpt>
      <trkpt lat="47.49115" lon="6.76586">
        <ele>376</ele>
        <time>2014-03-08T13:04:10.585Z</time>
      </trkpt>
      <trkpt lat="47.49119" lon="6.76614">
        <ele>376</ele>
        <time>2014-03-08T13:04:15.640Z</time>
      </trkpt>
      <trkpt lat="47.49124" lon="6.76644">
        <ele>377</ele>
        <time>2014-03-08T13:04:20.578Z</time>
      </trkpt>
      <trkpt lat="47.49127" lon="6.76673">
        <ele>378</ele>
        <time>2014-03-08T13:04:25.647Z</time>
      </trkpt>
      <trkpt lat="47.49133" lon="6.76708">
        <ele>377</ele>
        <time>2014-03-08T13:04:30.585Z</time>
      </trkpt>
      <trkpt lat="47.49137" lon="6.76743">
        <ele>377</ele>
        <time>2014-03-08T13:04:35.651Z</time>
      </trkpt>
      <trkpt lat="47.49139" lon="6.76774">
        <ele>376</ele>
        <time>2014-03-08T13:04:40.586Z</time>
      </trkpt>
      <trkpt lat="47.49141" lon="6.76807">
        <ele>374</ele>
        <time>2014-03-08T13:04:45.650Z</time>
      </trkpt>
      <trkpt lat="47.49142" lon="6.76843">
        <ele>373</ele>
        <time>2014-03-08T13:04:50.582Z</time>
      </trkpt>
      <trkpt lat="47.4916" lon="6.77022">
        <ele>369</ele>
        <time>2014-03-08T13:05:15.640Z</time>
      </trkpt>
      <trkpt lat="47.49166" lon="6.7706">
        <ele>369</ele>
        <time>2014-03-08T13:05:20.575Z</time>
      </trkpt>
      <trkpt lat="47.49171" lon="6.77091">
        <ele>370</ele>
        <time>2014-03-08T13:05:25.626Z</time>
      </trkpt>
      <trkpt lat="47.49172" lon="6.77116">
        <ele>370</ele>
        <time>2014-03-08T13:05:30.576Z</time>
      </trkpt>
      <trkpt lat="47.49174" lon="6.77134">
        <ele>372</ele>
        <time>2014-03-08T13:05:35.616Z</time>
      </trkpt>
      <trkpt lat="47.49181" lon="6.77159">
        <ele>373</ele>
        <time>2014-03-08T13:05:40.542Z</time>
      </trkpt>
      <trkpt lat="47.49181" lon="6.77185">
        <ele>373</ele>
        <time>2014-03-08T13:05:45.645Z</time>
      </trkpt>
      <trkpt lat="47.49181" lon="6.77215">
        <ele>373</ele>
        <time>2014-03-08T13:05:50.576Z</time>
      </trkpt>
      <trkpt lat="47.49059" lon="6.77321">
        <ele>369</ele>
        <time>2014-03-08T13:06:30.578Z</time>
      </trkpt>
      <trkpt lat="47.49031" lon="6.77318">
        <ele>369</ele>
        <time>2014-03-08T13:06:35.648Z</time>
      </trkpt>
      <trkpt lat="47.49004" lon="6.77315">
        <ele>370</ele>
        <time>2014-03-08T13:06:40.583Z</time>
      </trkpt>
      <trkpt lat="47.48975" lon="6.77314">
        <ele>369</ele>
        <time>2014-03-08T13:06:45.648Z</time>
      </trkpt>
      <trkpt lat="47.48949" lon="6.7731">
        <ele>369</ele>
        <time>2014-03-08T13:06:50.588Z</time>
      </trkpt>
      <trkpt lat="47.48923" lon="6.77299">
        <ele>369</ele>
        <time>2014-03-08T13:06:55.649Z</time>
      </trkpt>
      <trkpt lat="47.48848" lon="6.77265">
        <ele>371</ele>
        <time>2014-03-08T13:07:11.477Z</time>
      </trkpt>
      <trkpt lat="47.48823" lon="6.77247">
        <ele>371</ele>
        <time>2014-03-08T13:07:15.621Z</time>
      </trkpt>
      <trkpt lat="47.48797" lon="6.77228">
        <ele>371</ele>
        <time>2014-03-08T13:07:20.582Z</time>
      </trkpt>
      <trkpt lat="47.48771" lon="6.77209">
        <ele>370</ele>
        <time>2014-03-08T13:07:25.648Z</time>
      </trkpt>
      <trkpt lat="47.48717" lon="6.77171">
        <ele>369</ele>
        <time>2014-03-08T13:07:35.647Z</time>
      </trkpt>
      <trkpt lat="47.48692" lon="6.77148">
        <ele>369</ele>
        <time>2014-03-08T13:07:40.576Z</time>
      </trkpt>
      <trkpt lat="47.48668" lon="6.77123">
        <ele>368</ele>
        <time>2014-03-08T13:07:45.635Z</time>
      </trkpt>
      <trkpt lat="47.48645" lon="6.77097">
        <ele>368</ele>
        <time>2014-03-08T13:07:50.582Z</time>
      </trkpt>
      <trkpt lat="47.48621" lon="6.77078">
        <ele>369</ele>
        <time>2014-03-08T13:07:55.650Z</time>
      </trkpt>
      <trkpt lat="47.48599" lon="6.77059">
        <ele>371</ele>
        <time>2014-03-08T13:08:00.579Z</time>
      </trkpt>
      <trkpt lat="47.48573" lon="6.77046">
        <ele>371</ele>
        <time>2014-03-08T13:08:05.648Z</time>
      </trkpt>
      <trkpt lat="47.48543" lon="6.77025">
        <ele>374</ele>
        <time>2014-03-08T13:08:10.585Z</time>
      </trkpt>
      <trkpt lat="47.48511" lon="6.77">
        <ele>376</ele>
        <time>2014-03-08T13:08:15.656Z</time>
      </trkpt>
      <trkpt lat="47.48479" lon="6.7698">
        <ele>377</ele>
        <time>2014-03-08T13:08:20.584Z</time>
      </trkpt>
      <trkpt lat="47.48445" lon="6.76957">
        <ele>377</ele>
        <time>2014-03-08T13:08:25.625Z</time>
      </trkpt>
      <trkpt lat="47.4841" lon="6.76941">
        <ele>377</ele>
        <time>2014-03-08T13:08:30.573Z</time>
      </trkpt>
      <trkpt lat="47.48375" lon="6.76921">
        <ele>377</ele>
        <time>2014-03-08T13:08:35.601Z</time>
      </trkpt>
      <trkpt lat="47.48344" lon="6.769">
        <ele>379</ele>
        <time>2014-03-08T13:08:40.581Z</time>
      </trkpt>
      <trkpt lat="47.48314" lon="6.76875">
        <ele>380</ele>
        <time>2014-03-08T13:08:45.649Z</time>
      </trkpt>
      <trkpt lat="47.48288" lon="6.76847">
        <ele>379</ele>
        <time>2014-03-08T13:08:50.579Z</time>
      </trkpt>
      <trkpt lat="47.48263" lon="6.76815">
        <ele>377</ele>
        <time>2014-03-08T13:08:55.657Z</time>
      </trkpt>
      <trkpt lat="47.48235" lon="6.76791">
        <ele>375</ele>
        <time>2014-03-08T13:09:00.579Z</time>
      </trkpt>
      <trkpt lat="47.482" lon="6.76777">
        <ele>373</ele>
        <time>2014-03-08T13:09:05.647Z</time>
      </trkpt>
      <trkpt lat="47.48174" lon="6.7675">
        <ele>373</ele>
        <time>2014-03-08T13:09:10.583Z</time>
      </trkpt>
      <trkpt lat="47.48152" lon="6.76712">
        <ele>372</ele>
        <time>2014-03-08T13:09:15.647Z</time>
      </trkpt>
      <trkpt lat="47.48135" lon="6.76673">
        <ele>374</ele>
        <time>2014-03-08T13:09:20.582Z</time>
      </trkpt>
      <trkpt lat="47.48116" lon="6.76639">
        <ele>376</ele>
        <time>2014-03-08T13:09:25.647Z</time>
      </trkpt>
      <trkpt lat="47.481" lon="6.76606">
        <ele>374</ele>
        <time>2014-03-08T13:09:30.578Z</time>
      </trkpt>
      <trkpt lat="47.48113" lon="6.76572">
        <ele>373</ele>
        <time>2014-03-08T13:09:35.651Z</time>
      </trkpt>
      <trkpt lat="47.48119" lon="6.76542">
        <ele>374</ele>
        <time>2014-03-08T13:09:40.583Z</time>
      </trkpt>
      <trkpt lat="47.48115" lon="6.76516">
        <ele>375</ele>
        <time>2014-03-08T13:09:45.653Z</time>
      </trkpt>
      <trkpt lat="47.48091" lon="6.76523">
        <ele>372</ele>
        <time>2014-03-08T13:09:50.578Z</time>
      </trkpt>
      <trkpt lat="47.48073" lon="6.76538">
        <ele>371</ele>
        <time>2014-03-08T13:09:55.649Z</time>
      </trkpt>
      <trkpt lat="47.48057" lon="6.76548">
        <ele>373</ele>
        <time>2014-03-08T13:10:00.577Z</time>
      </trkpt>
      <trkpt lat="47.48036" lon="6.76558">
        <ele>373</ele>
        <time>2014-03-08T13:10:05.647Z</time>
      </trkpt>
      <trkpt lat="47.48013" lon="6.76576">
        <ele>374</ele>
        <time>2014-03-08T13:10:10.576Z</time>
      </trkpt>
      <trkpt lat="47.47989" lon="6.76591">
        <ele>375</ele>
        <time>2014-03-08T13:10:15.622Z</time>
      </trkpt>
      <trkpt lat="47.47967" lon="6.76605">
        <ele>375</ele>
        <time>2014-03-08T13:10:20.590Z</time>
      </trkpt>
      <trkpt lat="47.47952" lon="6.76612">
        <ele>374</ele>
        <time>2014-03-08T13:10:25.580Z</time>
      </trkpt>
      <trkpt lat="47.47925" lon="6.76633">
        <ele>374</ele>
        <time>2014-03-08T13:10:30.650Z</time>
      </trkpt>
      <trkpt lat="47.47897" lon="6.76669">
        <ele>375</ele>
        <time>2014-03-08T13:10:35.579Z</time>
      </trkpt>
      <trkpt lat="47.47873" lon="6.76716">
        <ele>374</ele>
        <time>2014-03-08T13:10:40.597Z</time>
      </trkpt>
      <trkpt lat="47.47852" lon="6.76754">
        <ele>374</ele>
        <time>2014-03-08T13:10:45.573Z</time>
      </trkpt>
      <trkpt lat="47.47832" lon="6.76789">
        <ele>375</ele>
        <time>2014-03-08T13:10:50.574Z</time>
      </trkpt>
      <trkpt lat="47.47808" lon="6.76798">
        <ele>375</ele>
        <time>2014-03-08T13:10:55.636Z</time>
      </trkpt>
      <trkpt lat="47.47808" lon="6.76791">
        <ele>374</ele>
        <time>2014-03-08T13:11:14.949Z</time>
      </trkpt>
      <trkpt lat="47.47715" lon="6.76826">
        <ele>371</ele>
        <time>2014-03-08T13:11:15.579Z</time>
      </trkpt>
      <trkpt lat="47.47701" lon="6.76865">
        <ele>370</ele>
        <time>2014-03-08T13:11:20.683Z</time>
      </trkpt>
      <trkpt lat="47.47689" lon="6.76901">
        <ele>371</ele>
        <time>2014-03-08T13:11:25.576Z</time>
      </trkpt>
      <trkpt lat="47.47675" lon="6.76935">
        <ele>370</ele>
        <time>2014-03-08T13:11:30.654Z</time>
      </trkpt>
      <trkpt lat="47.47664" lon="6.76967">
        <ele>371</ele>
        <time>2014-03-08T13:11:35.579Z</time>
      </trkpt>
      <trkpt lat="47.47654" lon="6.76988">
        <ele>373</ele>
        <time>2014-03-08T13:11:40.635Z</time>
      </trkpt>
      <trkpt lat="47.47643" lon="6.77005">
        <ele>376</ele>
        <time>2014-03-08T13:11:45.577Z</time>
      </trkpt>
      <trkpt lat="47.47639" lon="6.77027">
        <ele>379</ele>
        <time>2014-03-08T13:11:50.643Z</time>
      </trkpt>
      <trkpt lat="47.47633" lon="6.77092">
        <ele>376</ele>
        <time>2014-03-08T13:12:00.653Z</time>
      </trkpt>
      <trkpt lat="47.47624" lon="6.77135">
        <ele>375</ele>
        <time>2014-03-08T13:12:05.577Z</time>
      </trkpt>
      <trkpt lat="47.47604" lon="6.77175">
        <ele>374</ele>
        <time>2014-03-08T13:12:10.647Z</time>
      </trkpt>
      <trkpt lat="47.4758" lon="6.77164">
        <ele>371</ele>
        <time>2014-03-08T13:12:15.577Z</time>
      </trkpt>
      <trkpt lat="47.47557" lon="6.77147">
        <ele>371</ele>
        <time>2014-03-08T13:12:20.649Z</time>
      </trkpt>
      <trkpt lat="47.47534" lon="6.77134">
        <ele>371</ele>
        <time>2014-03-08T13:12:25.581Z</time>
      </trkpt>
      <trkpt lat="47.47516" lon="6.77168">
        <ele>371</ele>
        <time>2014-03-08T13:12:30.622Z</time>
      </trkpt>
      <trkpt lat="47.47536" lon="6.77197">
        <ele>370</ele>
        <time>2014-03-08T13:12:35.588Z</time>
      </trkpt>
      <trkpt lat="47.4756" lon="6.77218">
        <ele>369</ele>
        <time>2014-03-08T13:12:40.655Z</time>
      </trkpt>
      <trkpt lat="47.47585" lon="6.77243">
        <ele>368</ele>
        <time>2014-03-08T13:12:45.569Z</time>
      </trkpt>
      <trkpt lat="47.47608" lon="6.77261">
        <ele>366</ele>
        <time>2014-03-08T13:12:50.651Z</time>
      </trkpt>
      <trkpt lat="47.47631" lon="6.7728">
        <ele>363</ele>
        <time>2014-03-08T13:12:55.580Z</time>
      </trkpt>
      <trkpt lat="47.47636" lon="6.77311">
        <ele>363</ele>
        <time>2014-03-08T13:13:00.651Z</time>
      </trkpt>
      <trkpt lat="47.47626" lon="6.77343">
        <ele>363</ele>
        <time>2014-03-08T13:13:05.577Z</time>
      </trkpt>
      <trkpt lat="47.47615" lon="6.77372">
        <ele>364</ele>
        <time>2014-03-08T13:13:10.658Z</time>
      </trkpt>
      <trkpt lat="47.47605" lon="6.77397">
        <ele>365</ele>
        <time>2014-03-08T13:13:15.575Z</time>
      </trkpt>
      <trkpt lat="47.47602" lon="6.77412">
        <ele>367</ele>
        <time>2014-03-08T13:13:20.632Z</time>
      </trkpt>
      <trkpt lat="47.47586" lon="6.77412">
        <ele>368</ele>
        <time>2014-03-08T13:13:25.586Z</time>
      </trkpt>
      <trkpt lat="47.4757" lon="6.77412">
        <ele>369</ele>
        <time>2014-03-08T13:13:30.648Z</time>
      </trkpt>
      <trkpt lat="47.47555" lon="6.77402">
        <ele>371</ele>
        <time>2014-03-08T13:13:35.579Z</time>
      </trkpt>
      <trkpt lat="47.47539" lon="6.77414">
        <ele>373</ele>
        <time>2014-03-08T13:13:40.648Z</time>
      </trkpt>
      <trkpt lat="47.47524" lon="6.7743">
        <ele>374</ele>
        <time>2014-03-08T13:13:45.559Z</time>
      </trkpt>
      <trkpt lat="47.47509" lon="6.7745">
        <ele>375</ele>
        <time>2014-03-08T13:13:50.654Z</time>
      </trkpt>
      <trkpt lat="47.47492" lon="6.77471">
        <ele>375</ele>
        <time>2014-03-08T13:13:55.575Z</time>
      </trkpt>
      <trkpt lat="47.47436" lon="6.77541">
        <ele>378</ele>
        <time>2014-03-08T13:14:15.650Z</time>
      </trkpt>
      <trkpt lat="47.47415" lon="6.77549">
        <ele>380</ele>
        <time>2014-03-08T13:14:20.590Z</time>
      </trkpt>
      <trkpt lat="47.47399" lon="6.77557">
        <ele>381</ele>
        <time>2014-03-08T13:14:25.647Z</time>
      </trkpt>
      <trkpt lat="47.47384" lon="6.7756">
        <ele>383</ele>
        <time>2014-03-08T13:14:30.578Z</time>
      </trkpt>
      <trkpt lat="47.4737" lon="6.7756">
        <ele>383</ele>
        <time>2014-03-08T13:14:35.647Z</time>
      </trkpt>
      <trkpt lat="47.4736" lon="6.77559">
        <ele>383</ele>
        <time>2014-03-08T13:14:40.579Z</time>
      </trkpt>
      <trkpt lat="47.47348" lon="6.7756">
        <ele>384</ele>
        <time>2014-03-08T13:14:45.634Z</time>
      </trkpt>
      <trkpt lat="47.4733" lon="6.77562">
        <ele>384</ele>
        <time>2014-03-08T13:14:50.656Z</time>
      </trkpt>
      <trkpt lat="47.47315" lon="6.77563">
        <ele>384</ele>
        <time>2014-03-08T13:14:55.586Z</time>
      </trkpt>
      <trkpt lat="47.47303" lon="6.77563">
        <ele>384</ele>
        <time>2014-03-08T13:15:00.558Z</time>
      </trkpt>
      <trkpt lat="47.47288" lon="6.77564">
        <ele>385</ele>
        <time>2014-03-08T13:15:05.648Z</time>
      </trkpt>
      <trkpt lat="47.47277" lon="6.77563">
        <ele>387</ele>
        <time>2014-03-08T13:15:10.590Z</time>
      </trkpt>
      <trkpt lat="47.47266" lon="6.77563">
        <ele>388</ele>
        <time>2014-03-08T13:15:15.653Z</time>
      </trkpt>
      <trkpt lat="47.47255" lon="6.77563">
        <ele>390</ele>
        <time>2014-03-08T13:15:20.586Z</time>
      </trkpt>
      <trkpt lat="47.47243" lon="6.77564">
        <ele>391</ele>
        <time>2014-03-08T13:15:25.616Z</time>
      </trkpt>
      <trkpt lat="47.47233" lon="6.77563">
        <ele>393</ele>
        <time>2014-03-08T13:15:30.651Z</time>
      </trkpt>
      <trkpt lat="47.47224" lon="6.77563">
        <ele>393</ele>
        <time>2014-03-08T13:15:35.578Z</time>
      </trkpt>
      <trkpt lat="47.47214" lon="6.77563">
        <ele>394</ele>
        <time>2014-03-08T13:15:40.647Z</time>
      </trkpt>
      <trkpt lat="47.47201" lon="6.77562">
        <ele>394</ele>
        <time>2014-03-08T13:15:45.581Z</time>
      </trkpt>
      <trkpt lat="47.47189" lon="6.77561">
        <ele>394</ele>
        <time>2014-03-08T13:15:50.647Z</time>
      </trkpt>
      <trkpt lat="47.47176" lon="6.77565">
        <ele>395</ele>
        <time>2014-03-08T13:15:55.584Z</time>
      </trkpt>
      <trkpt lat="47.4716" lon="6.77583">
        <ele>395</ele>
        <time>2014-03-08T13:16:00.648Z</time>
      </trkpt>
      <trkpt lat="47.47147" lon="6.77605">
        <ele>395</ele>
        <time>2014-03-08T13:16:05.584Z</time>
      </trkpt>
      <trkpt lat="47.47137" lon="6.77624">
        <ele>395</ele>
        <time>2014-03-08T13:16:10.645Z</time>
      </trkpt>
      <trkpt lat="47.47142" lon="6.77623">
        <ele>395</ele>
        <time>2014-03-08T13:16:15.584Z</time>
      </trkpt>
      <trkpt lat="47.47183" lon="6.77623">
        <ele>395</ele>
        <time>2014-03-08T13:16:20.592Z</time>
      </trkpt>
      <trkpt lat="47.47149" lon="6.77607">
        <ele>394</ele>
        <time>2014-03-08T13:16:25.572Z</time>
      </trkpt>
      <trkpt lat="47.47119" lon="6.77611">
        <ele>392</ele>
        <time>2014-03-08T13:16:30.636Z</time>
      </trkpt>
      <trkpt lat="47.47087" lon="6.77597">
        <ele>388</ele>
        <time>2014-03-08T13:16:35.575Z</time>
      </trkpt>
      <trkpt lat="47.47057" lon="6.7758">
        <ele>386</ele>
        <time>2014-03-08T13:16:40.650Z</time>
      </trkpt>
      <trkpt lat="47.47039" lon="6.77561">
        <ele>386</ele>
        <time>2014-03-08T13:16:45.574Z</time>
      </trkpt>
      <trkpt lat="47.47024" lon="6.77544">
        <ele>388</ele>
        <time>2014-03-08T13:16:50.650Z</time>
      </trkpt>
      <trkpt lat="47.4701" lon="6.7753">
        <ele>389</ele>
        <time>2014-03-08T13:16:55.583Z</time>
      </trkpt>
      <trkpt lat="47.46998" lon="6.77512">
        <ele>389</ele>
        <time>2014-03-08T13:17:00.592Z</time>
      </trkpt>
      <trkpt lat="47.46987" lon="6.77496">
        <ele>390</ele>
        <time>2014-03-08T13:17:05.647Z</time>
      </trkpt>
      <trkpt lat="47.46978" lon="6.77478">
        <ele>392</ele>
        <time>2014-03-08T13:17:10.578Z</time>
      </trkpt>
      <trkpt lat="47.46967" lon="6.7746">
        <ele>393</ele>
        <time>2014-03-08T13:17:15.651Z</time>
      </trkpt>
      <trkpt lat="47.46958" lon="6.77445">
        <ele>394</ele>
        <time>2014-03-08T13:17:20.581Z</time>
      </trkpt>
      <trkpt lat="47.4695" lon="6.7743">
        <ele>395</ele>
        <time>2014-03-08T13:17:25.626Z</time>
      </trkpt>
      <trkpt lat="47.46935" lon="6.77426">
        <ele>395</ele>
        <time>2014-03-08T13:17:30.580Z</time>
      </trkpt>
      <trkpt lat="47.46922" lon="6.77436">
        <ele>396</ele>
        <time>2014-03-08T13:17:35.648Z</time>
      </trkpt>
      <trkpt lat="47.4691" lon="6.77445">
        <ele>397</ele>
        <time>2014-03-08T13:17:40.588Z</time>
      </trkpt>
      <trkpt lat="47.46898" lon="6.77449">
        <ele>398</ele>
        <time>2014-03-08T13:17:45.651Z</time>
      </trkpt>
      <trkpt lat="47.46887" lon="6.77449">
        <ele>399</ele>
        <time>2014-03-08T13:17:50.589Z</time>
      </trkpt>
      <trkpt lat="47.46827" lon="6.77474">
        <ele>411</ele>
        <time>2014-03-08T13:18:25.554Z</time>
      </trkpt>
      <trkpt lat="47.46825" lon="6.77481">
        <ele>412</ele>
        <time>2014-03-08T13:18:30.581Z</time>
      </trkpt>
      <trkpt lat="47.46822" lon="6.77491">
        <ele>412</ele>
        <time>2014-03-08T13:18:35.651Z</time>
      </trkpt>
      <trkpt lat="47.46819" lon="6.77503">
        <ele>411</ele>
        <time>2014-03-08T13:18:40.588Z</time>
      </trkpt>
      <trkpt lat="47.46815" lon="6.77518">
        <ele>412</ele>
        <time>2014-03-08T13:18:45.618Z</time>
      </trkpt>
      <trkpt lat="47.46811" lon="6.77531">
        <ele>412</ele>
        <time>2014-03-08T13:18:50.578Z</time>
      </trkpt>
      <trkpt lat="47.46811" lon="6.77543">
        <ele>413</ele>
        <time>2014-03-08T13:18:55.580Z</time>
      </trkpt>
      <trkpt lat="47.46807" lon="6.77558">
        <ele>416</ele>
        <time>2014-03-08T13:19:00.651Z</time>
      </trkpt>
      <trkpt lat="47.46804" lon="6.77572">
        <ele>417</ele>
        <time>2014-03-08T13:19:05.577Z</time>
      </trkpt>
      <trkpt lat="47.468" lon="6.77588">
        <ele>417</ele>
        <time>2014-03-08T13:19:10.648Z</time>
      </trkpt>
      <trkpt lat="47.46798" lon="6.77601">
        <ele>416</ele>
        <time>2014-03-08T13:19:15.584Z</time>
      </trkpt>
      <trkpt lat="47.46794" lon="6.77613">
        <ele>416</ele>
        <time>2014-03-08T13:19:20.577Z</time>
      </trkpt>
      <trkpt lat="47.46793" lon="6.77628">
        <ele>414</ele>
        <time>2014-03-08T13:19:25.649Z</time>
      </trkpt>
      <trkpt lat="47.46789" lon="6.77643">
        <ele>415</ele>
        <time>2014-03-08T13:19:30.578Z</time>
      </trkpt>
      <trkpt lat="47.46786" lon="6.77662">
        <ele>416</ele>
        <time>2014-03-08T13:19:35.590Z</time>
      </trkpt>
      <trkpt lat="47.46783" lon="6.77689">
        <ele>417</ele>
        <time>2014-03-08T13:19:40.638Z</time>
      </trkpt>
      <trkpt lat="47.46777" lon="6.77713">
        <ele>418</ele>
        <time>2014-03-08T13:19:45.583Z</time>
      </trkpt>
      <trkpt lat="47.46774" lon="6.77745">
        <ele>419</ele>
        <time>2014-03-08T13:19:50.650Z</time>
      </trkpt>
      <trkpt lat="47.46766" lon="6.77773">
        <ele>418</ele>
        <time>2014-03-08T13:19:55.585Z</time>
      </trkpt>
      <trkpt lat="47.46762" lon="6.77799">
        <ele>417</ele>
        <time>2014-03-08T13:20:00.658Z</time>
      </trkpt>
      <trkpt lat="47.46752" lon="6.77823">
        <ele>418</ele>
        <time>2014-03-08T13:20:05.579Z</time>
      </trkpt>
      <trkpt lat="47.4675" lon="6.77839">
        <ele>417</ele>
        <time>2014-03-08T13:20:10.650Z</time>
      </trkpt>
      <trkpt lat="47.46745" lon="6.77854">
        <ele>417</ele>
        <time>2014-03-08T13:20:15.586Z</time>
      </trkpt>
      <trkpt lat="47.46737" lon="6.7787">
        <ele>418</ele>
        <time>2014-03-08T13:20:20.649Z</time>
      </trkpt>
      <trkpt lat="47.46732" lon="6.77889">
        <ele>419</ele>
        <time>2014-03-08T13:20:25.587Z</time>
      </trkpt>
      <trkpt lat="47.46732" lon="6.77904">
        <ele>419</ele>
        <time>2014-03-08T13:20:30.617Z</time>
      </trkpt>
      <trkpt lat="47.4673" lon="6.77916">
        <ele>421</ele>
        <time>2014-03-08T13:20:35.577Z</time>
      </trkpt>
      <trkpt lat="47.46723" lon="6.77937">
        <ele>422</ele>
        <time>2014-03-08T13:20:40.645Z</time>
      </trkpt>
      <trkpt lat="47.46709" lon="6.7796">
        <ele>421</ele>
        <time>2014-03-08T13:20:45.588Z</time>
      </trkpt>
      <trkpt lat="47.46702" lon="6.77986">
        <ele>421</ele>
        <time>2014-03-08T13:20:50.652Z</time>
      </trkpt>
      <trkpt lat="47.46705" lon="6.78016">
        <ele>420</ele>
        <time>2014-03-08T13:20:55.584Z</time>
      </trkpt>
      <trkpt lat="47.46702" lon="6.7804">
        <ele>420</ele>
        <time>2014-03-08T13:21:00.650Z</time>
      </trkpt>
      <trkpt lat="47.46694" lon="6.78058">
        <ele>420</ele>
        <time>2014-03-08T13:21:05.620Z</time>
      </trkpt>
      <trkpt lat="47.46679" lon="6.78084">
        <ele>421</ele>
        <time>2014-03-08T13:21:10.580Z</time>
      </trkpt>
      <trkpt lat="47.46665" lon="6.781">
        <ele>421</ele>
        <time>2014-03-08T13:21:15.629Z</time>
      </trkpt>
      <trkpt lat="47.46655" lon="6.78109">
        <ele>423</ele>
        <time>2014-03-08T13:21:20.586Z</time>
      </trkpt>
      <trkpt lat="47.46648" lon="6.78118">
        <ele>424</ele>
        <time>2014-03-08T13:21:25.650Z</time>
      </trkpt>
      <trkpt lat="47.46641" lon="6.78129">
        <ele>424</ele>
        <time>2014-03-08T13:21:30.586Z</time>
      </trkpt>
      <trkpt lat="47.46633" lon="6.78144">
        <ele>423</ele>
        <time>2014-03-08T13:21:35.651Z</time>
      </trkpt>
      <trkpt lat="47.46628" lon="6.7816">
        <ele>424</ele>
        <time>2014-03-08T13:21:40.585Z</time>
      </trkpt>
      <trkpt lat="47.46625" lon="6.78177">
        <ele>425</ele>
        <time>2014-03-08T13:21:45.652Z</time>
      </trkpt>
      <trkpt lat="47.46621" lon="6.78193">
        <ele>423</ele>
        <time>2014-03-08T13:21:50.582Z</time>
      </trkpt>
      <trkpt lat="47.46619" lon="6.78206">
        <ele>424</ele>
        <time>2014-03-08T13:21:55.657Z</time>
      </trkpt>
      <trkpt lat="47.46619" lon="6.78218">
        <ele>423</ele>
        <time>2014-03-08T13:22:00.579Z</time>
      </trkpt>
      <trkpt lat="47.46618" lon="6.78231">
        <ele>423</ele>
        <time>2014-03-08T13:22:05.650Z</time>
      </trkpt>
      <trkpt lat="47.46617" lon="6.78244">
        <ele>424</ele>
        <time>2014-03-08T13:22:10.581Z</time>
      </trkpt>
      <trkpt lat="47.46615" lon="6.78255">
        <ele>424</ele>
        <time>2014-03-08T13:22:15.648Z</time>
      </trkpt>
      <trkpt lat="47.46614" lon="6.78263">
        <ele>424</ele>
        <time>2014-03-08T13:22:20.589Z</time>
      </trkpt>
      <trkpt lat="47.46613" lon="6.78266">
        <ele>424</ele>
        <time>2014-03-08T13:22:25.649Z</time>
      </trkpt>
      <trkpt lat="47.46609" lon="6.78267">
        <ele>425</ele>
        <time>2014-03-08T13:22:30.585Z</time>
      </trkpt>
      <trkpt lat="47.46606" lon="6.78268">
        <ele>427</ele>
        <time>2014-03-08T13:22:35.652Z</time>
      </trkpt>
      <trkpt lat="47.46602" lon="6.7827">
        <ele>428</ele>
        <time>2014-03-08T13:22:40.577Z</time>
      </trkpt>
      <trkpt lat="47.46592" lon="6.78271">
        <ele>428</ele>
        <time>2014-03-08T13:22:45.635Z</time>
      </trkpt>
      <trkpt lat="47.46582" lon="6.78273">
        <ele>428</ele>
        <time>2014-03-08T13:22:50.576Z</time>
      </trkpt>
      <trkpt lat="47.46576" lon="6.7827">
        <ele>429</ele>
        <time>2014-03-08T13:22:55.642Z</time>
      </trkpt>
      <trkpt lat="47.46541" lon="6.78266">
        <ele>432</ele>
        <time>2014-03-08T13:23:10.551Z</time>
      </trkpt>
      <trkpt lat="47.46529" lon="6.78265">
        <ele>434</ele>
        <time>2014-03-08T13:23:15.734Z</time>
      </trkpt>
      <trkpt lat="47.46518" lon="6.78266">
        <ele>434</ele>
        <time>2014-03-08T13:23:20.578Z</time>
      </trkpt>
      <trkpt lat="47.46509" lon="6.78269">
        <ele>435</ele>
        <time>2014-03-08T13:23:25.648Z</time>
      </trkpt>
      <trkpt lat="47.46507" lon="6.78271">
        <ele>435</ele>
        <time>2014-03-08T13:23:30.588Z</time>
      </trkpt>
      <trkpt lat="47.46508" lon="6.78273">
        <ele>435</ele>
        <time>2014-03-08T13:23:35.631Z</time>
      </trkpt>
      <trkpt lat="47.46507" lon="6.78274">
        <ele>435</ele>
        <time>2014-03-08T13:23:40.590Z</time>
      </trkpt>
      <trkpt lat="47.46505" lon="6.78275">
        <ele>434</ele>
        <time>2014-03-08T13:23:45.652Z</time>
      </trkpt>
      <trkpt lat="47.46505" lon="6.78275">
        <ele>435</ele>
        <time>2014-03-08T13:23:50.585Z</time>
      </trkpt>
      <trkpt lat="47.46503" lon="6.78274">
        <ele>434</ele>
        <time>2014-03-08T13:23:55.649Z</time>
      </trkpt>
      <trkpt lat="47.46503" lon="6.78274">
        <ele>434</ele>
        <time>2014-03-08T13:24:20.659Z</time>
      </trkpt>
      <trkpt lat="47.465" lon="6.78274">
        <ele>433</ele>
        <time>2014-03-08T13:24:25.591Z</time>
      </trkpt>
      <trkpt lat="47.465" lon="6.78274">
        <ele>433</ele>
        <time>2014-03-08T13:24:30.653Z</time>
      </trkpt>
      <trkpt lat="47.465" lon="6.78274">
        <ele>433</ele>
        <time>2014-03-08T13:24:35.580Z</time>
      </trkpt>
      <trkpt lat="47.46498" lon="6.78274">
        <ele>433</ele>
        <time>2014-03-08T13:24:40.652Z</time>
      </trkpt>
      <trkpt lat="47.46497" lon="6.78274">
        <ele>432</ele>
        <time>2014-03-08T13:24:45.581Z</time>
      </trkpt>
      <trkpt lat="47.46495" lon="6.78275">
        <ele>432</ele>
        <time>2014-03-08T13:24:50.652Z</time>
      </trkpt>
      <trkpt lat="47.46494" lon="6.78276">
        <ele>432</ele>
        <time>2014-03-08T13:24:55.838Z</time>
      </trkpt>
      <trkpt lat="47.46494" lon="6.7828">
        <ele>432</ele>
        <time>2014-03-08T13:25:00.653Z</time>
      </trkpt>
      <trkpt lat="47.46492" lon="6.7828">
        <ele>432</ele>
        <time>2014-03-08T13:25:05.587Z</time>
      </trkpt>
      <trkpt lat="47.46492" lon="6.78279">
        <ele>433</ele>
        <time>2014-03-08T13:25:10.644Z</time>
      </trkpt>
      <trkpt lat="47.46489" lon="6.78274">
        <ele>434</ele>
        <time>2014-03-08T13:25:15.580Z</time>
      </trkpt>
      <trkpt lat="47.46483" lon="6.78282">
        <ele>433</ele>
        <time>2014-03-08T13:25:20.654Z</time>
      </trkpt>
      <trkpt lat="47.46476" lon="6.78285">
        <ele>433</ele>
        <time>2014-03-08T13:25:25.575Z</time>
      </trkpt>
      <trkpt lat="47.46467" lon="6.78279">
        <ele>434</ele>
        <time>2014-03-08T13:25:30.650Z</time>
      </trkpt>
      <trkpt lat="47.46457" lon="6.78273">
        <ele>436</ele>
        <time>2014-03-08T13:25:35.575Z</time>
      </trkpt>
      <trkpt lat="47.46449" lon="6.7827">
        <ele>436</ele>
        <time>2014-03-08T13:25:40.648Z</time>
      </trkpt>
      <trkpt lat="47.46435" lon="6.78269">
        <ele>436</ele>
        <time>2014-03-08T13:25:45.584Z</time>
      </trkpt>
      <trkpt lat="47.46424" lon="6.78268">
        <ele>437</ele>
        <time>2014-03-08T13:25:50.630Z</time>
      </trkpt>
      <trkpt lat="47.46412" lon="6.78266">
        <ele>436</ele>
        <time>2014-03-08T13:25:55.572Z</time>
      </trkpt>
      <trkpt lat="47.46338" lon="6.78275">
        <ele>436</ele>
        <time>2014-03-08T13:26:20.733Z</time>
      </trkpt>
      <trkpt lat="47.46323" lon="6.78277">
        <ele>436</ele>
        <time>2014-03-08T13:26:25.569Z</time>
      </trkpt>
      <trkpt lat="47.46309" lon="6.78278">
        <ele>436</ele>
        <time>2014-03-08T13:26:30.614Z</time>
      </trkpt>
      <trkpt lat="47.46297" lon="6.78282">
        <ele>436</ele>
        <time>2014-03-08T13:26:35.580Z</time>
      </trkpt>
      <trkpt lat="47.46285" lon="6.78282">
        <ele>437</ele>
        <time>2014-03-08T13:26:40.653Z</time>
      </trkpt>
      <trkpt lat="47.46273" lon="6.78281">
        <ele>438</ele>
        <time>2014-03-08T13:26:45.586Z</time>
      </trkpt>
      <trkpt lat="47.4626" lon="6.7828">
        <ele>439</ele>
        <time>2014-03-08T13:26:50.655Z</time>
      </trkpt>
      <trkpt lat="47.46248" lon="6.78285">
        <ele>440</ele>
        <time>2014-03-08T13:26:55.575Z</time>
      </trkpt>
      <trkpt lat="47.46236" lon="6.78288">
        <ele>442</ele>
        <time>2014-03-08T13:27:00.655Z</time>
      </trkpt>
      <trkpt lat="47.46225" lon="6.78287">
        <ele>445</ele>
        <time>2014-03-08T13:27:05.577Z</time>
      </trkpt>
      <trkpt lat="47.4621" lon="6.78288">
        <ele>446</ele>
        <time>2014-03-08T13:27:10.650Z</time>
      </trkpt>
      <trkpt lat="47.46192" lon="6.78291">
        <ele>448</ele>
        <time>2014-03-08T13:27:15.589Z</time>
      </trkpt>
      <trkpt lat="47.46181" lon="6.78291">
        <ele>450</ele>
        <time>2014-03-08T13:27:20.649Z</time>
      </trkpt>
      <trkpt lat="47.46169" lon="6.78291">
        <ele>452</ele>
        <time>2014-03-08T13:27:25.579Z</time>
      </trkpt>
      <trkpt lat="47.46149" lon="6.78291">
        <ele>455</ele>
        <time>2014-03-08T13:27:30.577Z</time>
      </trkpt>
      <trkpt lat="47.46133" lon="6.78296">
        <ele>456</ele>
        <time>2014-03-08T13:27:35.649Z</time>
      </trkpt>
      <trkpt lat="47.46119" lon="6.78298">
        <ele>455</ele>
        <time>2014-03-08T13:27:40.607Z</time>
      </trkpt>
      <trkpt lat="47.46098" lon="6.78304">
        <ele>456</ele>
        <time>2014-03-08T13:27:45.575Z</time>
      </trkpt>
      <trkpt lat="47.46075" lon="6.7831">
        <ele>458</ele>
        <time>2014-03-08T13:27:50.650Z</time>
      </trkpt>
      <trkpt lat="47.46046" lon="6.78322">
        <ele>458</ele>
        <time>2014-03-08T13:27:55.579Z</time>
      </trkpt>
      <trkpt lat="47.4602" lon="6.78338">
        <ele>458</ele>
        <time>2014-03-08T13:28:00.638Z</time>
      </trkpt>
      <trkpt lat="47.45996" lon="6.78364">
        <ele>460</ele>
        <time>2014-03-08T13:28:05.575Z</time>
      </trkpt>
      <trkpt lat="47.45968" lon="6.78393">
        <ele>459</ele>
        <time>2014-03-08T13:28:10.632Z</time>
      </trkpt>
      <trkpt lat="47.45933" lon="6.78426">
        <ele>459</ele>
        <time>2014-03-08T13:28:15.556Z</time>
      </trkpt>
      <trkpt lat="47.45924" lon="6.78489">
        <ele>457</ele>
        <time>2014-03-08T13:28:20.650Z</time>
      </trkpt>
      <trkpt lat="47.45922" lon="6.78534">
        <ele>451</ele>
        <time>2014-03-08T13:28:25.578Z</time>
      </trkpt>
      <trkpt lat="47.45902" lon="6.78503">
        <ele>448</ele>
        <time>2014-03-08T13:28:30.630Z</time>
      </trkpt>
      <trkpt lat="47.45863" lon="6.78463">
        <ele>445</ele>
        <time>2014-03-08T13:28:35.649Z</time>
      </trkpt>
      <trkpt lat="47.45812" lon="6.78415">
        <ele>437</ele>
        <time>2014-03-08T13:28:40.586Z</time>
      </trkpt>
      <trkpt lat="47.45758" lon="6.78381">
        <ele>431</ele>
        <time>2014-03-08T13:28:45.647Z</time>
      </trkpt>
      <trkpt lat="47.45698" lon="6.78376">
        <ele>424</ele>
        <time>2014-03-08T13:28:50.580Z</time>
      </trkpt>
      <trkpt lat="47.4564" lon="6.7839">
        <ele>418</ele>
        <time>2014-03-08T13:28:55.647Z</time>
      </trkpt>
      <trkpt lat="47.45597" lon="6.78412">
        <ele>414</ele>
        <time>2014-03-08T13:29:00.587Z</time>
      </trkpt>
      <trkpt lat="47.4556" lon="6.78433">
        <ele>412</ele>
        <time>2014-03-08T13:29:05.617Z</time>
      </trkpt>
      <trkpt lat="47.45522" lon="6.78449">
        <ele>413</ele>
        <time>2014-03-08T13:29:10.584Z</time>
      </trkpt>
      <trkpt lat="47.45488" lon="6.78467">
        <ele>414</ele>
        <time>2014-03-08T13:29:15.586Z</time>
      </trkpt>
      <trkpt lat="47.45458" lon="6.78492">
        <ele>413</ele>
        <time>2014-03-08T13:29:20.629Z</time>
      </trkpt>
      <trkpt lat="47.45428" lon="6.78506">
        <ele>410</ele>
        <time>2014-03-08T13:29:25.580Z</time>
      </trkpt>
      <trkpt lat="47.45397" lon="6.78537">
        <ele>409</ele>
        <time>2014-03-08T13:29:30.579Z</time>
      </trkpt>
      <trkpt lat="47.45391" lon="6.78579">
        <ele>406</ele>
        <time>2014-03-08T13:29:35.647Z</time>
      </trkpt>
      <trkpt lat="47.45411" lon="6.78615">
        <ele>401</ele>
        <time>2014-03-08T13:29:40.584Z</time>
      </trkpt>
      <trkpt lat="47.45431" lon="6.78651">
        <ele>395</ele>
        <time>2014-03-08T13:29:45.652Z</time>
      </trkpt>
      <trkpt lat="47.45446" lon="6.78681">
        <ele>395</ele>
        <time>2014-03-08T13:29:50.583Z</time>
      </trkpt>
      <trkpt lat="47.4546" lon="6.78708">
        <ele>394</ele>
        <time>2014-03-08T13:29:55.652Z</time>
      </trkpt>
      <trkpt lat="47.45474" lon="6.78734">
        <ele>393</ele>
        <time>2014-03-08T13:30:00.582Z</time>
      </trkpt>
      <trkpt lat="47.45482" lon="6.78762">
        <ele>391</ele>
        <time>2014-03-08T13:30:05.650Z</time>
      </trkpt>
      <trkpt lat="47.45461" lon="6.78788">
        <ele>390</ele>
        <time>2014-03-08T13:30:10.589Z</time>
      </trkpt>
      <trkpt lat="47.45438" lon="6.78816">
        <ele>390</ele>
        <time>2014-03-08T13:30:15.652Z</time>
      </trkpt>
      <trkpt lat="47.45414" lon="6.78841">
        <ele>390</ele>
        <time>2014-03-08T13:30:20.597Z</time>
      </trkpt>
      <trkpt lat="47.45388" lon="6.78865">
        <ele>391</ele>
        <time>2014-03-08T13:30:30.594Z</time>
      </trkpt>
      <trkpt lat="47.45376" lon="6.78881">
        <ele>390</ele>
        <time>2014-03-08T13:30:35.650Z</time>
      </trkpt>
      <trkpt lat="47.45359" lon="6.78902">
        <ele>390</ele>
        <time>2014-03-08T13:30:40.580Z</time>
      </trkpt>
      <trkpt lat="47.45342" lon="6.78928">
        <ele>390</ele>
        <time>2014-03-08T13:30:45.939Z</time>
      </trkpt>
      <trkpt lat="47.45323" lon="6.78949">
        <ele>390</ele>
        <time>2014-03-08T13:30:50.590Z</time>
      </trkpt>
      <trkpt lat="47.45307" lon="6.78973">
        <ele>389</ele>
        <time>2014-03-08T13:30:55.587Z</time>
      </trkpt>
      <trkpt lat="47.45292" lon="6.78999">
        <ele>389</ele>
        <time>2014-03-08T13:31:00.651Z</time>
      </trkpt>
      <trkpt lat="47.45278" lon="6.79027">
        <ele>388</ele>
        <time>2014-03-08T13:31:05.579Z</time>
      </trkpt>
      <trkpt lat="47.45268" lon="6.79056">
        <ele>388</ele>
        <time>2014-03-08T13:31:10.652Z</time>
      </trkpt>
      <trkpt lat="47.45258" lon="6.79083">
        <ele>389</ele>
        <time>2014-03-08T13:31:15.583Z</time>
      </trkpt>
      <trkpt lat="47.45248" lon="6.79107">
        <ele>390</ele>
        <time>2014-03-08T13:31:20.618Z</time>
      </trkpt>
      <trkpt lat="47.45236" lon="6.79125">
        <ele>390</ele>
        <time>2014-03-08T13:31:25.582Z</time>
      </trkpt>
      <trkpt lat="47.45224" lon="6.79139">
        <ele>390</ele>
        <time>2014-03-08T13:31:30.647Z</time>
      </trkpt>
      <trkpt lat="47.45217" lon="6.79165">
        <ele>389</ele>
        <time>2014-03-08T13:31:35.583Z</time>
      </trkpt>
      <trkpt lat="47.45212" lon="6.79193">
        <ele>389</ele>
        <time>2014-03-08T13:31:40.640Z</time>
      </trkpt>
      <trkpt lat="47.45205" lon="6.79222">
        <ele>389</ele>
        <time>2014-03-08T13:31:45.591Z</time>
      </trkpt>
      <trkpt lat="47.45192" lon="6.79253">
        <ele>388</ele>
        <time>2014-03-08T13:31:50.652Z</time>
      </trkpt>
      <trkpt lat="47.4518" lon="6.79287">
        <ele>388</ele>
        <time>2014-03-08T13:31:55.584Z</time>
      </trkpt>
      <trkpt lat="47.45155" lon="6.79385">
        <ele>389</ele>
        <time>2014-03-08T13:32:10.648Z</time>
      </trkpt>
      <trkpt lat="47.45148" lon="6.79417">
        <ele>389</ele>
        <time>2014-03-08T13:32:15.585Z</time>
      </trkpt>
      <trkpt lat="47.45141" lon="6.7945">
        <ele>389</ele>
        <time>2014-03-08T13:32:20.633Z</time>
      </trkpt>
      <trkpt lat="47.45133" lon="6.79483">
        <ele>389</ele>
        <time>2014-03-08T13:32:25.598Z</time>
      </trkpt>
      <trkpt lat="47.45127" lon="6.79514">
        <ele>389</ele>
        <time>2014-03-08T13:32:30.651Z</time>
      </trkpt>
      <trkpt lat="47.45116" lon="6.79542">
        <ele>388</ele>
        <time>2014-03-08T13:32:35.587Z</time>
      </trkpt>
      <trkpt lat="47.45096" lon="6.7957">
        <ele>388</ele>
        <time>2014-03-08T13:32:40.601Z</time>
      </trkpt>
      <trkpt lat="47.45078" lon="6.79594">
        <ele>388</ele>
        <time>2014-03-08T13:32:45.621Z</time>
      </trkpt>
      <trkpt lat="47.45062" lon="6.79616">
        <ele>388</ele>
        <time>2014-03-08T13:32:50.587Z</time>
      </trkpt>
      <trkpt lat="47.45053" lon="6.79626">
        <ele>388</ele>
        <time>2014-03-08T13:32:55.635Z</time>
      </trkpt>
      <trkpt lat="47.45046" lon="6.79645">
        <ele>388</ele>
        <time>2014-03-08T13:33:00.577Z</time>
      </trkpt>
      <trkpt lat="47.45041" lon="6.79665">
        <ele>389</ele>
        <time>2014-03-08T13:33:05.649Z</time>
      </trkpt>
      <trkpt lat="47.45039" lon="6.79679">
        <ele>389</ele>
        <time>2014-03-08T13:33:10.590Z</time>
      </trkpt>
      <trkpt lat="47.45038" lon="6.79693">
        <ele>390</ele>
        <time>2014-03-08T13:33:15.653Z</time>
      </trkpt>
      <trkpt lat="47.45038" lon="6.79705">
        <ele>392</ele>
        <time>2014-03-08T13:33:20.640Z</time>
      </trkpt>
      <trkpt lat="47.45036" lon="6.79713">
        <ele>393</ele>
        <time>2014-03-08T13:33:25.589Z</time>
      </trkpt>
      <trkpt lat="47.45032" lon="6.79717">
        <ele>394</ele>
        <time>2014-03-08T13:33:30.650Z</time>
      </trkpt>
      <trkpt lat="47.45027" lon="6.79715">
        <ele>395</ele>
        <time>2014-03-08T13:33:35.588Z</time>
      </trkpt>
      <trkpt lat="47.45022" lon="6.79712">
        <ele>397</ele>
        <time>2014-03-08T13:33:40.651Z</time>
      </trkpt>
      <trkpt lat="47.45018" lon="6.79709">
        <ele>398</ele>
        <time>2014-03-08T13:33:45.586Z</time>
      </trkpt>
      <trkpt lat="47.45014" lon="6.79704">
        <ele>399</ele>
        <time>2014-03-08T13:33:50.579Z</time>
      </trkpt>
      <trkpt lat="47.45009" lon="6.79699">
        <ele>400</ele>
        <time>2014-03-08T13:33:55.634Z</time>
      </trkpt>
      <trkpt lat="47.44971" lon="6.79694">
        <ele>407</ele>
        <time>2014-03-08T13:34:20.585Z</time>
      </trkpt>
      <trkpt lat="47.44962" lon="6.79698">
        <ele>408</ele>
        <time>2014-03-08T13:34:25.617Z</time>
      </trkpt>
      <trkpt lat="47.44954" lon="6.79708">
        <ele>408</ele>
        <time>2014-03-08T13:34:30.593Z</time>
      </trkpt>
      <trkpt lat="47.44945" lon="6.79716">
        <ele>408</ele>
        <time>2014-03-08T13:34:35.647Z</time>
      </trkpt>
      <trkpt lat="47.44935" lon="6.79718">
        <ele>408</ele>
        <time>2014-03-08T13:34:40.589Z</time>
      </trkpt>
      <trkpt lat="47.44924" lon="6.7972">
        <ele>409</ele>
        <time>2014-03-08T13:34:45.644Z</time>
      </trkpt>
      <trkpt lat="47.44912" lon="6.79724">
        <ele>410</ele>
        <time>2014-03-08T13:34:50.555Z</time>
      </trkpt>
      <trkpt lat="47.44901" lon="6.79728">
        <ele>410</ele>
        <time>2014-03-08T13:34:55.621Z</time>
      </trkpt>
      <trkpt lat="47.44888" lon="6.7973">
        <ele>410</ele>
        <time>2014-03-08T13:35:00.585Z</time>
      </trkpt>
      <trkpt lat="47.44875" lon="6.79727">
        <ele>410</ele>
        <time>2014-03-08T13:35:05.649Z</time>
      </trkpt>
      <trkpt lat="47.44861" lon="6.79721">
        <ele>410</ele>
        <time>2014-03-08T13:35:10.652Z</time>
      </trkpt>
      <trkpt lat="47.44844" lon="6.7972">
        <ele>410</ele>
        <time>2014-03-08T13:35:15.593Z</time>
      </trkpt>
      <trkpt lat="47.44826" lon="6.79726">
        <ele>410</ele>
        <time>2014-03-08T13:35:20.652Z</time>
      </trkpt>
      <trkpt lat="47.44821" lon="6.79747">
        <ele>410</ele>
        <time>2014-03-08T13:35:25.593Z</time>
      </trkpt>
      <trkpt lat="47.44818" lon="6.79773">
        <ele>410</ele>
        <time>2014-03-08T13:35:30.635Z</time>
      </trkpt>
      <trkpt lat="47.44813" lon="6.798">
        <ele>410</ele>
        <time>2014-03-08T13:35:35.556Z</time>
      </trkpt>
      <trkpt lat="47.44809" lon="6.79827">
        <ele>410</ele>
        <time>2014-03-08T13:35:40.653Z</time>
      </trkpt>
      <trkpt lat="47.44805" lon="6.79855">
        <ele>409</ele>
        <time>2014-03-08T13:35:45.589Z</time>
      </trkpt>
      <trkpt lat="47.44802" lon="6.7988">
        <ele>409</ele>
        <time>2014-03-08T13:35:50.650Z</time>
      </trkpt>
      <trkpt lat="47.44798" lon="6.79904">
        <ele>409</ele>
        <time>2014-03-08T13:35:55.649Z</time>
      </trkpt>
      <trkpt lat="47.44795" lon="6.79928">
        <ele>410</ele>
        <time>2014-03-08T13:36:00.583Z</time>
      </trkpt>
      <trkpt lat="47.44792" lon="6.7995">
        <ele>410</ele>
        <time>2014-03-08T13:36:05.594Z</time>
      </trkpt>
      <trkpt lat="47.44789" lon="6.79971">
        <ele>410</ele>
        <time>2014-03-08T13:36:10.653Z</time>
      </trkpt>
      <trkpt lat="47.44784" lon="6.79984">
        <ele>411</ele>
        <time>2014-03-08T13:36:15.585Z</time>
      </trkpt>
      <trkpt lat="47.44772" lon="6.79982">
        <ele>411</ele>
        <time>2014-03-08T13:36:20.649Z</time>
      </trkpt>
      <trkpt lat="47.4476" lon="6.79979">
        <ele>412</ele>
        <time>2014-03-08T13:36:25.586Z</time>
      </trkpt>
      <trkpt lat="47.44747" lon="6.79977">
        <ele>412</ele>
        <time>2014-03-08T13:36:30.652Z</time>
      </trkpt>
      <trkpt lat="47.44734" lon="6.79974">
        <ele>413</ele>
        <time>2014-03-08T13:36:35.583Z</time>
      </trkpt>
      <trkpt lat="47.44718" lon="6.79971">
        <ele>414</ele>
        <time>2014-03-08T13:36:40.648Z</time>
      </trkpt>
      <trkpt lat="47.44702" lon="6.79968">
        <ele>415</ele>
        <time>2014-03-08T13:36:45.580Z</time>
      </trkpt>
      <trkpt lat="47.44687" lon="6.79963">
        <ele>415</ele>
        <time>2014-03-08T13:36:50.652Z</time>
      </trkpt>
      <trkpt lat="47.44671" lon="6.7996">
        <ele>416</ele>
        <time>2014-03-08T13:36:55.588Z</time>
      </trkpt>
      <trkpt lat="47.44638" lon="6.79954">
        <ele>418</ele>
        <time>2014-03-08T13:37:05.580Z</time>
      </trkpt>
      <trkpt lat="47.44622" lon="6.79951">
        <ele>419</ele>
        <time>2014-03-08T13:37:10.650Z</time>
      </trkpt>
      <trkpt lat="47.44605" lon="6.79942">
        <ele>419</ele>
        <time>2014-03-08T13:37:15.652Z</time>
      </trkpt>
      <trkpt lat="47.44588" lon="6.79935">
        <ele>419</ele>
        <time>2014-03-08T13:37:20.593Z</time>
      </trkpt>
      <trkpt lat="47.44574" lon="6.7993">
        <ele>419</ele>
        <time>2014-03-08T13:37:25.586Z</time>
      </trkpt>
      <trkpt lat="47.4456" lon="6.79925">
        <ele>420</ele>
        <time>2014-03-08T13:37:30.654Z</time>
      </trkpt>
      <trkpt lat="47.44545" lon="6.79921">
        <ele>421</ele>
        <time>2014-03-08T13:37:35.587Z</time>
      </trkpt>
      <trkpt lat="47.44532" lon="6.79917">
        <ele>421</ele>
        <time>2014-03-08T13:37:40.652Z</time>
      </trkpt>
      <trkpt lat="47.44519" lon="6.79914">
        <ele>422</ele>
        <time>2014-03-08T13:37:45.654Z</time>
      </trkpt>
      <trkpt lat="47.44507" lon="6.79913">
        <ele>422</ele>
        <time>2014-03-08T13:37:50.588Z</time>
      </trkpt>
      <trkpt lat="47.44496" lon="6.79912">
        <ele>423</ele>
        <time>2014-03-08T13:37:55.654Z</time>
      </trkpt>
      <trkpt lat="47.44485" lon="6.7991">
        <ele>423</ele>
        <time>2014-03-08T13:38:00.574Z</time>
      </trkpt>
      <trkpt lat="47.44475" lon="6.79906">
        <ele>424</ele>
        <time>2014-03-08T13:38:05.629Z</time>
      </trkpt>
      <trkpt lat="47.44466" lon="6.79901">
        <ele>425</ele>
        <time>2014-03-08T13:38:10.578Z</time>
      </trkpt>
      <trkpt lat="47.44456" lon="6.79897">
        <ele>425</ele>
        <time>2014-03-08T13:38:15.651Z</time>
      </trkpt>
      <trkpt lat="47.44436" lon="6.79888">
        <ele>427</ele>
        <time>2014-03-08T13:38:25.656Z</time>
      </trkpt>
      <trkpt lat="47.44425" lon="6.79883">
        <ele>428</ele>
        <time>2014-03-08T13:38:30.655Z</time>
      </trkpt>
      <trkpt lat="47.44414" lon="6.79878">
        <ele>429</ele>
        <time>2014-03-08T13:38:35.593Z</time>
      </trkpt>
      <trkpt lat="47.44403" lon="6.79875">
        <ele>430</ele>
        <time>2014-03-08T13:38:40.645Z</time>
      </trkpt>
      <trkpt lat="47.44393" lon="6.79868">
        <ele>430</ele>
        <time>2014-03-08T13:38:45.595Z</time>
      </trkpt>
      <trkpt lat="47.44387" lon="6.79856">
        <ele>431</ele>
        <time>2014-03-08T13:38:50.654Z</time>
      </trkpt>
      <trkpt lat="47.44389" lon="6.79847">
        <ele>433</ele>
        <time>2014-03-08T13:38:55.562Z</time>
      </trkpt>
      <trkpt lat="47.44392" lon="6.79831">
        <ele>436</ele>
        <time>2014-03-08T13:39:05.587Z</time>
      </trkpt>
      <trkpt lat="47.44395" lon="6.7982">
        <ele>438</ele>
        <time>2014-03-08T13:39:10.635Z</time>
      </trkpt>
      <trkpt lat="47.44397" lon="6.79809">
        <ele>439</ele>
        <time>2014-03-08T13:39:15.587Z</time>
      </trkpt>
      <trkpt lat="47.44398" lon="6.79797">
        <ele>440</ele>
        <time>2014-03-08T13:39:20.652Z</time>
      </trkpt>
      <trkpt lat="47.44398" lon="6.79785">
        <ele>440</ele>
        <time>2014-03-08T13:39:25.595Z</time>
      </trkpt>
      <trkpt lat="47.44393" lon="6.79777">
        <ele>442</ele>
        <time>2014-03-08T13:39:30.647Z</time>
      </trkpt>
      <trkpt lat="47.44389" lon="6.79778">
        <ele>444</ele>
        <time>2014-03-08T13:39:35.595Z</time>
      </trkpt>
      <trkpt lat="47.44384" lon="6.79779">
        <ele>446</ele>
        <time>2014-03-08T13:39:40.655Z</time>
      </trkpt>
      <trkpt lat="47.44378" lon="6.79783">
        <ele>447</ele>
        <time>2014-03-08T13:39:45.651Z</time>
      </trkpt>
      <trkpt lat="47.44376" lon="6.79784">
        <ele>447</ele>
        <time>2014-03-08T13:39:50.658Z</time>
      </trkpt>
      <trkpt lat="47.4437" lon="6.79789">
        <ele>449</ele>
        <time>2014-03-08T13:39:55.601Z</time>
      </trkpt>
      <trkpt lat="47.44365" lon="6.79793">
        <ele>450</ele>
        <time>2014-03-08T13:40:00.656Z</time>
      </trkpt>
      <trkpt lat="47.44361" lon="6.79798">
        <ele>451</ele>
        <time>2014-03-08T13:40:05.651Z</time>
      </trkpt>
      <trkpt lat="47.44354" lon="6.79803">
        <ele>451</ele>
        <time>2014-03-08T13:40:10.594Z</time>
      </trkpt>
      <trkpt lat="47.44347" lon="6.79809">
        <ele>452</ele>
        <time>2014-03-08T13:40:15.628Z</time>
      </trkpt>
      <trkpt lat="47.44341" lon="6.79816">
        <ele>453</ele>
        <time>2014-03-08T13:40:20.593Z</time>
      </trkpt>
      <trkpt lat="47.44335" lon="6.79823">
        <ele>454</ele>
        <time>2014-03-08T13:40:25.593Z</time>
      </trkpt>
      <trkpt lat="47.4433" lon="6.7983">
        <ele>454</ele>
        <time>2014-03-08T13:40:30.639Z</time>
      </trkpt>
      <trkpt lat="47.44325" lon="6.79836">
        <ele>455</ele>
        <time>2014-03-08T13:40:35.581Z</time>
      </trkpt>
      <trkpt lat="47.4432" lon="6.79843">
        <ele>456</ele>
        <time>2014-03-08T13:40:40.651Z</time>
      </trkpt>
      <trkpt lat="47.44316" lon="6.79851">
        <ele>456</ele>
        <time>2014-03-08T13:40:45.652Z</time>
      </trkpt>
      <trkpt lat="47.44311" lon="6.79857">
        <ele>457</ele>
        <time>2014-03-08T13:40:50.607Z</time>
      </trkpt>
      <trkpt lat="47.44306" lon="6.79863">
        <ele>459</ele>
        <time>2014-03-08T13:40:55.624Z</time>
      </trkpt>
      <trkpt lat="47.44301" lon="6.79868">
        <ele>460</ele>
        <time>2014-03-08T13:41:00.593Z</time>
      </trkpt>
      <trkpt lat="47.44295" lon="6.79871">
        <ele>462</ele>
        <time>2014-03-08T13:41:05.630Z</time>
      </trkpt>
      <trkpt lat="47.4429" lon="6.79873">
        <ele>463</ele>
        <time>2014-03-08T13:41:10.598Z</time>
      </trkpt>
      <trkpt lat="47.44284" lon="6.79877">
        <ele>464</ele>
        <time>2014-03-08T13:41:15.654Z</time>
      </trkpt>
      <trkpt lat="47.4428" lon="6.79879">
        <ele>465</ele>
        <time>2014-03-08T13:41:20.592Z</time>
      </trkpt>
      <trkpt lat="47.44275" lon="6.79882">
        <ele>467</ele>
        <time>2014-03-08T13:41:25.652Z</time>
      </trkpt>
      <trkpt lat="47.4427" lon="6.79885">
        <ele>469</ele>
        <time>2014-03-08T13:41:30.586Z</time>
      </trkpt>
      <trkpt lat="47.44263" lon="6.79888">
        <ele>471</ele>
        <time>2014-03-08T13:41:35.654Z</time>
      </trkpt>
      <trkpt lat="47.44258" lon="6.7989">
        <ele>474</ele>
        <time>2014-03-08T13:41:40.594Z</time>
      </trkpt>
      <trkpt lat="47.44252" lon="6.79895">
        <ele>475</ele>
        <time>2014-03-08T13:41:45.622Z</time>
      </trkpt>
      <trkpt lat="47.44246" lon="6.79899">
        <ele>477</ele>
        <time>2014-03-08T13:41:50.597Z</time>
      </trkpt>
      <trkpt lat="47.44241" lon="6.79902">
        <ele>478</ele>
        <time>2014-03-08T13:41:55.648Z</time>
      </trkpt>
      <trkpt lat="47.44216" lon="6.79917">
        <ele>483</ele>
        <time>2014-03-08T13:42:20.623Z</time>
      </trkpt>
      <trkpt lat="47.4421" lon="6.79921">
        <ele>485</ele>
        <time>2014-03-08T13:42:25.589Z</time>
      </trkpt>
      <trkpt lat="47.44205" lon="6.79923">
        <ele>485</ele>
        <time>2014-03-08T13:42:30.651Z</time>
      </trkpt>
      <trkpt lat="47.442" lon="6.79929">
        <ele>486</ele>
        <time>2014-03-08T13:42:35.582Z</time>
      </trkpt>
      <trkpt lat="47.44195" lon="6.79931">
        <ele>486</ele>
        <time>2014-03-08T13:42:40.627Z</time>
      </trkpt>
      <trkpt lat="47.44192" lon="6.79932">
        <ele>487</ele>
        <time>2014-03-08T13:42:45.587Z</time>
      </trkpt>
      <trkpt lat="47.44191" lon="6.79929">
        <ele>486</ele>
        <time>2014-03-08T13:42:50.650Z</time>
      </trkpt>
      <trkpt lat="47.44192" lon="6.79925">
        <ele>486</ele>
        <time>2014-03-08T13:42:55.596Z</time>
      </trkpt>
      <trkpt lat="47.44192" lon="6.79913">
        <ele>488</ele>
        <time>2014-03-08T13:43:10.654Z</time>
      </trkpt>
      <trkpt lat="47.44191" lon="6.79914">
        <ele>488</ele>
        <time>2014-03-08T13:43:15.586Z</time>
      </trkpt>
      <trkpt lat="47.44189" lon="6.79922">
        <ele>488</ele>
        <time>2014-03-08T13:43:20.652Z</time>
      </trkpt>
      <trkpt lat="47.44189" lon="6.79927">
        <ele>489</ele>
        <time>2014-03-08T13:43:25.630Z</time>
      </trkpt>
      <trkpt lat="47.44188" lon="6.79934">
        <ele>489</ele>
        <time>2014-03-08T13:43:30.588Z</time>
      </trkpt>
      <trkpt lat="47.44188" lon="6.79939">
        <ele>490</ele>
        <time>2014-03-08T13:43:35.652Z</time>
      </trkpt>
      <trkpt lat="47.44189" lon="6.79938">
        <ele>490</ele>
        <time>2014-03-08T13:43:40.582Z</time>
      </trkpt>
      <trkpt lat="47.44189" lon="6.79938">
        <ele>490</ele>
        <time>2014-03-08T13:43:45.651Z</time>
      </trkpt>
      <trkpt lat="47.44189" lon="6.79938">
        <ele>490</ele>
        <time>2014-03-08T13:43:50.592Z</time>
      </trkpt>
      <trkpt lat="47.44189" lon="6.79938">
        <ele>490</ele>
        <time>2014-03-08T13:43:55.617Z</time>
      </trkpt>
      <trkpt lat="47.4419" lon="6.79934">
        <ele>491</ele>
        <time>2014-03-08T13:44:15.592Z</time>
      </trkpt>
      <trkpt lat="47.4419" lon="6.79934">
        <ele>491</ele>
        <time>2014-03-08T13:44:20.596Z</time>
      </trkpt>
      <trkpt lat="47.44192" lon="6.79933">
        <ele>491</ele>
        <time>2014-03-08T13:44:25.577Z</time>
      </trkpt>
      <trkpt lat="47.44194" lon="6.79931">
        <ele>490</ele>
        <time>2014-03-08T13:44:30.647Z</time>
      </trkpt>
      <trkpt lat="47.44197" lon="6.7993">
        <ele>490</ele>
        <time>2014-03-08T13:44:35.581Z</time>
      </trkpt>
      <trkpt lat="47.44198" lon="6.79927">
        <ele>490</ele>
        <time>2014-03-08T13:44:40.654Z</time>
      </trkpt>
      <trkpt lat="47.44196" lon="6.79924">
        <ele>490</ele>
        <time>2014-03-08T13:44:45.582Z</time>
      </trkpt>
      <trkpt lat="47.44196" lon="6.79924">
        <ele>491</ele>
        <time>2014-03-08T13:44:50.654Z</time>
      </trkpt>
      <trkpt lat="47.44195" lon="6.79924">
        <ele>491</ele>
        <time>2014-03-08T13:44:55.581Z</time>
      </trkpt>
      <trkpt lat="47.44193" lon="6.79922">
        <ele>492</ele>
        <time>2014-03-08T13:45:00.655Z</time>
      </trkpt>
      <trkpt lat="47.44193" lon="6.79923">
        <ele>492</ele>
        <time>2014-03-08T13:45:05.579Z</time>
      </trkpt>
      <trkpt lat="47.44193" lon="6.79924">
        <ele>493</ele>
        <time>2014-03-08T13:45:10.653Z</time>
      </trkpt>
      <trkpt lat="47.44193" lon="6.79924">
        <ele>493</ele>
        <time>2014-03-08T13:45:15.600Z</time>
      </trkpt>
      <trkpt lat="47.44192" lon="6.79926">
        <ele>493</ele>
        <time>2014-03-08T13:45:20.655Z</time>
      </trkpt>
      <trkpt lat="47.44192" lon="6.79926">
        <ele>493</ele>
        <time>2014-03-08T13:45:25.580Z</time>
      </trkpt>
      <trkpt lat="47.44192" lon="6.79926">
        <ele>493</ele>
        <time>2014-03-08T13:45:30.573Z</time>
      </trkpt>
      <trkpt lat="47.44191" lon="6.79926">
        <ele>492</ele>
        <time>2014-03-08T13:45:35.614Z</time>
      </trkpt>
      <trkpt lat="47.44191" lon="6.79926">
        <ele>492</ele>
        <time>2014-03-08T13:45:40.572Z</time>
      </trkpt>
      <trkpt lat="47.4419" lon="6.79927">
        <ele>491</ele>
        <time>2014-03-08T13:45:45.651Z</time>
      </trkpt>
      <trkpt lat="47.44189" lon="6.79928">
        <ele>490</ele>
        <time>2014-03-08T13:45:50.574Z</time>
      </trkpt>
      <trkpt lat="47.44189" lon="6.79928">
        <ele>490</ele>
        <time>2014-03-08T13:45:55.623Z</time>
      </trkpt>
      <trkpt lat="47.44189" lon="6.79928">
        <ele>490</ele>
        <time>2014-03-08T13:46:00.582Z</time>
      </trkpt>
      <trkpt lat="47.44189" lon="6.79928">
        <ele>490</ele>
        <time>2014-03-08T13:46:05.647Z</time>
      </trkpt>
      <trkpt lat="47.44188" lon="6.79929">
        <ele>490</ele>
        <time>2014-03-08T13:46:10.574Z</time>
      </trkpt>
      <trkpt lat="47.44188" lon="6.79929">
        <ele>490</ele>
        <time>2014-03-08T13:46:15.608Z</time>
      </trkpt>
      <trkpt lat="47.44188" lon="6.79929">
        <ele>490</ele>
        <time>2014-03-08T13:46:20.579Z</time>
      </trkpt>
      <trkpt lat="47.44188" lon="6.79929">
        <ele>490</ele>
        <time>2014-03-08T13:46:25.646Z</time>
      </trkpt>
      <trkpt lat="47.44187" lon="6.79929">
        <ele>490</ele>
        <time>2014-03-08T13:46:30.550Z</time>
      </trkpt>
      <trkpt lat="47.44186" lon="6.7993">
        <ele>490</ele>
        <time>2014-03-08T13:46:35.631Z</time>
      </trkpt>
      <trkpt lat="47.44186" lon="6.7993">
        <ele>490</ele>
        <time>2014-03-08T13:46:40.577Z</time>
      </trkpt>
      <trkpt lat="47.44186" lon="6.7993">
        <ele>489</ele>
        <time>2014-03-08T13:46:45.645Z</time>
      </trkpt>
      <trkpt lat="47.44186" lon="6.7993">
        <ele>489</ele>
        <time>2014-03-08T13:46:50.587Z</time>
      </trkpt>
      <trkpt lat="47.44186" lon="6.7993">
        <ele>489</ele>
        <time>2014-03-08T13:46:55.648Z</time>
      </trkpt>
      <trkpt lat="47.44185" lon="6.79932">
        <ele>489</ele>
        <time>2014-03-08T13:47:05.650Z</time>
      </trkpt>
      <trkpt lat="47.44184" lon="6.79931">
        <ele>489</ele>
        <time>2014-03-08T13:47:10.581Z</time>
      </trkpt>
      <trkpt lat="47.44184" lon="6.79931">
        <ele>489</ele>
        <time>2014-03-08T13:47:15.635Z</time>
      </trkpt>
      <trkpt lat="47.44184" lon="6.79931">
        <ele>489</ele>
        <time>2014-03-08T13:47:20.576Z</time>
      </trkpt>
      <trkpt lat="47.44184" lon="6.79931">
        <ele>489</ele>
        <time>2014-03-08T13:47:25.650Z</time>
      </trkpt>
      <trkpt lat="47.44184" lon="6.79931">
        <ele>489</ele>
        <time>2014-03-08T13:47:30.620Z</time>
      </trkpt>
      <trkpt lat="47.44184" lon="6.79931">
        <ele>489</ele>
        <time>2014-03-08T13:47:35.584Z</time>
      </trkpt>
      <trkpt lat="47.44184" lon="6.79932">
        <ele>489</ele>
        <time>2014-03-08T13:47:40.649Z</time>
      </trkpt>
      <trkpt lat="47.44184" lon="6.79931">
        <ele>490</ele>
        <time>2014-03-08T13:47:45.576Z</time>
      </trkpt>
      <trkpt lat="47.44186" lon="6.79931">
        <ele>489</ele>
        <time>2014-03-08T13:47:50.620Z</time>
      </trkpt>
      <trkpt lat="47.44184" lon="6.79928">
        <ele>490</ele>
        <time>2014-03-08T13:47:55.585Z</time>
      </trkpt>
      <trkpt lat="47.44185" lon="6.79928">
        <ele>491</ele>
        <time>2014-03-08T13:48:00.638Z</time>
      </trkpt>
      <trkpt lat="47.44185" lon="6.79928">
        <ele>492</ele>
        <time>2014-03-08T13:48:05.579Z</time>
      </trkpt>
      <trkpt lat="47.44186" lon="6.79929">
        <ele>492</ele>
        <time>2014-03-08T13:48:10.629Z</time>
      </trkpt>
      <trkpt lat="47.44186" lon="6.7993">
        <ele>492</ele>
        <time>2014-03-08T13:48:15.573Z</time>
      </trkpt>
      <trkpt lat="47.44186" lon="6.7993">
        <ele>492</ele>
        <time>2014-03-08T13:48:20.649Z</time>
      </trkpt>
      <trkpt lat="47.44187" lon="6.7993">
        <ele>492</ele>
        <time>2014-03-08T13:48:25.580Z</time>
      </trkpt>
      <trkpt lat="47.44187" lon="6.7993">
        <ele>492</ele>
        <time>2014-03-08T13:48:30.653Z</time>
      </trkpt>
      <trkpt lat="47.44186" lon="6.79933">
        <ele>492</ele>
        <time>2014-03-08T13:48:35.575Z</time>
      </trkpt>
      <trkpt lat="47.44185" lon="6.79937">
        <ele>491</ele>
        <time>2014-03-08T13:48:40.616Z</time>
      </trkpt>
      <trkpt lat="47.44186" lon="6.79941">
        <ele>490</ele>
        <time>2014-03-08T13:48:45.573Z</time>
      </trkpt>
      <trkpt lat="47.44186" lon="6.79941">
        <ele>490</ele>
        <time>2014-03-08T13:48:50.652Z</time>
      </trkpt>
      <trkpt lat="47.44188" lon="6.7994">
        <ele>489</ele>
        <time>2014-03-08T13:48:55.582Z</time>
      </trkpt>
      <trkpt lat="47.44189" lon="6.79935">
        <ele>490</ele>
        <time>2014-03-08T13:49:00.652Z</time>
      </trkpt>
      <trkpt lat="47.44189" lon="6.79926">
        <ele>490</ele>
        <time>2014-03-08T13:49:05.577Z</time>
      </trkpt>
      <trkpt lat="47.4419" lon="6.79916">
        <ele>491</ele>
        <time>2014-03-08T13:49:10.650Z</time>
      </trkpt>
      <trkpt lat="47.44192" lon="6.79903">
        <ele>491</ele>
        <time>2014-03-08T13:49:15.555Z</time>
      </trkpt>
      <trkpt lat="47.44195" lon="6.79877">
        <ele>490</ele>
        <time>2014-03-08T13:49:25.589Z</time>
      </trkpt>
      <trkpt lat="47.44195" lon="6.79863">
        <ele>491</ele>
        <time>2014-03-08T13:49:30.651Z</time>
      </trkpt>
      <trkpt lat="47.44195" lon="6.7985">
        <ele>491</ele>
        <time>2014-03-08T13:49:35.636Z</time>
      </trkpt>
      <trkpt lat="47.44193" lon="6.79836">
        <ele>492</ele>
        <time>2014-03-08T13:49:40.573Z</time>
      </trkpt>
      <trkpt lat="47.44192" lon="6.79821">
        <ele>493</ele>
        <time>2014-03-08T13:49:45.633Z</time>
      </trkpt>
      <trkpt lat="47.44192" lon="6.79809">
        <ele>494</ele>
        <time>2014-03-08T13:49:50.579Z</time>
      </trkpt>
      <trkpt lat="47.44192" lon="6.79798">
        <ele>494</ele>
        <time>2014-03-08T13:49:55.649Z</time>
      </trkpt>
      <trkpt lat="47.44192" lon="6.79785">
        <ele>495</ele>
        <time>2014-03-08T13:50:00.587Z</time>
      </trkpt>
      <trkpt lat="47.44192" lon="6.79771">
        <ele>495</ele>
        <time>2014-03-08T13:50:05.650Z</time>
      </trkpt>
      <trkpt lat="47.44192" lon="6.79757">
        <ele>496</ele>
        <time>2014-03-08T13:50:10.583Z</time>
      </trkpt>
      <trkpt lat="47.44193" lon="6.79738">
        <ele>496</ele>
        <time>2014-03-08T13:50:15.651Z</time>
      </trkpt>
      <trkpt lat="47.44195" lon="6.79721">
        <ele>496</ele>
        <time>2014-03-08T13:50:20.578Z</time>
      </trkpt>
      <trkpt lat="47.44195" lon="6.79705">
        <ele>495</ele>
        <time>2014-03-08T13:50:25.649Z</time>
      </trkpt>
      <trkpt lat="47.44196" lon="6.79689">
        <ele>496</ele>
        <time>2014-03-08T13:50:30.591Z</time>
      </trkpt>
      <trkpt lat="47.44194" lon="6.79674">
        <ele>495</ele>
        <time>2014-03-08T13:50:35.589Z</time>
      </trkpt>
      <trkpt lat="47.4419" lon="6.79664">
        <ele>496</ele>
        <time>2014-03-08T13:50:40.590Z</time>
      </trkpt>
      <trkpt lat="47.44182" lon="6.79659">
        <ele>496</ele>
        <time>2014-03-08T13:50:45.649Z</time>
      </trkpt>
      <trkpt lat="47.44174" lon="6.79656">
        <ele>497</ele>
        <time>2014-03-08T13:50:50.586Z</time>
      </trkpt>
      <trkpt lat="47.44166" lon="6.7965">
        <ele>498</ele>
        <time>2014-03-08T13:50:55.628Z</time>
      </trkpt>
      <trkpt lat="47.44161" lon="6.79643">
        <ele>498</ele>
        <time>2014-03-08T13:51:00.596Z</time>
      </trkpt>
      <trkpt lat="47.44154" lon="6.79636">
        <ele>500</ele>
        <time>2014-03-08T13:51:05.651Z</time>
      </trkpt>
      <trkpt lat="47.44145" lon="6.79629">
        <ele>500</ele>
        <time>2014-03-08T13:51:10.590Z</time>
      </trkpt>
      <trkpt lat="47.44136" lon="6.79624">
        <ele>500</ele>
        <time>2014-03-08T13:51:15.585Z</time>
      </trkpt>
      <trkpt lat="47.44127" lon="6.79618">
        <ele>501</ele>
        <time>2014-03-08T13:51:20.633Z</time>
      </trkpt>
      <trkpt lat="47.44118" lon="6.79615">
        <ele>502</ele>
        <time>2014-03-08T13:51:25.583Z</time>
      </trkpt>
      <trkpt lat="47.4411" lon="6.7961">
        <ele>502</ele>
        <time>2014-03-08T13:51:30.649Z</time>
      </trkpt>
      <trkpt lat="47.441" lon="6.79607">
        <ele>504</ele>
        <time>2014-03-08T13:51:35.586Z</time>
      </trkpt>
      <trkpt lat="47.44092" lon="6.79603">
        <ele>505</ele>
        <time>2014-03-08T13:51:40.650Z</time>
      </trkpt>
      <trkpt lat="47.44083" lon="6.796">
        <ele>504</ele>
        <time>2014-03-08T13:51:45.545Z</time>
      </trkpt>
      <trkpt lat="47.44073" lon="6.79598">
        <ele>505</ele>
        <time>2014-03-08T13:51:50.653Z</time>
      </trkpt>
      <trkpt lat="47.44066" lon="6.79593">
        <ele>506</ele>
        <time>2014-03-08T13:51:55.581Z</time>
      </trkpt>
      <trkpt lat="47.44061" lon="6.79588">
        <ele>507</ele>
        <time>2014-03-08T13:52:00.635Z</time>
      </trkpt>
      <trkpt lat="47.44054" lon="6.79584">
        <ele>508</ele>
        <time>2014-03-08T13:52:05.583Z</time>
      </trkpt>
      <trkpt lat="47.44046" lon="6.7958">
        <ele>509</ele>
        <time>2014-03-08T13:52:10.652Z</time>
      </trkpt>
      <trkpt lat="47.44037" lon="6.79579">
        <ele>510</ele>
        <time>2014-03-08T13:52:15.596Z</time>
      </trkpt>
      <trkpt lat="47.44029" lon="6.79578">
        <ele>510</ele>
        <time>2014-03-08T13:52:20.637Z</time>
      </trkpt>
      <trkpt lat="47.4402" lon="6.79575">
        <ele>511</ele>
        <time>2014-03-08T13:52:25.594Z</time>
      </trkpt>
      <trkpt lat="47.44012" lon="6.79574">
        <ele>511</ele>
        <time>2014-03-08T13:52:30.646Z</time>
      </trkpt>
      <trkpt lat="47.44005" lon="6.79572">
        <ele>511</ele>
        <time>2014-03-08T13:52:35.594Z</time>
      </trkpt>
      <trkpt lat="47.43995" lon="6.79572">
        <ele>512</ele>
        <time>2014-03-08T13:52:40.581Z</time>
      </trkpt>
      <trkpt lat="47.4399" lon="6.79573">
        <ele>512</ele>
        <time>2014-03-08T13:52:45.652Z</time>
      </trkpt>
      <trkpt lat="47.43982" lon="6.79575">
        <ele>514</ele>
        <time>2014-03-08T13:52:50.657Z</time>
      </trkpt>
      <trkpt lat="47.43976" lon="6.79579">
        <ele>515</ele>
        <time>2014-03-08T13:52:55.578Z</time>
      </trkpt>
      <trkpt lat="47.43954" lon="6.79591">
        <ele>517</ele>
        <time>2014-03-08T13:53:11.262Z</time>
      </trkpt>
      <trkpt lat="47.43947" lon="6.79593">
        <ele>515</ele>
        <time>2014-03-08T13:53:15.578Z</time>
      </trkpt>
      <trkpt lat="47.43937" lon="6.79592">
        <ele>516</ele>
        <time>2014-03-08T13:53:20.617Z</time>
      </trkpt>
      <trkpt lat="47.43929" lon="6.79589">
        <ele>515</ele>
        <time>2014-03-08T13:53:25.575Z</time>
      </trkpt>
      <trkpt lat="47.4392" lon="6.79585">
        <ele>515</ele>
        <time>2014-03-08T13:53:30.648Z</time>
      </trkpt>
      <trkpt lat="47.43915" lon="6.79577">
        <ele>516</ele>
        <time>2014-03-08T13:53:35.582Z</time>
      </trkpt>
      <trkpt lat="47.43906" lon="6.7957">
        <ele>516</ele>
        <time>2014-03-08T13:53:40.650Z</time>
      </trkpt>
      <trkpt lat="47.43898" lon="6.79563">
        <ele>516</ele>
        <time>2014-03-08T13:53:45.574Z</time>
      </trkpt>
      <trkpt lat="47.43888" lon="6.79556">
        <ele>515</ele>
        <time>2014-03-08T13:53:50.650Z</time>
      </trkpt>
      <trkpt lat="47.4388" lon="6.79551">
        <ele>516</ele>
        <time>2014-03-08T13:53:55.581Z</time>
      </trkpt>
      <trkpt lat="47.43872" lon="6.7955">
        <ele>516</ele>
        <time>2014-03-08T13:54:00.611Z</time>
      </trkpt>
      <trkpt lat="47.43862" lon="6.79553">
        <ele>516</ele>
        <time>2014-03-08T13:54:05.573Z</time>
      </trkpt>
      <trkpt lat="47.43853" lon="6.79555">
        <ele>517</ele>
        <time>2014-03-08T13:54:10.610Z</time>
      </trkpt>
      <trkpt lat="47.43844" lon="6.79557">
        <ele>518</ele>
        <time>2014-03-08T13:54:15.576Z</time>
      </trkpt>
      <trkpt lat="47.43834" lon="6.79559">
        <ele>519</ele>
        <time>2014-03-08T13:54:20.622Z</time>
      </trkpt>
      <trkpt lat="47.43825" lon="6.79561">
        <ele>519</ele>
        <time>2014-03-08T13:54:25.578Z</time>
      </trkpt>
      <trkpt lat="47.43817" lon="6.79562">
        <ele>520</ele>
        <time>2014-03-08T13:54:30.623Z</time>
      </trkpt>
      <trkpt lat="47.43808" lon="6.79561">
        <ele>521</ele>
        <time>2014-03-08T13:54:35.580Z</time>
      </trkpt>
      <trkpt lat="47.43803" lon="6.79549">
        <ele>521</ele>
        <time>2014-03-08T13:54:40.647Z</time>
      </trkpt>
      <trkpt lat="47.43801" lon="6.79535">
        <ele>521</ele>
        <time>2014-03-08T13:54:45.585Z</time>
      </trkpt>
      <trkpt lat="47.43799" lon="6.7952">
        <ele>522</ele>
        <time>2014-03-08T13:54:50.838Z</time>
      </trkpt>
      <trkpt lat="47.438" lon="6.79502">
        <ele>523</ele>
        <time>2014-03-08T13:54:55.645Z</time>
      </trkpt>
      <trkpt lat="47.43798" lon="6.79484">
        <ele>522</ele>
        <time>2014-03-08T13:55:00.593Z</time>
      </trkpt>
      <trkpt lat="47.43794" lon="6.79468">
        <ele>522</ele>
        <time>2014-03-08T13:55:05.649Z</time>
      </trkpt>
      <trkpt lat="47.43792" lon="6.79453">
        <ele>523</ele>
        <time>2014-03-08T13:55:10.579Z</time>
      </trkpt>
      <trkpt lat="47.4379" lon="6.79437">
        <ele>524</ele>
        <time>2014-03-08T13:55:15.647Z</time>
      </trkpt>
      <trkpt lat="47.43787" lon="6.79423">
        <ele>525</ele>
        <time>2014-03-08T13:55:20.581Z</time>
      </trkpt>
      <trkpt lat="47.43777" lon="6.79417">
        <ele>526</ele>
        <time>2014-03-08T13:55:25.649Z</time>
      </trkpt>
      <trkpt lat="47.43767" lon="6.79415">
        <ele>526</ele>
        <time>2014-03-08T13:55:30.583Z</time>
      </trkpt>
      <trkpt lat="47.43755" lon="6.79416">
        <ele>527</ele>
        <time>2014-03-08T13:55:35.646Z</time>
      </trkpt>
      <trkpt lat="47.43744" lon="6.79419">
        <ele>527</ele>
        <time>2014-03-08T13:55:40.576Z</time>
      </trkpt>
      <trkpt lat="47.43733" lon="6.79424">
        <ele>527</ele>
        <time>2014-03-08T13:55:45.656Z</time>
      </trkpt>
      <trkpt lat="47.43722" lon="6.79423">
        <ele>528</ele>
        <time>2014-03-08T13:55:50.576Z</time>
      </trkpt>
      <trkpt lat="47.43712" lon="6.79423">
        <ele>528</ele>
        <time>2014-03-08T13:55:55.623Z</time>
      </trkpt>
      <trkpt lat="47.437" lon="6.79428">
        <ele>528</ele>
        <time>2014-03-08T13:56:00.577Z</time>
      </trkpt>
      <trkpt lat="47.43687" lon="6.79437">
        <ele>528</ele>
        <time>2014-03-08T13:56:05.628Z</time>
      </trkpt>
      <trkpt lat="47.43673" lon="6.79441">
        <ele>528</ele>
        <time>2014-03-08T13:56:10.579Z</time>
      </trkpt>
      <trkpt lat="47.4366" lon="6.79444">
        <ele>528</ele>
        <time>2014-03-08T13:56:15.651Z</time>
      </trkpt>
      <trkpt lat="47.43647" lon="6.79446">
        <ele>530</ele>
        <time>2014-03-08T13:56:20.575Z</time>
      </trkpt>
      <trkpt lat="47.43636" lon="6.79444">
        <ele>530</ele>
        <time>2014-03-08T13:56:25.653Z</time>
      </trkpt>
      <trkpt lat="47.43623" lon="6.79443">
        <ele>529</ele>
        <time>2014-03-08T13:56:30.585Z</time>
      </trkpt>
      <trkpt lat="47.4361" lon="6.79439">
        <ele>529</ele>
        <time>2014-03-08T13:56:35.615Z</time>
      </trkpt>
      <trkpt lat="47.43594" lon="6.79442">
        <ele>528</ele>
        <time>2014-03-08T13:56:40.573Z</time>
      </trkpt>
      <trkpt lat="47.43579" lon="6.79442">
        <ele>528</ele>
        <time>2014-03-08T13:56:45.648Z</time>
      </trkpt>
      <trkpt lat="47.43564" lon="6.79448">
        <ele>529</ele>
        <time>2014-03-08T13:56:50.577Z</time>
      </trkpt>
      <trkpt lat="47.4355" lon="6.79454">
        <ele>530</ele>
        <time>2014-03-08T13:56:55.650Z</time>
      </trkpt>
      <trkpt lat="47.43537" lon="6.79461">
        <ele>531</ele>
        <time>2014-03-08T13:57:00.580Z</time>
      </trkpt>
      <trkpt lat="47.43521" lon="6.79465">
        <ele>531</ele>
        <time>2014-03-08T13:57:05.652Z</time>
      </trkpt>
      <trkpt lat="47.43506" lon="6.7947">
        <ele>531</ele>
        <time>2014-03-08T13:57:10.586Z</time>
      </trkpt>
      <trkpt lat="47.43489" lon="6.79481">
        <ele>532</ele>
        <time>2014-03-08T13:57:15.652Z</time>
      </trkpt>
      <trkpt lat="47.43473" lon="6.79493">
        <ele>530</ele>
        <time>2014-03-08T13:57:20.583Z</time>
      </trkpt>
      <trkpt lat="47.43459" lon="6.7951">
        <ele>531</ele>
        <time>2014-03-08T13:57:25.652Z</time>
      </trkpt>
      <trkpt lat="47.43448" lon="6.79522">
        <ele>531</ele>
        <time>2014-03-08T13:57:30.579Z</time>
      </trkpt>
      <trkpt lat="47.43435" lon="6.7953">
        <ele>531</ele>
        <time>2014-03-08T13:57:35.649Z</time>
      </trkpt>
      <trkpt lat="47.43419" lon="6.79528">
        <ele>531</ele>
        <time>2014-03-08T13:57:40.576Z</time>
      </trkpt>
      <trkpt lat="47.43405" lon="6.79524">
        <ele>531</ele>
        <time>2014-03-08T13:57:45.649Z</time>
      </trkpt>
      <trkpt lat="47.43392" lon="6.79527">
        <ele>531</ele>
        <time>2014-03-08T13:57:50.592Z</time>
      </trkpt>
      <trkpt lat="47.43381" lon="6.79532">
        <ele>532</ele>
        <time>2014-03-08T13:57:55.617Z</time>
      </trkpt>
      <trkpt lat="47.43371" lon="6.79537">
        <ele>532</ele>
        <time>2014-03-08T13:58:00.586Z</time>
      </trkpt>
      <trkpt lat="47.43365" lon="6.79537">
        <ele>533</ele>
        <time>2014-03-08T13:58:05.650Z</time>
      </trkpt>
      <trkpt lat="47.43355" lon="6.79542">
        <ele>533</ele>
        <time>2014-03-08T13:58:10.585Z</time>
      </trkpt>
      <trkpt lat="47.43346" lon="6.79543">
        <ele>534</ele>
        <time>2014-03-08T13:58:15.646Z</time>
      </trkpt>
      <trkpt lat="47.43336" lon="6.79546">
        <ele>535</ele>
        <time>2014-03-08T13:58:20.576Z</time>
      </trkpt>
      <trkpt lat="47.43329" lon="6.79551">
        <ele>535</ele>
        <time>2014-03-08T13:58:25.649Z</time>
      </trkpt>
      <trkpt lat="47.43319" lon="6.79552">
        <ele>535</ele>
        <time>2014-03-08T13:58:30.625Z</time>
      </trkpt>
      <trkpt lat="47.43314" lon="6.79555">
        <ele>536</ele>
        <time>2014-03-08T13:58:35.656Z</time>
      </trkpt>
      <trkpt lat="47.43303" lon="6.79561">
        <ele>537</ele>
        <time>2014-03-08T13:58:40.576Z</time>
      </trkpt>
      <trkpt lat="47.43293" lon="6.79565">
        <ele>537</ele>
        <time>2014-03-08T13:58:45.648Z</time>
      </trkpt>
      <trkpt lat="47.43281" lon="6.79567">
        <ele>537</ele>
        <time>2014-03-08T13:58:50.575Z</time>
      </trkpt>
      <trkpt lat="47.43265" lon="6.79568">
        <ele>537</ele>
        <time>2014-03-08T13:58:55.650Z</time>
      </trkpt>
      <trkpt lat="47.43254" lon="6.79565">
        <ele>536</ele>
        <time>2014-03-08T13:59:00.653Z</time>
      </trkpt>
      <trkpt lat="47.43246" lon="6.79568">
        <ele>536</ele>
        <time>2014-03-08T13:59:05.577Z</time>
      </trkpt>
      <trkpt lat="47.43234" lon="6.7957">
        <ele>536</ele>
        <time>2014-03-08T13:59:10.651Z</time>
      </trkpt>
      <trkpt lat="47.43223" lon="6.79565">
        <ele>536</ele>
        <time>2014-03-08T13:59:15.578Z</time>
      </trkpt>
      <trkpt lat="47.43212" lon="6.79562">
        <ele>536</ele>
        <time>2014-03-08T13:59:20.653Z</time>
      </trkpt>
      <trkpt lat="47.43201" lon="6.79564">
        <ele>537</ele>
        <time>2014-03-08T13:59:25.587Z</time>
      </trkpt>
      <trkpt lat="47.4319" lon="6.79565">
        <ele>538</ele>
        <time>2014-03-08T13:59:30.650Z</time>
      </trkpt>
      <trkpt lat="47.43169" lon="6.79569">
        <ele>538</ele>
        <time>2014-03-08T13:59:40.651Z</time>
      </trkpt>
      <trkpt lat="47.43164" lon="6.79579">
        <ele>538</ele>
        <time>2014-03-08T13:59:45.576Z</time>
      </trkpt>
      <trkpt lat="47.4316" lon="6.79589">
        <ele>539</ele>
        <time>2014-03-08T13:59:50.649Z</time>
      </trkpt>
      <trkpt lat="47.43156" lon="6.79599">
        <ele>540</ele>
        <time>2014-03-08T13:59:55.574Z</time>
      </trkpt>
      <trkpt lat="47.43142" lon="6.79606">
        <ele>541</ele>
        <time>2014-03-08T14:00:05.573Z</time>
      </trkpt>
      <trkpt lat="47.43134" lon="6.79603">
        <ele>542</ele>
        <time>2014-03-08T14:00:10.634Z</time>
      </trkpt>
      <trkpt lat="47.43127" lon="6.79599">
        <ele>543</ele>
        <time>2014-03-08T14:00:15.574Z</time>
      </trkpt>
      <trkpt lat="47.43125" lon="6.79589">
        <ele>543</ele>
        <time>2014-03-08T14:00:20.643Z</time>
      </trkpt>
      <trkpt lat="47.43117" lon="6.79583">
        <ele>544</ele>
        <time>2014-03-08T14:00:25.574Z</time>
      </trkpt>
      <trkpt lat="47.43107" lon="6.79587">
        <ele>545</ele>
        <time>2014-03-08T14:00:30.645Z</time>
      </trkpt>
      <trkpt lat="47.43096" lon="6.79588">
        <ele>544</ele>
        <time>2014-03-08T14:00:35.573Z</time>
      </trkpt>
      <trkpt lat="47.43086" lon="6.79589">
        <ele>546</ele>
        <time>2014-03-08T14:00:40.649Z</time>
      </trkpt>
      <trkpt lat="47.43079" lon="6.79589">
        <ele>546</ele>
        <time>2014-03-08T14:00:45.569Z</time>
      </trkpt>
      <trkpt lat="47.43071" lon="6.7959">
        <ele>546</ele>
        <time>2014-03-08T14:00:50.631Z</time>
      </trkpt>
      <trkpt lat="47.43059" lon="6.79586">
        <ele>547</ele>
        <time>2014-03-08T14:00:55.571Z</time>
      </trkpt>
      <trkpt lat="47.43045" lon="6.79589">
        <ele>547</ele>
        <time>2014-03-08T14:01:00.701Z</time>
      </trkpt>
      <trkpt lat="47.43032" lon="6.79582">
        <ele>547</ele>
        <time>2014-03-08T14:01:05.579Z</time>
      </trkpt>
      <trkpt lat="47.43019" lon="6.79582">
        <ele>547</ele>
        <time>2014-03-08T14:01:10.586Z</time>
      </trkpt>
      <trkpt lat="47.4301" lon="6.79578">
        <ele>546</ele>
        <time>2014-03-08T14:01:15.619Z</time>
      </trkpt>
      <trkpt lat="47.4301" lon="6.79577">
        <ele>546</ele>
        <time>2014-03-08T14:01:20.593Z</time>
      </trkpt>
      <trkpt lat="47.4301" lon="6.79577">
        <ele>546</ele>
        <time>2014-03-08T14:01:25.650Z</time>
      </trkpt>
      <trkpt lat="47.4301" lon="6.79577">
        <ele>546</ele>
        <time>2014-03-08T14:01:30.589Z</time>
      </trkpt>
      <trkpt lat="47.4301" lon="6.79577">
        <ele>546</ele>
        <time>2014-03-08T14:01:35.656Z</time>
      </trkpt>
      <trkpt lat="47.4301" lon="6.79577">
        <ele>546</ele>
        <time>2014-03-08T14:01:40.580Z</time>
      </trkpt>
      <trkpt lat="47.4301" lon="6.79577">
        <ele>546</ele>
        <time>2014-03-08T14:01:45.653Z</time>
      </trkpt>
      <trkpt lat="47.4301" lon="6.79578">
        <ele>546</ele>
        <time>2014-03-08T14:01:50.579Z</time>
      </trkpt>
      <trkpt lat="47.43009" lon="6.79577">
        <ele>546</ele>
        <time>2014-03-08T14:01:55.646Z</time>
      </trkpt>
      <trkpt lat="47.43009" lon="6.79577">
        <ele>545</ele>
        <time>2014-03-08T14:02:05.176Z</time>
      </trkpt>
      <trkpt lat="47.43009" lon="6.79577">
        <ele>545</ele>
        <time>2014-03-08T14:02:05.614Z</time>
      </trkpt>
      <trkpt lat="47.43009" lon="6.79577">
        <ele>545</ele>
        <time>2014-03-08T14:02:10.589Z</time>
      </trkpt>
      <trkpt lat="47.43009" lon="6.79577">
        <ele>545</ele>
        <time>2014-03-08T14:02:15.647Z</time>
      </trkpt>
      <trkpt lat="47.43009" lon="6.79577">
        <ele>545</ele>
        <time>2014-03-08T14:02:20.585Z</time>
      </trkpt>
      <trkpt lat="47.43009" lon="6.79577">
        <ele>545</ele>
        <time>2014-03-08T14:02:25.631Z</time>
      </trkpt>
      <trkpt lat="47.43009" lon="6.79577">
        <ele>545</ele>
        <time>2014-03-08T14:02:30.652Z</time>
      </trkpt>
      <trkpt lat="47.43009" lon="6.79577">
        <ele>545</ele>
        <time>2014-03-08T14:02:35.580Z</time>
      </trkpt>
      <trkpt lat="47.43009" lon="6.79577">
        <ele>545</ele>
        <time>2014-03-08T14:02:40.630Z</time>
      </trkpt>
      <trkpt lat="47.4301" lon="6.79577">
        <ele>546</ele>
        <time>2014-03-08T14:02:45.584Z</time>
      </trkpt>
      <trkpt lat="47.43011" lon="6.79578">
        <ele>546</ele>
        <time>2014-03-08T14:02:50.629Z</time>
      </trkpt>
      <trkpt lat="47.43007" lon="6.7958">
        <ele>546</ele>
        <time>2014-03-08T14:02:55.568Z</time>
      </trkpt>
      <trkpt lat="47.42968" lon="6.7959">
        <ele>546</ele>
        <time>2014-03-08T14:03:05.575Z</time>
      </trkpt>
      <trkpt lat="47.42942" lon="6.79593">
        <ele>546</ele>
        <time>2014-03-08T14:03:10.630Z</time>
      </trkpt>
      <trkpt lat="47.42921" lon="6.79586">
        <ele>547</ele>
        <time>2014-03-08T14:03:15.587Z</time>
      </trkpt>
      <trkpt lat="47.42892" lon="6.79583">
        <ele>547</ele>
        <time>2014-03-08T14:03:20.649Z</time>
      </trkpt>
      <trkpt lat="47.42863" lon="6.79576">
        <ele>548</ele>
        <time>2014-03-08T14:03:25.578Z</time>
      </trkpt>
      <trkpt lat="47.42837" lon="6.79572">
        <ele>548</ele>
        <time>2014-03-08T14:03:30.647Z</time>
      </trkpt>
      <trkpt lat="47.42818" lon="6.79573">
        <ele>548</ele>
        <time>2014-03-08T14:03:35.574Z</time>
      </trkpt>
      <trkpt lat="47.42804" lon="6.79574">
        <ele>549</ele>
        <time>2014-03-08T14:03:40.648Z</time>
      </trkpt>
      <trkpt lat="47.4279" lon="6.79571">
        <ele>548</ele>
        <time>2014-03-08T14:03:45.794Z</time>
      </trkpt>
      <trkpt lat="47.42771" lon="6.79568">
        <ele>547</ele>
        <time>2014-03-08T14:03:50.651Z</time>
      </trkpt>
      <trkpt lat="47.4275" lon="6.79563">
        <ele>547</ele>
        <time>2014-03-08T14:03:55.577Z</time>
      </trkpt>
      <trkpt lat="47.4273" lon="6.79559">
        <ele>547</ele>
        <time>2014-03-08T14:04:00.653Z</time>
      </trkpt>
      <trkpt lat="47.42712" lon="6.79558">
        <ele>547</ele>
        <time>2014-03-08T14:04:05.615Z</time>
      </trkpt>
      <trkpt lat="47.42692" lon="6.79556">
        <ele>546</ele>
        <time>2014-03-08T14:04:10.651Z</time>
      </trkpt>
      <trkpt lat="47.42675" lon="6.79549">
        <ele>545</ele>
        <time>2014-03-08T14:04:15.590Z</time>
      </trkpt>
      <trkpt lat="47.42657" lon="6.79545">
        <ele>544</ele>
        <time>2014-03-08T14:04:20.651Z</time>
      </trkpt>
      <trkpt lat="47.42649" lon="6.79545">
        <ele>543</ele>
        <time>2014-03-08T14:04:25.586Z</time>
      </trkpt>
      <trkpt lat="47.4264" lon="6.79544">
        <ele>543</ele>
        <time>2014-03-08T14:04:30.618Z</time>
      </trkpt>
      <trkpt lat="47.4263" lon="6.79541">
        <ele>542</ele>
        <time>2014-03-08T14:04:35.577Z</time>
      </trkpt>
      <trkpt lat="47.42619" lon="6.7954">
        <ele>543</ele>
        <time>2014-03-08T14:04:40.649Z</time>
      </trkpt>
      <trkpt lat="47.4261" lon="6.79537">
        <ele>543</ele>
        <time>2014-03-08T14:04:45.585Z</time>
      </trkpt>
      <trkpt lat="47.426" lon="6.79539">
        <ele>543</ele>
        <time>2014-03-08T14:04:50.649Z</time>
      </trkpt>
      <trkpt lat="47.42584" lon="6.79538">
        <ele>544</ele>
        <time>2014-03-08T14:04:55.590Z</time>
      </trkpt>
      <trkpt lat="47.42532" lon="6.79543">
        <ele>545</ele>
        <time>2014-03-08T14:05:10.650Z</time>
      </trkpt>
      <trkpt lat="47.42513" lon="6.79541">
        <ele>546</ele>
        <time>2014-03-08T14:05:15.654Z</time>
      </trkpt>
      <trkpt lat="47.42493" lon="6.79537">
        <ele>546</ele>
        <time>2014-03-08T14:05:20.571Z</time>
      </trkpt>
      <trkpt lat="47.42478" lon="6.79528">
        <ele>548</ele>
        <time>2014-03-08T14:05:25.654Z</time>
      </trkpt>
      <trkpt lat="47.42453" lon="6.79522">
        <ele>547</ele>
        <time>2014-03-08T14:05:30.572Z</time>
      </trkpt>
      <trkpt lat="47.42433" lon="6.79517">
        <ele>547</ele>
        <time>2014-03-08T14:05:35.607Z</time>
      </trkpt>
      <trkpt lat="47.42425" lon="6.79511">
        <ele>547</ele>
        <time>2014-03-08T14:05:40.561Z</time>
      </trkpt>
      <trkpt lat="47.42404" lon="6.79506">
        <ele>548</ele>
        <time>2014-03-08T14:05:45.649Z</time>
      </trkpt>
      <trkpt lat="47.42381" lon="6.79502">
        <ele>549</ele>
        <time>2014-03-08T14:05:50.572Z</time>
      </trkpt>
      <trkpt lat="47.42361" lon="6.79501">
        <ele>548</ele>
        <time>2014-03-08T14:05:55.648Z</time>
      </trkpt>
      <trkpt lat="47.42339" lon="6.79493">
        <ele>548</ele>
        <time>2014-03-08T14:06:00.573Z</time>
      </trkpt>
      <trkpt lat="47.42314" lon="6.79485">
        <ele>549</ele>
        <time>2014-03-08T14:06:05.614Z</time>
      </trkpt>
      <trkpt lat="47.42287" lon="6.79479">
        <ele>548</ele>
        <time>2014-03-08T14:06:10.570Z</time>
      </trkpt>
      <trkpt lat="47.42263" lon="6.79475">
        <ele>548</ele>
        <time>2014-03-08T14:06:15.614Z</time>
      </trkpt>
      <trkpt lat="47.42242" lon="6.79472">
        <ele>548</ele>
        <time>2014-03-08T14:06:20.571Z</time>
      </trkpt>
      <trkpt lat="47.42226" lon="6.79468">
        <ele>547</ele>
        <time>2014-03-08T14:06:25.656Z</time>
      </trkpt>
      <trkpt lat="47.42212" lon="6.79467">
        <ele>547</ele>
        <time>2014-03-08T14:06:30.569Z</time>
      </trkpt>
      <trkpt lat="47.422" lon="6.79465">
        <ele>547</ele>
        <time>2014-03-08T14:06:35.650Z</time>
      </trkpt>
      <trkpt lat="47.42187" lon="6.79463">
        <ele>547</ele>
        <time>2014-03-08T14:06:40.573Z</time>
      </trkpt>
      <trkpt lat="47.42173" lon="6.79463">
        <ele>546</ele>
        <time>2014-03-08T14:06:45.613Z</time>
      </trkpt>
      <trkpt lat="47.4216" lon="6.79461">
        <ele>547</ele>
        <time>2014-03-08T14:06:50.570Z</time>
      </trkpt>
      <trkpt lat="47.4215" lon="6.79461">
        <ele>549</ele>
        <time>2014-03-08T14:06:55.650Z</time>
      </trkpt>
      <trkpt lat="47.4214" lon="6.79459">
        <ele>550</ele>
        <time>2014-03-08T14:07:00.572Z</time>
      </trkpt>
      <trkpt lat="47.42128" lon="6.79458">
        <ele>551</ele>
        <time>2014-03-08T14:07:05.617Z</time>
      </trkpt>
      <trkpt lat="47.42115" lon="6.79461">
        <ele>550</ele>
        <time>2014-03-08T14:07:10.574Z</time>
      </trkpt>
      <trkpt lat="47.42103" lon="6.79462">
        <ele>550</ele>
        <time>2014-03-08T14:07:15.756Z</time>
      </trkpt>
      <trkpt lat="47.42094" lon="6.79465">
        <ele>550</ele>
        <time>2014-03-08T14:07:20.578Z</time>
      </trkpt>
      <trkpt lat="47.42076" lon="6.79472">
        <ele>551</ele>
        <time>2014-03-08T14:07:30.587Z</time>
      </trkpt>
      <trkpt lat="47.42067" lon="6.79474">
        <ele>551</ele>
        <time>2014-03-08T14:07:35.614Z</time>
      </trkpt>
      <trkpt lat="47.42058" lon="6.79477">
        <ele>551</ele>
        <time>2014-03-08T14:07:40.580Z</time>
      </trkpt>
      <trkpt lat="47.42049" lon="6.7948">
        <ele>552</ele>
        <time>2014-03-08T14:07:45.654Z</time>
      </trkpt>
      <trkpt lat="47.42037" lon="6.79482">
        <ele>552</ele>
        <time>2014-03-08T14:07:50.586Z</time>
      </trkpt>
      <trkpt lat="47.42026" lon="6.79483">
        <ele>553</ele>
        <time>2014-03-08T14:07:55.651Z</time>
      </trkpt>
      <trkpt lat="47.42016" lon="6.79483">
        <ele>553</ele>
        <time>2014-03-08T14:08:00.578Z</time>
      </trkpt>
      <trkpt lat="47.42005" lon="6.79485">
        <ele>553</ele>
        <time>2014-03-08T14:08:05.650Z</time>
      </trkpt>
      <trkpt lat="47.41992" lon="6.7949">
        <ele>553</ele>
        <time>2014-03-08T14:08:10.584Z</time>
      </trkpt>
      <trkpt lat="47.41981" lon="6.79501">
        <ele>554</ele>
        <time>2014-03-08T14:08:15.644Z</time>
      </trkpt>
      <trkpt lat="47.4197" lon="6.79513">
        <ele>555</ele>
        <time>2014-03-08T14:08:21.028Z</time>
      </trkpt>
      <trkpt lat="47.41961" lon="6.79527">
        <ele>556</ele>
        <time>2014-03-08T14:08:25.646Z</time>
      </trkpt>
      <trkpt lat="47.41953" lon="6.79544">
        <ele>557</ele>
        <time>2014-03-08T14:08:30.583Z</time>
      </trkpt>
      <trkpt lat="47.41946" lon="6.79558">
        <ele>557</ele>
        <time>2014-03-08T14:08:35.653Z</time>
      </trkpt>
      <trkpt lat="47.4194" lon="6.79578">
        <ele>557</ele>
        <time>2014-03-08T14:08:40.587Z</time>
      </trkpt>
      <trkpt lat="47.41933" lon="6.79596">
        <ele>557</ele>
        <time>2014-03-08T14:08:45.652Z</time>
      </trkpt>
      <trkpt lat="47.41925" lon="6.79614">
        <ele>556</ele>
        <time>2014-03-08T14:08:50.576Z</time>
      </trkpt>
      <trkpt lat="47.41918" lon="6.79632">
        <ele>555</ele>
        <time>2014-03-08T14:08:55.619Z</time>
      </trkpt>
      <trkpt lat="47.41916" lon="6.79655">
        <ele>554</ele>
        <time>2014-03-08T14:09:00.581Z</time>
      </trkpt>
      <trkpt lat="47.41912" lon="6.79672">
        <ele>554</ele>
        <time>2014-03-08T14:09:05.649Z</time>
      </trkpt>
      <trkpt lat="47.41911" lon="6.79693">
        <ele>553</ele>
        <time>2014-03-08T14:09:10.581Z</time>
      </trkpt>
      <trkpt lat="47.4191" lon="6.79714">
        <ele>553</ele>
        <time>2014-03-08T14:09:15.610Z</time>
      </trkpt>
      <trkpt lat="47.4191" lon="6.79737">
        <ele>553</ele>
        <time>2014-03-08T14:09:20.542Z</time>
      </trkpt>
      <trkpt lat="47.41905" lon="6.79753">
        <ele>554</ele>
        <time>2014-03-08T14:09:26.043Z</time>
      </trkpt>
      <trkpt lat="47.41902" lon="6.79775">
        <ele>553</ele>
        <time>2014-03-08T14:09:30.579Z</time>
      </trkpt>
      <trkpt lat="47.41902" lon="6.79793">
        <ele>553</ele>
        <time>2014-03-08T14:09:35.636Z</time>
      </trkpt>
      <trkpt lat="47.41901" lon="6.79811">
        <ele>553</ele>
        <time>2014-03-08T14:09:40.580Z</time>
      </trkpt>
      <trkpt lat="47.41898" lon="6.7983">
        <ele>553</ele>
        <time>2014-03-08T14:09:45.689Z</time>
      </trkpt>
      <trkpt lat="47.41898" lon="6.79848">
        <ele>553</ele>
        <time>2014-03-08T14:09:50.566Z</time>
      </trkpt>
      <trkpt lat="47.41896" lon="6.79871">
        <ele>554</ele>
        <time>2014-03-08T14:09:55.687Z</time>
      </trkpt>
      <trkpt lat="47.41897" lon="6.79893">
        <ele>552</ele>
        <time>2014-03-08T14:10:00.736Z</time>
      </trkpt>
      <trkpt lat="47.41894" lon="6.79918">
        <ele>551</ele>
        <time>2014-03-08T14:10:05.671Z</time>
      </trkpt>
      <trkpt lat="47.41888" lon="6.79942">
        <ele>553</ele>
        <time>2014-03-08T14:10:10.744Z</time>
      </trkpt>
      <trkpt lat="47.41883" lon="6.79959">
        <ele>551</ele>
        <time>2014-03-08T14:10:15.677Z</time>
      </trkpt>
      <trkpt lat="47.41879" lon="6.7998">
        <ele>551</ele>
        <time>2014-03-08T14:10:20.745Z</time>
      </trkpt>
      <trkpt lat="47.41873" lon="6.80001">
        <ele>550</ele>
        <time>2014-03-08T14:10:25.924Z</time>
      </trkpt>
      <trkpt lat="47.41859" lon="6.8002">
        <ele>550</ele>
        <time>2014-03-08T14:10:30.671Z</time>
      </trkpt>
      <trkpt lat="47.41843" lon="6.80031">
        <ele>549</ele>
        <time>2014-03-08T14:10:35.745Z</time>
      </trkpt>
      <trkpt lat="47.41842" lon="6.80029">
        <ele>549</ele>
        <time>2014-03-08T14:10:40.678Z</time>
      </trkpt>
      <trkpt lat="47.41842" lon="6.80028">
        <ele>548</ele>
        <time>2014-03-08T14:10:45.747Z</time>
      </trkpt>
      <trkpt lat="47.41842" lon="6.80026">
        <ele>548</ele>
        <time>2014-03-08T14:10:50.687Z</time>
      </trkpt>
      <trkpt lat="47.41842" lon="6.80026">
        <ele>548</ele>
        <time>2014-03-08T14:10:55.651Z</time>
      </trkpt>
      <trkpt lat="47.41842" lon="6.80027">
        <ele>548</ele>
        <time>2014-03-08T14:11:20.745Z</time>
      </trkpt>
      <trkpt lat="47.41842" lon="6.80026">
        <ele>547</ele>
        <time>2014-03-08T14:11:25.671Z</time>
      </trkpt>
      <trkpt lat="47.41843" lon="6.80025">
        <ele>547</ele>
        <time>2014-03-08T14:11:30.718Z</time>
      </trkpt>
      <trkpt lat="47.41842" lon="6.80028">
        <ele>547</ele>
        <time>2014-03-08T14:11:35.675Z</time>
      </trkpt>
      <trkpt lat="47.41841" lon="6.80026">
        <ele>547</ele>
        <time>2014-03-08T14:11:40.749Z</time>
      </trkpt>
      <trkpt lat="47.41841" lon="6.80024">
        <ele>547</ele>
        <time>2014-03-08T14:11:45.672Z</time>
      </trkpt>
      <trkpt lat="47.4184" lon="6.80023">
        <ele>547</ele>
        <time>2014-03-08T14:11:50.751Z</time>
      </trkpt>
      <trkpt lat="47.4184" lon="6.80022">
        <ele>548</ele>
        <time>2014-03-08T14:11:55.672Z</time>
      </trkpt>
      <trkpt lat="47.41838" lon="6.80023">
        <ele>549</ele>
        <time>2014-03-08T14:12:00.752Z</time>
      </trkpt>
      <trkpt lat="47.41831" lon="6.80022">
        <ele>548</ele>
        <time>2014-03-08T14:12:05.672Z</time>
      </trkpt>
      <trkpt lat="47.41824" lon="6.8001">
        <ele>547</ele>
        <time>2014-03-08T14:12:10.755Z</time>
      </trkpt>
      <trkpt lat="47.41818" lon="6.79997">
        <ele>546</ele>
        <time>2014-03-08T14:12:15.677Z</time>
      </trkpt>
      <trkpt lat="47.41813" lon="6.79975">
        <ele>543</ele>
        <time>2014-03-08T14:12:20.750Z</time>
      </trkpt>
      <trkpt lat="47.41806" lon="6.79958">
        <ele>541</ele>
        <time>2014-03-08T14:12:25.670Z</time>
      </trkpt>
      <trkpt lat="47.41795" lon="6.7994">
        <ele>539</ele>
        <time>2014-03-08T14:12:30.681Z</time>
      </trkpt>
      <trkpt lat="47.41788" lon="6.79923">
        <ele>535</ele>
        <time>2014-03-08T14:12:35.642Z</time>
      </trkpt>
      <trkpt lat="47.41781" lon="6.79906">
        <ele>533</ele>
        <time>2014-03-08T14:12:40.749Z</time>
      </trkpt>
      <trkpt lat="47.41774" lon="6.79894">
        <ele>530</ele>
        <time>2014-03-08T14:12:45.674Z</time>
      </trkpt>
      <trkpt lat="47.41767" lon="6.79878">
        <ele>527</ele>
        <time>2014-03-08T14:12:50.745Z</time>
      </trkpt>
      <trkpt lat="47.41763" lon="6.7987">
        <ele>526</ele>
        <time>2014-03-08T14:12:55.673Z</time>
      </trkpt>
      <trkpt lat="47.41763" lon="6.79867">
        <ele>526</ele>
        <time>2014-03-08T14:13:00.747Z</time>
      </trkpt>
      <trkpt lat="47.41764" lon="6.79866">
        <ele>528</ele>
        <time>2014-03-08T14:13:05.679Z</time>
      </trkpt>
      <trkpt lat="47.4176" lon="6.79863">
        <ele>528</ele>
        <time>2014-03-08T14:13:10.737Z</time>
      </trkpt>
      <trkpt lat="47.41758" lon="6.79863">
        <ele>529</ele>
        <time>2014-03-08T14:13:15.640Z</time>
      </trkpt>
      <trkpt lat="47.41758" lon="6.79857">
        <ele>527</ele>
        <time>2014-03-08T14:13:20.755Z</time>
      </trkpt>
      <trkpt lat="47.41758" lon="6.79851">
        <ele>526</ele>
        <time>2014-03-08T14:13:25.672Z</time>
      </trkpt>
      <trkpt lat="47.4176" lon="6.79845">
        <ele>525</ele>
        <time>2014-03-08T14:13:30.717Z</time>
      </trkpt>
      <trkpt lat="47.41754" lon="6.79841">
        <ele>523</ele>
        <time>2014-03-08T14:13:35.657Z</time>
      </trkpt>
      <trkpt lat="47.41749" lon="6.79837">
        <ele>522</ele>
        <time>2014-03-08T14:13:40.685Z</time>
      </trkpt>
      <trkpt lat="47.41741" lon="6.79823">
        <ele>518</ele>
        <time>2014-03-08T14:13:45.747Z</time>
      </trkpt>
      <trkpt lat="47.41737" lon="6.7981">
        <ele>515</ele>
        <time>2014-03-08T14:13:50.673Z</time>
      </trkpt>
      <trkpt lat="47.41729" lon="6.79797">
        <ele>512</ele>
        <time>2014-03-08T14:13:55.749Z</time>
      </trkpt>
      <trkpt lat="47.4172" lon="6.79773">
        <ele>510</ele>
        <time>2014-03-08T14:14:00.679Z</time>
      </trkpt>
      <trkpt lat="47.41709" lon="6.79745">
        <ele>506</ele>
        <time>2014-03-08T14:14:05.746Z</time>
      </trkpt>
      <trkpt lat="47.41699" lon="6.79714">
        <ele>503</ele>
        <time>2014-03-08T14:14:10.672Z</time>
      </trkpt>
      <trkpt lat="47.41689" lon="6.79678">
        <ele>498</ele>
        <time>2014-03-08T14:14:15.745Z</time>
      </trkpt>
      <trkpt lat="47.41676" lon="6.79642">
        <ele>493</ele>
        <time>2014-03-08T14:14:20.670Z</time>
      </trkpt>
      <trkpt lat="47.4167" lon="6.79613">
        <ele>491</ele>
        <time>2014-03-08T14:14:25.750Z</time>
      </trkpt>
      <trkpt lat="47.41665" lon="6.79585">
        <ele>488</ele>
        <time>2014-03-08T14:14:30.701Z</time>
      </trkpt>
      <trkpt lat="47.4166" lon="6.79562">
        <ele>486</ele>
        <time>2014-03-08T14:14:35.747Z</time>
      </trkpt>
      <trkpt lat="47.41651" lon="6.79542">
        <ele>483</ele>
        <time>2014-03-08T14:14:40.665Z</time>
      </trkpt>
      <trkpt lat="47.41648" lon="6.79523">
        <ele>482</ele>
        <time>2014-03-08T14:14:46.591Z</time>
      </trkpt>
      <trkpt lat="47.41655" lon="6.79516">
        <ele>482</ele>
        <time>2014-03-08T14:14:50.675Z</time>
      </trkpt>
      <trkpt lat="47.41661" lon="6.79531">
        <ele>481</ele>
        <time>2014-03-08T14:14:55.749Z</time>
      </trkpt>
      <trkpt lat="47.41677" lon="6.79549">
        <ele>481</ele>
        <time>2014-03-08T14:15:00.292Z</time>
      </trkpt>
      <trkpt lat="47.41695" lon="6.79573">
        <ele>481</ele>
        <time>2014-03-08T14:15:05.238Z</time>
      </trkpt>
      <trkpt lat="47.41709" lon="6.79584">
        <ele>482</ele>
        <time>2014-03-08T14:15:10.317Z</time>
      </trkpt>
      <trkpt lat="47.41722" lon="6.79571">
        <ele>483</ele>
        <time>2014-03-08T14:15:15.248Z</time>
      </trkpt>
      <trkpt lat="47.41734" lon="6.79537">
        <ele>483</ele>
        <time>2014-03-08T14:15:20.266Z</time>
      </trkpt>
      <trkpt lat="47.4175" lon="6.79493">
        <ele>483</ele>
        <time>2014-03-08T14:15:25.632Z</time>
      </trkpt>
      <trkpt lat="47.41769" lon="6.79441">
        <ele>480</ele>
        <time>2014-03-08T14:15:30.320Z</time>
      </trkpt>
      <trkpt lat="47.41784" lon="6.79387">
        <ele>477</ele>
        <time>2014-03-08T14:15:35.247Z</time>
      </trkpt>
      <trkpt lat="47.41797" lon="6.79335">
        <ele>472</ele>
        <time>2014-03-08T14:15:40.300Z</time>
      </trkpt>
      <trkpt lat="47.41798" lon="6.79298">
        <ele>469</ele>
        <time>2014-03-08T14:15:45.245Z</time>
      </trkpt>
      <trkpt lat="47.41806" lon="6.79263">
        <ele>465</ele>
        <time>2014-03-08T14:15:50.312Z</time>
      </trkpt>
      <trkpt lat="47.41831" lon="6.79219">
        <ele>457</ele>
        <time>2014-03-08T14:16:00.320Z</time>
      </trkpt>
      <trkpt lat="47.41841" lon="6.79201">
        <ele>453</ele>
        <time>2014-03-08T14:16:05.244Z</time>
      </trkpt>
      <trkpt lat="47.41844" lon="6.79182">
        <ele>449</ele>
        <time>2014-03-08T14:16:10.326Z</time>
      </trkpt>
      <trkpt lat="47.41842" lon="6.79182">
        <ele>448</ele>
        <time>2014-03-08T14:16:15.243Z</time>
      </trkpt>
      <trkpt lat="47.41841" lon="6.79183">
        <ele>448</ele>
        <time>2014-03-08T14:16:20.315Z</time>
      </trkpt>
      <trkpt lat="47.41841" lon="6.79183">
        <ele>447</ele>
        <time>2014-03-08T14:16:25.247Z</time>
      </trkpt>
      <trkpt lat="47.41841" lon="6.79183">
        <ele>447</ele>
        <time>2014-03-08T14:16:30.323Z</time>
      </trkpt>
      <trkpt lat="47.41848" lon="6.79179">
        <ele>443</ele>
        <time>2014-03-08T14:16:35.249Z</time>
      </trkpt>
      <trkpt lat="47.41874" lon="6.7917">
        <ele>438</ele>
        <time>2014-03-08T14:16:40.325Z</time>
      </trkpt>
      <trkpt lat="47.41904" lon="6.79162">
        <ele>432</ele>
        <time>2014-03-08T14:16:45.251Z</time>
      </trkpt>
      <trkpt lat="47.41929" lon="6.79154">
        <ele>428</ele>
        <time>2014-03-08T14:16:50.263Z</time>
      </trkpt>
      <trkpt lat="47.41952" lon="6.79147">
        <ele>426</ele>
        <time>2014-03-08T14:16:55.248Z</time>
      </trkpt>
      <trkpt lat="47.41977" lon="6.79144">
        <ele>424</ele>
        <time>2014-03-08T14:17:00.321Z</time>
      </trkpt>
      <trkpt lat="47.42006" lon="6.79135">
        <ele>421</ele>
        <time>2014-03-08T14:17:05.217Z</time>
      </trkpt>
      <trkpt lat="47.42036" lon="6.79129">
        <ele>419</ele>
        <time>2014-03-08T14:17:10.323Z</time>
      </trkpt>
      <trkpt lat="47.42067" lon="6.79129">
        <ele>417</ele>
        <time>2014-03-08T14:17:15.238Z</time>
      </trkpt>
      <trkpt lat="47.42096" lon="6.7913">
        <ele>416</ele>
        <time>2014-03-08T14:17:20.316Z</time>
      </trkpt>
      <trkpt lat="47.42125" lon="6.79133">
        <ele>416</ele>
        <time>2014-03-08T14:17:19.526Z</time>
      </trkpt>
      <trkpt lat="47.42154" lon="6.7914">
        <ele>414</ele>
        <time>2014-03-08T14:17:24.597Z</time>
      </trkpt>
      <trkpt lat="47.42179" lon="6.79151">
        <ele>413</ele>
        <time>2014-03-08T14:17:29.524Z</time>
      </trkpt>
      <trkpt lat="47.42197" lon="6.79169">
        <ele>412</ele>
        <time>2014-03-08T14:17:34.607Z</time>
      </trkpt>
      <trkpt lat="47.42219" lon="6.79185">
        <ele>412</ele>
        <time>2014-03-08T14:17:39.514Z</time>
      </trkpt>
      <trkpt lat="47.42245" lon="6.79194">
        <ele>411</ele>
        <time>2014-03-08T14:17:44.598Z</time>
      </trkpt>
      <trkpt lat="47.42267" lon="6.79202">
        <ele>411</ele>
        <time>2014-03-08T14:17:49.516Z</time>
      </trkpt>
      <trkpt lat="47.42287" lon="6.79207">
        <ele>410</ele>
        <time>2014-03-08T14:17:54.603Z</time>
      </trkpt>
      <trkpt lat="47.42306" lon="6.7921">
        <ele>410</ele>
        <time>2014-03-08T14:17:59.522Z</time>
      </trkpt>
      <trkpt lat="47.42323" lon="6.79214">
        <ele>411</ele>
        <time>2014-03-08T14:18:04.598Z</time>
      </trkpt>
      <trkpt lat="47.42339" lon="6.79219">
        <ele>411</ele>
        <time>2014-03-08T14:18:09.529Z</time>
      </trkpt>
      <trkpt lat="47.42355" lon="6.79226">
        <ele>413</ele>
        <time>2014-03-08T14:18:14.605Z</time>
      </trkpt>
      <trkpt lat="47.42369" lon="6.79233">
        <ele>414</ele>
        <time>2014-03-08T14:18:19.525Z</time>
      </trkpt>
      <trkpt lat="47.42384" lon="6.79238">
        <ele>414</ele>
        <time>2014-03-08T14:18:24.602Z</time>
      </trkpt>
      <trkpt lat="47.42399" lon="6.79244">
        <ele>414</ele>
        <time>2014-03-08T14:18:29.520Z</time>
      </trkpt>
      <trkpt lat="47.42417" lon="6.79246">
        <ele>414</ele>
        <time>2014-03-08T14:18:34.603Z</time>
      </trkpt>
      <trkpt lat="47.42438" lon="6.79244">
        <ele>413</ele>
        <time>2014-03-08T14:18:39.520Z</time>
      </trkpt>
      <trkpt lat="47.42465" lon="6.79242">
        <ele>412</ele>
        <time>2014-03-08T14:18:44.596Z</time>
      </trkpt>
      <trkpt lat="47.42494" lon="6.79237">
        <ele>412</ele>
        <time>2014-03-08T14:18:49.518Z</time>
      </trkpt>
      <trkpt lat="47.42526" lon="6.79225">
        <ele>409</ele>
        <time>2014-03-08T14:18:54.599Z</time>
      </trkpt>
      <trkpt lat="47.42559" lon="6.79213">
        <ele>407</ele>
        <time>2014-03-08T14:18:59.520Z</time>
      </trkpt>
      <trkpt lat="47.42594" lon="6.79206">
        <ele>407</ele>
        <time>2014-03-08T14:19:04.581Z</time>
      </trkpt>
      <trkpt lat="47.42624" lon="6.79199">
        <ele>407</ele>
        <time>2014-03-08T14:19:09.528Z</time>
      </trkpt>
      <trkpt lat="47.42653" lon="6.79194">
        <ele>406</ele>
        <time>2014-03-08T14:19:14.597Z</time>
      </trkpt>
      <trkpt lat="47.42676" lon="6.79197">
        <ele>406</ele>
        <time>2014-03-08T14:19:19.526Z</time>
      </trkpt>
      <trkpt lat="47.42699" lon="6.79197">
        <ele>405</ele>
        <time>2014-03-08T14:19:24.588Z</time>
      </trkpt>
      <trkpt lat="47.42719" lon="6.79194">
        <ele>405</ele>
        <time>2014-03-08T14:19:29.520Z</time>
      </trkpt>
      <trkpt lat="47.42744" lon="6.7919">
        <ele>406</ele>
        <time>2014-03-08T14:19:34.596Z</time>
      </trkpt>
      <trkpt lat="47.42767" lon="6.7919">
        <ele>406</ele>
        <time>2014-03-08T14:19:39.527Z</time>
      </trkpt>
      <trkpt lat="47.42791" lon="6.79194">
        <ele>406</ele>
        <time>2014-03-08T14:19:44.599Z</time>
      </trkpt>
      <trkpt lat="47.42816" lon="6.79194">
        <ele>406</ele>
        <time>2014-03-08T14:19:49.756Z</time>
      </trkpt>
      <trkpt lat="47.42843" lon="6.7919">
        <ele>405</ele>
        <time>2014-03-08T14:19:54.919Z</time>
      </trkpt>
      <trkpt lat="47.4287" lon="6.79181">
        <ele>404</ele>
        <time>2014-03-08T14:19:59.525Z</time>
      </trkpt>
      <trkpt lat="47.42902" lon="6.79178">
        <ele>403</ele>
        <time>2014-03-08T14:20:04.602Z</time>
      </trkpt>
      <trkpt lat="47.42933" lon="6.79173">
        <ele>402</ele>
        <time>2014-03-08T14:20:09.528Z</time>
      </trkpt>
      <trkpt lat="47.42957" lon="6.79167">
        <ele>403</ele>
        <time>2014-03-08T14:20:14.600Z</time>
      </trkpt>
      <trkpt lat="47.42981" lon="6.79167">
        <ele>404</ele>
        <time>2014-03-08T14:20:19.524Z</time>
      </trkpt>
      <trkpt lat="47.43002" lon="6.79169">
        <ele>404</ele>
        <time>2014-03-08T14:20:24.601Z</time>
      </trkpt>
      <trkpt lat="47.43022" lon="6.79177">
        <ele>405</ele>
        <time>2014-03-08T14:20:29.534Z</time>
      </trkpt>
      <trkpt lat="47.4304" lon="6.79186">
        <ele>405</ele>
        <time>2014-03-08T14:20:34.601Z</time>
      </trkpt>
      <trkpt lat="47.43057" lon="6.79196">
        <ele>405</ele>
        <time>2014-03-08T14:20:39.532Z</time>
      </trkpt>
      <trkpt lat="47.43073" lon="6.79201">
        <ele>407</ele>
        <time>2014-03-08T14:20:44.599Z</time>
      </trkpt>
      <trkpt lat="47.43088" lon="6.79204">
        <ele>407</ele>
        <time>2014-03-08T14:20:49.517Z</time>
      </trkpt>
      <trkpt lat="47.43104" lon="6.7921">
        <ele>407</ele>
        <time>2014-03-08T14:20:54.545Z</time>
      </trkpt>
      <trkpt lat="47.43122" lon="6.79213">
        <ele>408</ele>
        <time>2014-03-08T14:20:59.576Z</time>
      </trkpt>
      <trkpt lat="47.43139" lon="6.79216">
        <ele>408</ele>
        <time>2014-03-08T14:21:04.532Z</time>
      </trkpt>
      <trkpt lat="47.43155" lon="6.79218">
        <ele>408</ele>
        <time>2014-03-08T14:21:09.596Z</time>
      </trkpt>
      <trkpt lat="47.43168" lon="6.79219">
        <ele>408</ele>
        <time>2014-03-08T14:21:14.531Z</time>
      </trkpt>
      <trkpt lat="47.43181" lon="6.79217">
        <ele>408</ele>
        <time>2014-03-08T14:21:19.600Z</time>
      </trkpt>
      <trkpt lat="47.43197" lon="6.79221">
        <ele>409</ele>
        <time>2014-03-08T14:21:24.522Z</time>
      </trkpt>
      <trkpt lat="47.4321" lon="6.79235">
        <ele>410</ele>
        <time>2014-03-08T14:21:29.573Z</time>
      </trkpt>
      <trkpt lat="47.43224" lon="6.7925">
        <ele>410</ele>
        <time>2014-03-08T14:21:34.530Z</time>
      </trkpt>
      <trkpt lat="47.43235" lon="6.79259">
        <ele>410</ele>
        <time>2014-03-08T14:21:39.605Z</time>
      </trkpt>
      <trkpt lat="47.43252" lon="6.79257">
        <ele>411</ele>
        <time>2014-03-08T14:21:44.528Z</time>
      </trkpt>
      <trkpt lat="47.43273" lon="6.79251">
        <ele>412</ele>
        <time>2014-03-08T14:21:49.600Z</time>
      </trkpt>
      <trkpt lat="47.43299" lon="6.7925">
        <ele>412</ele>
        <time>2014-03-08T14:21:54.516Z</time>
      </trkpt>
      <trkpt lat="47.43322" lon="6.79256">
        <ele>413</ele>
        <time>2014-03-08T14:21:59.558Z</time>
      </trkpt>
      <trkpt lat="47.43344" lon="6.79261">
        <ele>414</ele>
        <time>2014-03-08T14:22:04.533Z</time>
      </trkpt>
      <trkpt lat="47.4337" lon="6.79256">
        <ele>413</ele>
        <time>2014-03-08T14:22:09.598Z</time>
      </trkpt>
      <trkpt lat="47.43397" lon="6.79246">
        <ele>413</ele>
        <time>2014-03-08T14:22:14.531Z</time>
      </trkpt>
      <trkpt lat="47.43419" lon="6.79231">
        <ele>413</ele>
        <time>2014-03-08T14:22:19.600Z</time>
      </trkpt>
      <trkpt lat="47.43442" lon="6.79228">
        <ele>415</ele>
        <time>2014-03-08T14:22:24.524Z</time>
      </trkpt>
      <trkpt lat="47.43467" lon="6.79223">
        <ele>415</ele>
        <time>2014-03-08T14:22:29.604Z</time>
      </trkpt>
      <trkpt lat="47.4349" lon="6.79212">
        <ele>415</ele>
        <time>2014-03-08T14:22:34.526Z</time>
      </trkpt>
      <trkpt lat="47.43514" lon="6.79202">
        <ele>416</ele>
        <time>2014-03-08T14:22:39.600Z</time>
      </trkpt>
      <trkpt lat="47.43539" lon="6.79191">
        <ele>417</ele>
        <time>2014-03-08T14:22:44.526Z</time>
      </trkpt>
      <trkpt lat="47.43563" lon="6.79177">
        <ele>418</ele>
        <time>2014-03-08T14:22:49.602Z</time>
      </trkpt>
      <trkpt lat="47.43583" lon="6.79158">
        <ele>419</ele>
        <time>2014-03-08T14:22:54.512Z</time>
      </trkpt>
      <trkpt lat="47.43603" lon="6.79142">
        <ele>419</ele>
        <time>2014-03-08T14:22:59.565Z</time>
      </trkpt>
      <trkpt lat="47.43627" lon="6.79134">
        <ele>418</ele>
        <time>2014-03-08T14:23:04.521Z</time>
      </trkpt>
      <trkpt lat="47.43655" lon="6.79125">
        <ele>417</ele>
        <time>2014-03-08T14:23:09.604Z</time>
      </trkpt>
      <trkpt lat="47.43728" lon="6.79102">
        <ele>413</ele>
        <time>2014-03-08T14:23:19.603Z</time>
      </trkpt>
      <trkpt lat="47.43767" lon="6.79092">
        <ele>411</ele>
        <time>2014-03-08T14:23:24.524Z</time>
      </trkpt>
      <trkpt lat="47.43805" lon="6.79078">
        <ele>409</ele>
        <time>2014-03-08T14:23:29.601Z</time>
      </trkpt>
      <trkpt lat="47.43837" lon="6.7907">
        <ele>407</ele>
        <time>2014-03-08T14:23:34.523Z</time>
      </trkpt>
      <trkpt lat="47.43863" lon="6.79067">
        <ele>405</ele>
        <time>2014-03-08T14:23:40.347Z</time>
      </trkpt>
      <trkpt lat="47.43888" lon="6.79064">
        <ele>403</ele>
        <time>2014-03-08T14:23:45.316Z</time>
      </trkpt>
      <trkpt lat="47.43913" lon="6.79058">
        <ele>402</ele>
        <time>2014-03-08T14:23:50.390Z</time>
      </trkpt>
      <trkpt lat="47.43938" lon="6.79052">
        <ele>401</ele>
        <time>2014-03-08T14:23:55.301Z</time>
      </trkpt>
      <trkpt lat="47.4396" lon="6.79048">
        <ele>399</ele>
        <time>2014-03-08T14:24:00.352Z</time>
      </trkpt>
      <trkpt lat="47.43981" lon="6.79047">
        <ele>398</ele>
        <time>2014-03-08T14:24:05.313Z</time>
      </trkpt>
      <trkpt lat="47.44004" lon="6.79047">
        <ele>397</ele>
        <time>2014-03-08T14:24:10.383Z</time>
      </trkpt>
      <trkpt lat="47.44027" lon="6.79048">
        <ele>396</ele>
        <time>2014-03-08T14:24:15.321Z</time>
      </trkpt>
      <trkpt lat="47.4405" lon="6.79049">
        <ele>396</ele>
        <time>2014-03-08T14:24:20.392Z</time>
      </trkpt>
      <trkpt lat="47.44072" lon="6.7905">
        <ele>395</ele>
        <time>2014-03-08T14:24:25.319Z</time>
      </trkpt>
      <trkpt lat="47.44092" lon="6.79051">
        <ele>395</ele>
        <time>2014-03-08T14:24:30.398Z</time>
      </trkpt>
      <trkpt lat="47.44113" lon="6.79052">
        <ele>395</ele>
        <time>2014-03-08T14:24:35.321Z</time>
      </trkpt>
      <trkpt lat="47.44134" lon="6.79057">
        <ele>396</ele>
        <time>2014-03-08T14:24:40.367Z</time>
      </trkpt>
      <trkpt lat="47.44155" lon="6.79063">
        <ele>395</ele>
        <time>2014-03-08T14:24:45.319Z</time>
      </trkpt>
      <trkpt lat="47.44177" lon="6.79069">
        <ele>395</ele>
        <time>2014-03-08T14:24:50.361Z</time>
      </trkpt>
      <trkpt lat="47.44198" lon="6.79076">
        <ele>395</ele>
        <time>2014-03-08T14:24:55.326Z</time>
      </trkpt>
      <trkpt lat="47.4422" lon="6.79084">
        <ele>394</ele>
        <time>2014-03-08T14:25:03.785Z</time>
      </trkpt>
      <trkpt lat="47.44241" lon="6.79095">
        <ele>394</ele>
        <time>2014-03-08T14:25:05.291Z</time>
      </trkpt>
      <trkpt lat="47.44263" lon="6.79106">
        <ele>394</ele>
        <time>2014-03-08T14:25:10.394Z</time>
      </trkpt>
      <trkpt lat="47.44284" lon="6.79119">
        <ele>394</ele>
        <time>2014-03-08T14:25:15.312Z</time>
      </trkpt>
      <trkpt lat="47.44306" lon="6.79131">
        <ele>394</ele>
        <time>2014-03-08T14:25:20.381Z</time>
      </trkpt>
      <trkpt lat="47.44328" lon="6.79143">
        <ele>394</ele>
        <time>2014-03-08T14:25:25.315Z</time>
      </trkpt>
      <trkpt lat="47.4435" lon="6.79154">
        <ele>394</ele>
        <time>2014-03-08T14:25:30.387Z</time>
      </trkpt>
      <trkpt lat="47.44372" lon="6.79165">
        <ele>394</ele>
        <time>2014-03-08T14:25:35.330Z</time>
      </trkpt>
      <trkpt lat="47.44394" lon="6.79175">
        <ele>393</ele>
        <time>2014-03-08T14:25:40.398Z</time>
      </trkpt>
      <trkpt lat="47.44416" lon="6.79185">
        <ele>393</ele>
        <time>2014-03-08T14:25:45.333Z</time>
      </trkpt>
      <trkpt lat="47.44438" lon="6.79196">
        <ele>392</ele>
        <time>2014-03-08T14:25:50.399Z</time>
      </trkpt>
      <trkpt lat="47.4446" lon="6.79207">
        <ele>391</ele>
        <time>2014-03-08T14:25:55.333Z</time>
      </trkpt>
      <trkpt lat="47.44482" lon="6.79218">
        <ele>390</ele>
        <time>2014-03-08T14:26:00.397Z</time>
      </trkpt>
      <trkpt lat="47.44504" lon="6.79227">
        <ele>389</ele>
        <time>2014-03-08T14:26:05.317Z</time>
      </trkpt>
      <trkpt lat="47.44527" lon="6.79237">
        <ele>389</ele>
        <time>2014-03-08T14:26:10.321Z</time>
      </trkpt>
      <trkpt lat="47.44549" lon="6.79246">
        <ele>389</ele>
        <time>2014-03-08T14:26:15.370Z</time>
      </trkpt>
      <trkpt lat="47.4457" lon="6.79257">
        <ele>389</ele>
        <time>2014-03-08T14:26:20.314Z</time>
      </trkpt>
      <trkpt lat="47.44592" lon="6.79267">
        <ele>388</ele>
        <time>2014-03-08T14:26:25.391Z</time>
      </trkpt>
      <trkpt lat="47.44612" lon="6.79277">
        <ele>388</ele>
        <time>2014-03-08T14:26:30.327Z</time>
      </trkpt>
      <trkpt lat="47.44632" lon="6.79287">
        <ele>387</ele>
        <time>2014-03-08T14:26:35.395Z</time>
      </trkpt>
      <trkpt lat="47.44652" lon="6.79298">
        <ele>387</ele>
        <time>2014-03-08T14:26:40.316Z</time>
      </trkpt>
      <trkpt lat="47.44673" lon="6.79309">
        <ele>387</ele>
        <time>2014-03-08T14:26:45.362Z</time>
      </trkpt>
      <trkpt lat="47.44693" lon="6.7932">
        <ele>386</ele>
        <time>2014-03-08T14:26:50.321Z</time>
      </trkpt>
      <trkpt lat="47.44713" lon="6.79332">
        <ele>386</ele>
        <time>2014-03-08T14:26:55.395Z</time>
      </trkpt>
      <trkpt lat="47.44734" lon="6.79343">
        <ele>386</ele>
        <time>2014-03-08T14:27:00.325Z</time>
      </trkpt>
      <trkpt lat="47.44755" lon="6.79355">
        <ele>385</ele>
        <time>2014-03-08T14:27:05.385Z</time>
      </trkpt>
      <trkpt lat="47.44773" lon="6.79367">
        <ele>385</ele>
        <time>2014-03-08T14:27:10.590Z</time>
      </trkpt>
      <trkpt lat="47.44792" lon="6.79379">
        <ele>385</ele>
        <time>2014-03-08T14:27:15.398Z</time>
      </trkpt>
      <trkpt lat="47.4481" lon="6.79392">
        <ele>385</ele>
        <time>2014-03-08T14:27:20.332Z</time>
      </trkpt>
      <trkpt lat="47.44827" lon="6.79405">
        <ele>385</ele>
        <time>2014-03-08T14:27:25.397Z</time>
      </trkpt>
      <trkpt lat="47.44845" lon="6.79419">
        <ele>385</ele>
        <time>2014-03-08T14:27:30.326Z</time>
      </trkpt>
      <trkpt lat="47.44863" lon="6.79433">
        <ele>385</ele>
        <time>2014-03-08T14:27:35.400Z</time>
      </trkpt>
      <trkpt lat="47.44882" lon="6.79449">
        <ele>385</ele>
        <time>2014-03-08T14:27:40.325Z</time>
      </trkpt>
      <trkpt lat="47.44902" lon="6.79465">
        <ele>384</ele>
        <time>2014-03-08T14:27:45.372Z</time>
      </trkpt>
      <trkpt lat="47.44922" lon="6.79481">
        <ele>384</ele>
        <time>2014-03-08T14:27:50.325Z</time>
      </trkpt>
      <trkpt lat="47.44941" lon="6.79496">
        <ele>384</ele>
        <time>2014-03-08T14:27:55.396Z</time>
      </trkpt>
      <trkpt lat="47.44978" lon="6.79526">
        <ele>384</ele>
        <time>2014-03-08T14:28:05.388Z</time>
      </trkpt>
      <trkpt lat="47.44996" lon="6.79541">
        <ele>384</ele>
        <time>2014-03-08T14:28:10.335Z</time>
      </trkpt>
      <trkpt lat="47.45012" lon="6.7956">
        <ele>385</ele>
        <time>2014-03-08T14:28:15.399Z</time>
      </trkpt>
      <trkpt lat="47.45027" lon="6.79581">
        <ele>385</ele>
        <time>2014-03-08T14:28:20.328Z</time>
      </trkpt>
      <trkpt lat="47.45039" lon="6.79604">
        <ele>386</ele>
        <time>2014-03-08T14:28:25.395Z</time>
      </trkpt>
      <trkpt lat="47.45048" lon="6.79622">
        <ele>386</ele>
        <time>2014-03-08T14:28:30.334Z</time>
      </trkpt>
      <trkpt lat="47.45059" lon="6.79619">
        <ele>387</ele>
        <time>2014-03-08T14:28:35.402Z</time>
      </trkpt>
      <trkpt lat="47.45073" lon="6.79601">
        <ele>388</ele>
        <time>2014-03-08T14:28:40.328Z</time>
      </trkpt>
      <trkpt lat="47.45086" lon="6.79584">
        <ele>388</ele>
        <time>2014-03-08T14:28:45.398Z</time>
      </trkpt>
      <trkpt lat="47.45097" lon="6.79568">
        <ele>388</ele>
        <time>2014-03-08T14:28:50.323Z</time>
      </trkpt>
      <trkpt lat="47.45109" lon="6.79552">
        <ele>389</ele>
        <time>2014-03-08T14:28:55.382Z</time>
      </trkpt>
      <trkpt lat="47.4512" lon="6.79536">
        <ele>389</ele>
        <time>2014-03-08T14:29:00.334Z</time>
      </trkpt>
      <trkpt lat="47.45126" lon="6.79518">
        <ele>389</ele>
        <time>2014-03-08T14:29:05.397Z</time>
      </trkpt>
      <trkpt lat="47.45131" lon="6.79493">
        <ele>388</ele>
        <time>2014-03-08T14:29:10.330Z</time>
      </trkpt>
      <trkpt lat="47.45137" lon="6.79467">
        <ele>389</ele>
        <time>2014-03-08T14:29:15.369Z</time>
      </trkpt>
      <trkpt lat="47.45143" lon="6.79443">
        <ele>389</ele>
        <time>2014-03-08T14:29:20.325Z</time>
      </trkpt>
      <trkpt lat="47.4515" lon="6.79423">
        <ele>389</ele>
        <time>2014-03-08T14:29:25.402Z</time>
      </trkpt>
      <trkpt lat="47.45162" lon="6.79399">
        <ele>389</ele>
        <time>2014-03-08T14:29:30.326Z</time>
      </trkpt>
      <trkpt lat="47.4517" lon="6.79366">
        <ele>390</ele>
        <time>2014-03-08T14:29:35.383Z</time>
      </trkpt>
      <trkpt lat="47.45178" lon="6.79332">
        <ele>390</ele>
        <time>2014-03-08T14:29:40.336Z</time>
      </trkpt>
      <trkpt lat="47.45186" lon="6.79297">
        <ele>391</ele>
        <time>2014-03-08T14:29:45.326Z</time>
      </trkpt>
      <trkpt lat="47.45193" lon="6.79267">
        <ele>390</ele>
        <time>2014-03-08T14:29:50.367Z</time>
      </trkpt>
      <trkpt lat="47.452" lon="6.79237">
        <ele>390</ele>
        <time>2014-03-08T14:29:55.325Z</time>
      </trkpt>
      <trkpt lat="47.45266" lon="6.79072">
        <ele>388</ele>
        <time>2014-03-08T14:30:25.356Z</time>
      </trkpt>
      <trkpt lat="47.45276" lon="6.79035">
        <ele>387</ele>
        <time>2014-03-08T14:30:30.385Z</time>
      </trkpt>
      <trkpt lat="47.45296" lon="6.79001">
        <ele>386</ele>
        <time>2014-03-08T14:30:35.323Z</time>
      </trkpt>
      <trkpt lat="47.45313" lon="6.78976">
        <ele>386</ele>
        <time>2014-03-08T14:30:40.400Z</time>
      </trkpt>
      <trkpt lat="47.45328" lon="6.78957">
        <ele>386</ele>
        <time>2014-03-08T14:30:45.320Z</time>
      </trkpt>
      <trkpt lat="47.45343" lon="6.78942">
        <ele>386</ele>
        <time>2014-03-08T14:30:50.334Z</time>
      </trkpt>
      <trkpt lat="47.45357" lon="6.78919">
        <ele>386</ele>
        <time>2014-03-08T14:30:55.399Z</time>
      </trkpt>
      <trkpt lat="47.45357" lon="6.78853">
        <ele>386</ele>
        <time>2014-03-08T14:31:16.914Z</time>
      </trkpt>
      <trkpt lat="47.45423" lon="6.78835">
        <ele>386</ele>
        <time>2014-03-08T14:31:20.325Z</time>
      </trkpt>
      <trkpt lat="47.45436" lon="6.78819">
        <ele>386</ele>
        <time>2014-03-08T14:31:25.366Z</time>
      </trkpt>
      <trkpt lat="47.4545" lon="6.78803">
        <ele>387</ele>
        <time>2014-03-08T14:31:30.337Z</time>
      </trkpt>
      <trkpt lat="47.45465" lon="6.78785">
        <ele>386</ele>
        <time>2014-03-08T14:31:35.392Z</time>
      </trkpt>
      <trkpt lat="47.4548" lon="6.78769">
        <ele>387</ele>
        <time>2014-03-08T14:31:40.338Z</time>
      </trkpt>
      <trkpt lat="47.45487" lon="6.78758">
        <ele>387</ele>
        <time>2014-03-08T14:31:45.401Z</time>
      </trkpt>
      <trkpt lat="47.45483" lon="6.78735">
        <ele>387</ele>
        <time>2014-03-08T14:31:50.321Z</time>
      </trkpt>
      <trkpt lat="47.45472" lon="6.78714">
        <ele>387</ele>
        <time>2014-03-08T14:31:55.351Z</time>
      </trkpt>
      <trkpt lat="47.45451" lon="6.78675">
        <ele>387</ele>
        <time>2014-03-08T14:32:05.613Z</time>
      </trkpt>
      <trkpt lat="47.4544" lon="6.78655">
        <ele>388</ele>
        <time>2014-03-08T14:32:10.333Z</time>
      </trkpt>
      <trkpt lat="47.45429" lon="6.78634">
        <ele>388</ele>
        <time>2014-03-08T14:32:15.398Z</time>
      </trkpt>
      <trkpt lat="47.45417" lon="6.78613">
        <ele>388</ele>
        <time>2014-03-08T14:32:20.331Z</time>
      </trkpt>
      <trkpt lat="47.45406" lon="6.78592">
        <ele>388</ele>
        <time>2014-03-08T14:32:25.833Z</time>
      </trkpt>
      <trkpt lat="47.45394" lon="6.78569">
        <ele>389</ele>
        <time>2014-03-08T14:32:30.332Z</time>
      </trkpt>
      <trkpt lat="47.45383" lon="6.78545">
        <ele>389</ele>
        <time>2014-03-08T14:32:35.405Z</time>
      </trkpt>
      <trkpt lat="47.45377" lon="6.78522">
        <ele>390</ele>
        <time>2014-03-08T14:32:40.322Z</time>
      </trkpt>
      <trkpt lat="47.45374" lon="6.78503">
        <ele>391</ele>
        <time>2014-03-08T14:32:45.394Z</time>
      </trkpt>
      <trkpt lat="47.45377" lon="6.78486">
        <ele>392</ele>
        <time>2014-03-08T14:32:50.325Z</time>
      </trkpt>
      <trkpt lat="47.45388" lon="6.78488">
        <ele>394</ele>
        <time>2014-03-08T14:32:55.396Z</time>
      </trkpt>
      <trkpt lat="47.45397" lon="6.78496">
        <ele>395</ele>
        <time>2014-03-08T14:33:00.337Z</time>
      </trkpt>
      <trkpt lat="47.45407" lon="6.78503">
        <ele>396</ele>
        <time>2014-03-08T14:33:05.403Z</time>
      </trkpt>
      <trkpt lat="47.45416" lon="6.78508">
        <ele>396</ele>
        <time>2014-03-08T14:33:10.326Z</time>
      </trkpt>
      <trkpt lat="47.45427" lon="6.7851">
        <ele>397</ele>
        <time>2014-03-08T14:33:15.398Z</time>
      </trkpt>
      <trkpt lat="47.45437" lon="6.7851">
        <ele>398</ele>
        <time>2014-03-08T14:33:20.342Z</time>
      </trkpt>
      <trkpt lat="47.45447" lon="6.78507">
        <ele>398</ele>
        <time>2014-03-08T14:33:25.395Z</time>
      </trkpt>
      <trkpt lat="47.45457" lon="6.78502">
        <ele>399</ele>
        <time>2014-03-08T14:33:30.429Z</time>
      </trkpt>
      <trkpt lat="47.45466" lon="6.78495">
        <ele>400</ele>
        <time>2014-03-08T14:33:35.363Z</time>
      </trkpt>
      <trkpt lat="47.45476" lon="6.7849">
        <ele>401</ele>
        <time>2014-03-08T14:33:40.336Z</time>
      </trkpt>
      <trkpt lat="47.45485" lon="6.78485">
        <ele>402</ele>
        <time>2014-03-08T14:33:45.398Z</time>
      </trkpt>
      <trkpt lat="47.45505" lon="6.78473">
        <ele>403</ele>
        <time>2014-03-08T14:33:55.403Z</time>
      </trkpt>
      <trkpt lat="47.45516" lon="6.78467">
        <ele>403</ele>
        <time>2014-03-08T14:34:00.323Z</time>
      </trkpt>
      <trkpt lat="47.45529" lon="6.7846">
        <ele>404</ele>
        <time>2014-03-08T14:34:05.395Z</time>
      </trkpt>
      <trkpt lat="47.45541" lon="6.78453">
        <ele>405</ele>
        <time>2014-03-08T14:34:10.324Z</time>
      </trkpt>
      <trkpt lat="47.45555" lon="6.78446">
        <ele>405</ele>
        <time>2014-03-08T14:34:15.406Z</time>
      </trkpt>
      <trkpt lat="47.45569" lon="6.78438">
        <ele>406</ele>
        <time>2014-03-08T14:34:20.323Z</time>
      </trkpt>
      <trkpt lat="47.45583" lon="6.78431">
        <ele>406</ele>
        <time>2014-03-08T14:34:25.395Z</time>
      </trkpt>
      <trkpt lat="47.45598" lon="6.78422">
        <ele>407</ele>
        <time>2014-03-08T14:34:30.321Z</time>
      </trkpt>
      <trkpt lat="47.45613" lon="6.78414">
        <ele>407</ele>
        <time>2014-03-08T14:34:35.397Z</time>
      </trkpt>
      <trkpt lat="47.45628" lon="6.78407">
        <ele>408</ele>
        <time>2014-03-08T14:34:40.331Z</time>
      </trkpt>
      <trkpt lat="47.45643" lon="6.784">
        <ele>408</ele>
        <time>2014-03-08T14:34:45.394Z</time>
      </trkpt>
      <trkpt lat="47.45659" lon="6.78395">
        <ele>409</ele>
        <time>2014-03-08T14:34:50.325Z</time>
      </trkpt>
      <trkpt lat="47.45674" lon="6.78391">
        <ele>409</ele>
        <time>2014-03-08T14:34:55.396Z</time>
      </trkpt>
      <trkpt lat="47.45689" lon="6.78389">
        <ele>409</ele>
        <time>2014-03-08T14:35:00.331Z</time>
      </trkpt>
      <trkpt lat="47.45704" lon="6.78389">
        <ele>410</ele>
        <time>2014-03-08T14:35:05.377Z</time>
      </trkpt>
      <trkpt lat="47.45718" lon="6.78389">
        <ele>410</ele>
        <time>2014-03-08T14:35:10.314Z</time>
      </trkpt>
      <trkpt lat="47.45732" lon="6.78391">
        <ele>410</ele>
        <time>2014-03-08T14:35:15.385Z</time>
      </trkpt>
      <trkpt lat="47.45745" lon="6.78393">
        <ele>411</ele>
        <time>2014-03-08T14:35:20.324Z</time>
      </trkpt>
      <trkpt lat="47.45759" lon="6.78397">
        <ele>412</ele>
        <time>2014-03-08T14:35:25.393Z</time>
      </trkpt>
      <trkpt lat="47.45772" lon="6.78403">
        <ele>413</ele>
        <time>2014-03-08T14:35:30.323Z</time>
      </trkpt>
      <trkpt lat="47.45784" lon="6.78411">
        <ele>414</ele>
        <time>2014-03-08T14:35:35.318Z</time>
      </trkpt>
      <trkpt lat="47.45794" lon="6.78423">
        <ele>415</ele>
        <time>2014-03-08T14:35:40.315Z</time>
      </trkpt>
      <trkpt lat="47.45803" lon="6.78436">
        <ele>416</ele>
        <time>2014-03-08T14:35:45.366Z</time>
      </trkpt>
      <trkpt lat="47.45809" lon="6.78454">
        <ele>417</ele>
        <time>2014-03-08T14:35:50.316Z</time>
      </trkpt>
      <trkpt lat="47.45814" lon="6.78475">
        <ele>418</ele>
        <time>2014-03-08T14:35:55.352Z</time>
      </trkpt>
      <trkpt lat="47.45818" lon="6.78499">
        <ele>419</ele>
        <time>2014-03-08T14:36:00.324Z</time>
      </trkpt>
      <trkpt lat="47.45824" lon="6.78523">
        <ele>421</ele>
        <time>2014-03-08T14:36:05.397Z</time>
      </trkpt>
      <trkpt lat="47.45833" lon="6.78547">
        <ele>422</ele>
        <time>2014-03-08T14:36:10.323Z</time>
      </trkpt>
      <trkpt lat="47.45841" lon="6.78571">
        <ele>423</ele>
        <time>2014-03-08T14:36:15.351Z</time>
      </trkpt>
      <trkpt lat="47.45849" lon="6.78594">
        <ele>425</ele>
        <time>2014-03-08T14:36:20.317Z</time>
      </trkpt>
      <trkpt lat="47.45857" lon="6.78617">
        <ele>425</ele>
        <time>2014-03-08T14:36:25.393Z</time>
      </trkpt>
      <trkpt lat="47.45865" lon="6.78641">
        <ele>427</ele>
        <time>2014-03-08T14:36:30.319Z</time>
      </trkpt>
      <trkpt lat="47.45872" lon="6.78666">
        <ele>428</ele>
        <time>2014-03-08T14:36:35.395Z</time>
      </trkpt>
      <trkpt lat="47.4588" lon="6.78691">
        <ele>429</ele>
        <time>2014-03-08T14:36:40.324Z</time>
      </trkpt>
      <trkpt lat="47.45887" lon="6.78715">
        <ele>430</ele>
        <time>2014-03-08T14:36:45.391Z</time>
      </trkpt>
      <trkpt lat="47.45896" lon="6.7874">
        <ele>430</ele>
        <time>2014-03-08T14:36:50.314Z</time>
      </trkpt>
      <trkpt lat="47.45904" lon="6.78762">
        <ele>431</ele>
        <time>2014-03-08T14:36:55.392Z</time>
      </trkpt>
      <trkpt lat="47.45912" lon="6.78782">
        <ele>431</ele>
        <time>2014-03-08T14:37:00.300Z</time>
      </trkpt>
      <trkpt lat="47.45918" lon="6.78801">
        <ele>432</ele>
        <time>2014-03-08T14:37:05.394Z</time>
      </trkpt>
      <trkpt lat="47.45925" lon="6.7882">
        <ele>432</ele>
        <time>2014-03-08T14:37:10.316Z</time>
      </trkpt>
      <trkpt lat="47.45932" lon="6.78839">
        <ele>433</ele>
        <time>2014-03-08T14:37:15.351Z</time>
      </trkpt>
      <trkpt lat="47.45939" lon="6.78858">
        <ele>433</ele>
        <time>2014-03-08T14:37:20.321Z</time>
      </trkpt>
      <trkpt lat="47.45945" lon="6.78878">
        <ele>433</ele>
        <time>2014-03-08T14:37:25.395Z</time>
      </trkpt>
      <trkpt lat="47.45952" lon="6.78898">
        <ele>433</ele>
        <time>2014-03-08T14:37:30.319Z</time>
      </trkpt>
      <trkpt lat="47.4596" lon="6.7892">
        <ele>433</ele>
        <time>2014-03-08T14:37:35.397Z</time>
      </trkpt>
      <trkpt lat="47.45967" lon="6.78941">
        <ele>434</ele>
        <time>2014-03-08T14:37:40.320Z</time>
      </trkpt>
      <trkpt lat="47.45974" lon="6.78963">
        <ele>435</ele>
        <time>2014-03-08T14:37:45.323Z</time>
      </trkpt>
      <trkpt lat="47.45982" lon="6.78985">
        <ele>435</ele>
        <time>2014-03-08T14:37:50.355Z</time>
      </trkpt>
      <trkpt lat="47.45987" lon="6.79006">
        <ele>437</ele>
        <time>2014-03-08T14:37:55.321Z</time>
      </trkpt>
      <trkpt lat="47.45987" lon="6.7909">
        <ele>442</ele>
        <time>2014-03-08T14:38:16.068Z</time>
      </trkpt>
      <trkpt lat="47.46017" lon="6.7911">
        <ele>443</ele>
        <time>2014-03-08T14:38:20.324Z</time>
      </trkpt>
      <trkpt lat="47.46023" lon="6.79128">
        <ele>443</ele>
        <time>2014-03-08T14:38:25.380Z</time>
      </trkpt>
      <trkpt lat="47.46028" lon="6.7915">
        <ele>443</ele>
        <time>2014-03-08T14:38:30.325Z</time>
      </trkpt>
      <trkpt lat="47.46035" lon="6.79171">
        <ele>444</ele>
        <time>2014-03-08T14:38:35.394Z</time>
      </trkpt>
      <trkpt lat="47.46041" lon="6.79193">
        <ele>444</ele>
        <time>2014-03-08T14:38:40.332Z</time>
      </trkpt>
      <trkpt lat="47.46045" lon="6.79215">
        <ele>446</ele>
        <time>2014-03-08T14:38:45.325Z</time>
      </trkpt>
      <trkpt lat="47.46049" lon="6.79239">
        <ele>447</ele>
        <time>2014-03-08T14:38:50.401Z</time>
      </trkpt>
      <trkpt lat="47.46054" lon="6.79263">
        <ele>447</ele>
        <time>2014-03-08T14:38:55.330Z</time>
      </trkpt>
      <trkpt lat="47.46062" lon="6.7931">
        <ele>448</ele>
        <time>2014-03-08T14:39:05.325Z</time>
      </trkpt>
      <trkpt lat="47.46065" lon="6.79333">
        <ele>449</ele>
        <time>2014-03-08T14:39:10.402Z</time>
      </trkpt>
      <trkpt lat="47.46068" lon="6.79354">
        <ele>449</ele>
        <time>2014-03-08T14:39:15.323Z</time>
      </trkpt>
      <trkpt lat="47.46069" lon="6.79372">
        <ele>449</ele>
        <time>2014-03-08T14:39:20.397Z</time>
      </trkpt>
      <trkpt lat="47.46069" lon="6.7938">
        <ele>450</ele>
        <time>2014-03-08T14:39:25.328Z</time>
      </trkpt>
      <trkpt lat="47.46071" lon="6.79385">
        <ele>449</ele>
        <time>2014-03-08T14:39:30.362Z</time>
      </trkpt>
      <trkpt lat="47.4607" lon="6.79391">
        <ele>450</ele>
        <time>2014-03-08T14:39:35.327Z</time>
      </trkpt>
      <trkpt lat="47.4607" lon="6.79403">
        <ele>451</ele>
        <time>2014-03-08T14:39:40.395Z</time>
      </trkpt>
      <trkpt lat="47.46069" lon="6.79421">
        <ele>450</ele>
        <time>2014-03-08T14:39:45.333Z</time>
      </trkpt>
      <trkpt lat="47.46069" lon="6.79433">
        <ele>450</ele>
        <time>2014-03-08T14:39:50.324Z</time>
      </trkpt>
      <trkpt lat="47.46068" lon="6.79439">
        <ele>449</ele>
        <time>2014-03-08T14:39:55.396Z</time>
      </trkpt>
      <trkpt lat="47.46068" lon="6.79444">
        <ele>449</ele>
        <time>2014-03-08T14:40:00.321Z</time>
      </trkpt>
      <trkpt lat="47.46067" lon="6.7945">
        <ele>447</ele>
        <time>2014-03-08T14:40:05.395Z</time>
      </trkpt>
      <trkpt lat="47.46066" lon="6.7946">
        <ele>446</ele>
        <time>2014-03-08T14:40:10.323Z</time>
      </trkpt>
      <trkpt lat="47.46064" lon="6.79481">
        <ele>445</ele>
        <time>2014-03-08T14:40:15.396Z</time>
      </trkpt>
      <trkpt lat="47.4606" lon="6.79508">
        <ele>444</ele>
        <time>2014-03-08T14:40:20.320Z</time>
      </trkpt>
      <trkpt lat="47.46055" lon="6.79539">
        <ele>444</ele>
        <time>2014-03-08T14:40:25.395Z</time>
      </trkpt>
      <trkpt lat="47.4605" lon="6.79571">
        <ele>444</ele>
        <time>2014-03-08T14:40:30.320Z</time>
      </trkpt>
      <trkpt lat="47.46047" lon="6.79602">
        <ele>445</ele>
        <time>2014-03-08T14:40:35.398Z</time>
      </trkpt>
      <trkpt lat="47.4604" lon="6.79634">
        <ele>445</ele>
        <time>2014-03-08T14:40:40.325Z</time>
      </trkpt>
      <trkpt lat="47.46038" lon="6.79661">
        <ele>445</ele>
        <time>2014-03-08T14:40:45.400Z</time>
      </trkpt>
      <trkpt lat="47.46039" lon="6.79674">
        <ele>447</ele>
        <time>2014-03-08T14:40:50.328Z</time>
      </trkpt>
      <trkpt lat="47.4604" lon="6.79682">
        <ele>447</ele>
        <time>2014-03-08T14:40:55.396Z</time>
      </trkpt>
      <trkpt lat="47.46041" lon="6.79686">
        <ele>448</ele>
        <time>2014-03-08T14:41:00.319Z</time>
      </trkpt>
      <trkpt lat="47.46043" lon="6.79687">
        <ele>448</ele>
        <time>2014-03-08T14:41:05.382Z</time>
      </trkpt>
      <trkpt lat="47.46043" lon="6.79688">
        <ele>447</ele>
        <time>2014-03-08T14:41:10.322Z</time>
      </trkpt>
      <trkpt lat="47.46042" lon="6.79689">
        <ele>448</ele>
        <time>2014-03-08T14:41:15.394Z</time>
      </trkpt>
      <trkpt lat="47.46042" lon="6.79689">
        <ele>448</ele>
        <time>2014-03-08T14:41:20.327Z</time>
      </trkpt>
      <trkpt lat="47.46041" lon="6.79688">
        <ele>448</ele>
        <time>2014-03-08T14:41:25.395Z</time>
      </trkpt>
      <trkpt lat="47.46042" lon="6.79688">
        <ele>448</ele>
        <time>2014-03-08T14:41:30.316Z</time>
      </trkpt>
      <trkpt lat="47.46041" lon="6.7969">
        <ele>448</ele>
        <time>2014-03-08T14:41:35.382Z</time>
      </trkpt>
      <trkpt lat="47.4604" lon="6.79704">
        <ele>448</ele>
        <time>2014-03-08T14:41:40.317Z</time>
      </trkpt>
      <trkpt lat="47.46042" lon="6.79726">
        <ele>449</ele>
        <time>2014-03-08T14:41:45.398Z</time>
      </trkpt>
      <trkpt lat="47.46042" lon="6.79752">
        <ele>450</ele>
        <time>2014-03-08T14:41:50.322Z</time>
      </trkpt>
      <trkpt lat="47.46009" lon="6.79831">
        <ele>454</ele>
        <time>2014-03-08T14:42:15.395Z</time>
      </trkpt>
      <trkpt lat="47.46003" lon="6.79842">
        <ele>455</ele>
        <time>2014-03-08T14:42:20.324Z</time>
      </trkpt>
      <trkpt lat="47.46" lon="6.79848">
        <ele>456</ele>
        <time>2014-03-08T14:42:25.378Z</time>
      </trkpt>
      <trkpt lat="47.45997" lon="6.79853">
        <ele>457</ele>
        <time>2014-03-08T14:42:30.329Z</time>
      </trkpt>
      <trkpt lat="47.45995" lon="6.79862">
        <ele>457</ele>
        <time>2014-03-08T14:42:35.401Z</time>
      </trkpt>
      <trkpt lat="47.45994" lon="6.79872">
        <ele>457</ele>
        <time>2014-03-08T14:42:40.317Z</time>
      </trkpt>
      <trkpt lat="47.45993" lon="6.79881">
        <ele>458</ele>
        <time>2014-03-08T14:42:45.397Z</time>
      </trkpt>
      <trkpt lat="47.45991" lon="6.79889">
        <ele>458</ele>
        <time>2014-03-08T14:42:50.327Z</time>
      </trkpt>
      <trkpt lat="47.45991" lon="6.79903">
        <ele>458</ele>
        <time>2014-03-08T14:42:55.395Z</time>
      </trkpt>
      <trkpt lat="47.45991" lon="6.79919">
        <ele>458</ele>
        <time>2014-03-08T14:43:00.325Z</time>
      </trkpt>
      <trkpt lat="47.45991" lon="6.79934">
        <ele>458</ele>
        <time>2014-03-08T14:43:05.354Z</time>
      </trkpt>
      <trkpt lat="47.4599" lon="6.7995">
        <ele>458</ele>
        <time>2014-03-08T14:43:10.317Z</time>
      </trkpt>
      <trkpt lat="47.45991" lon="6.79964">
        <ele>460</ele>
        <time>2014-03-08T14:43:15.393Z</time>
      </trkpt>
      <trkpt lat="47.45991" lon="6.79978">
        <ele>461</ele>
        <time>2014-03-08T14:43:20.322Z</time>
      </trkpt>
      <trkpt lat="47.45992" lon="6.79996">
        <ele>461</ele>
        <time>2014-03-08T14:43:25.397Z</time>
      </trkpt>
      <trkpt lat="47.45993" lon="6.8001">
        <ele>462</ele>
        <time>2014-03-08T14:43:30.324Z</time>
      </trkpt>
      <trkpt lat="47.45993" lon="6.80028">
        <ele>462</ele>
        <time>2014-03-08T14:43:35.370Z</time>
      </trkpt>
      <trkpt lat="47.45994" lon="6.80043">
        <ele>463</ele>
        <time>2014-03-08T14:43:40.325Z</time>
      </trkpt>
      <trkpt lat="47.45996" lon="6.80074">
        <ele>466</ele>
        <time>2014-03-08T14:43:50.313Z</time>
      </trkpt>
      <trkpt lat="47.45997" lon="6.80089">
        <ele>467</ele>
        <time>2014-03-08T14:43:55.331Z</time>
      </trkpt>
      <trkpt lat="47.45999" lon="6.80097">
        <ele>467</ele>
        <time>2014-03-08T14:44:00.325Z</time>
      </trkpt>
      <trkpt lat="47.46001" lon="6.80101">
        <ele>465</ele>
        <time>2014-03-08T14:44:05.400Z</time>
      </trkpt>
      <trkpt lat="47.46001" lon="6.80112">
        <ele>464</ele>
        <time>2014-03-08T14:44:10.319Z</time>
      </trkpt>
      <trkpt lat="47.46002" lon="6.80126">
        <ele>464</ele>
        <time>2014-03-08T14:44:15.397Z</time>
      </trkpt>
      <trkpt lat="47.46003" lon="6.80144">
        <ele>465</ele>
        <time>2014-03-08T14:44:20.323Z</time>
      </trkpt>
      <trkpt lat="47.46006" lon="6.80161">
        <ele>465</ele>
        <time>2014-03-08T14:44:25.392Z</time>
      </trkpt>
      <trkpt lat="47.46008" lon="6.80177">
        <ele>465</ele>
        <time>2014-03-08T14:44:30.321Z</time>
      </trkpt>
      <trkpt lat="47.46012" lon="6.80192">
        <ele>466</ele>
        <time>2014-03-08T14:44:35.393Z</time>
      </trkpt>
      <trkpt lat="47.46015" lon="6.80213">
        <ele>466</ele>
        <time>2014-03-08T14:44:40.323Z</time>
      </trkpt>
      <trkpt lat="47.46016" lon="6.80239">
        <ele>465</ele>
        <time>2014-03-08T14:44:45.385Z</time>
      </trkpt>
      <trkpt lat="47.46021" lon="6.80268">
        <ele>465</ele>
        <time>2014-03-08T14:44:50.330Z</time>
      </trkpt>
      <trkpt lat="47.46027" lon="6.80303">
        <ele>465</ele>
        <time>2014-03-08T14:44:55.399Z</time>
      </trkpt>
      <trkpt lat="47.46035" lon="6.80338">
        <ele>463</ele>
        <time>2014-03-08T14:45:00.314Z</time>
      </trkpt>
      <trkpt lat="47.46035" lon="6.80361">
        <ele>463</ele>
        <time>2014-03-08T14:45:05.397Z</time>
      </trkpt>
      <trkpt lat="47.46038" lon="6.80375">
        <ele>464</ele>
        <time>2014-03-08T14:45:10.322Z</time>
      </trkpt>
      <trkpt lat="47.46044" lon="6.80387">
        <ele>462</ele>
        <time>2014-03-08T14:45:15.367Z</time>
      </trkpt>
      <trkpt lat="47.46049" lon="6.80401">
        <ele>462</ele>
        <time>2014-03-08T14:45:20.326Z</time>
      </trkpt>
      <trkpt lat="47.46053" lon="6.80438">
        <ele>461</ele>
        <time>2014-03-08T14:45:25.319Z</time>
      </trkpt>
      <trkpt lat="47.46046" lon="6.80476">
        <ele>460</ele>
        <time>2014-03-08T14:45:30.395Z</time>
      </trkpt>
      <trkpt lat="47.46035" lon="6.80507">
        <ele>459</ele>
        <time>2014-03-08T14:45:35.321Z</time>
      </trkpt>
      <trkpt lat="47.46031" lon="6.80537">
        <ele>459</ele>
        <time>2014-03-08T14:45:40.391Z</time>
      </trkpt>
      <trkpt lat="47.46024" lon="6.80571">
        <ele>458</ele>
        <time>2014-03-08T14:45:45.327Z</time>
      </trkpt>
      <trkpt lat="47.46016" lon="6.80599">
        <ele>457</ele>
        <time>2014-03-08T14:45:50.394Z</time>
      </trkpt>
      <trkpt lat="47.46012" lon="6.80621">
        <ele>454</ele>
        <time>2014-03-08T14:45:55.336Z</time>
      </trkpt>
      <trkpt lat="47.46007" lon="6.80636">
        <ele>453</ele>
        <time>2014-03-08T14:46:00.499Z</time>
      </trkpt>
      <trkpt lat="47.46004" lon="6.8065">
        <ele>452</ele>
        <time>2014-03-08T14:46:05.373Z</time>
      </trkpt>
      <trkpt lat="47.45996" lon="6.80669">
        <ele>452</ele>
        <time>2014-03-08T14:46:10.321Z</time>
      </trkpt>
      <trkpt lat="47.45981" lon="6.80686">
        <ele>451</ele>
        <time>2014-03-08T14:46:15.373Z</time>
      </trkpt>
      <trkpt lat="47.45975" lon="6.807">
        <ele>450</ele>
        <time>2014-03-08T14:46:20.320Z</time>
      </trkpt>
      <trkpt lat="47.45973" lon="6.80704">
        <ele>451</ele>
        <time>2014-03-08T14:46:25.396Z</time>
      </trkpt>
      <trkpt lat="47.45972" lon="6.80709">
        <ele>450</ele>
        <time>2014-03-08T14:46:30.325Z</time>
      </trkpt>
      <trkpt lat="47.45966" lon="6.80726">
        <ele>450</ele>
        <time>2014-03-08T14:46:35.365Z</time>
      </trkpt>
      <trkpt lat="47.45966" lon="6.8074">
        <ele>449</ele>
        <time>2014-03-08T14:46:40.327Z</time>
      </trkpt>
      <trkpt lat="47.4597" lon="6.80753">
        <ele>449</ele>
        <time>2014-03-08T14:46:45.396Z</time>
      </trkpt>
      <trkpt lat="47.45975" lon="6.80763">
        <ele>450</ele>
        <time>2014-03-08T14:46:50.327Z</time>
      </trkpt>
      <trkpt lat="47.45978" lon="6.80774">
        <ele>450</ele>
        <time>2014-03-08T14:46:55.362Z</time>
      </trkpt>
      <trkpt lat="47.45977" lon="6.80787">
        <ele>448</ele>
        <time>2014-03-08T14:47:00.318Z</time>
      </trkpt>
      <trkpt lat="47.45972" lon="6.80805">
        <ele>447</ele>
        <time>2014-03-08T14:47:05.367Z</time>
      </trkpt>
      <trkpt lat="47.45969" lon="6.80823">
        <ele>446</ele>
        <time>2014-03-08T14:47:10.396Z</time>
      </trkpt>
      <trkpt lat="47.45969" lon="6.80838">
        <ele>446</ele>
        <time>2014-03-08T14:47:15.330Z</time>
      </trkpt>
      <trkpt lat="47.45969" lon="6.80852">
        <ele>444</ele>
        <time>2014-03-08T14:47:20.394Z</time>
      </trkpt>
      <trkpt lat="47.45968" lon="6.80868">
        <ele>443</ele>
        <time>2014-03-08T14:47:25.332Z</time>
      </trkpt>
      <trkpt lat="47.45971" lon="6.80886">
        <ele>443</ele>
        <time>2014-03-08T14:47:30.389Z</time>
      </trkpt>
      <trkpt lat="47.45971" lon="6.80901">
        <ele>443</ele>
        <time>2014-03-08T14:47:35.322Z</time>
      </trkpt>
      <trkpt lat="47.45974" lon="6.80912">
        <ele>445</ele>
        <time>2014-03-08T14:47:40.394Z</time>
      </trkpt>
      <trkpt lat="47.45974" lon="6.80922">
        <ele>444</ele>
        <time>2014-03-08T14:47:45.328Z</time>
      </trkpt>
      <trkpt lat="47.4597" lon="6.80931">
        <ele>445</ele>
        <time>2014-03-08T14:47:50.387Z</time>
      </trkpt>
      <trkpt lat="47.45966" lon="6.80949">
        <ele>445</ele>
        <time>2014-03-08T14:47:55.312Z</time>
      </trkpt>
      <trkpt lat="47.45961" lon="6.80963">
        <ele>445</ele>
        <time>2014-03-08T14:48:04.837Z</time>
      </trkpt>
      <trkpt lat="47.45959" lon="6.80975">
        <ele>443</ele>
        <time>2014-03-08T14:48:05.367Z</time>
      </trkpt>
      <trkpt lat="47.45957" lon="6.80989">
        <ele>441</ele>
        <time>2014-03-08T14:48:10.282Z</time>
      </trkpt>
      <trkpt lat="47.4595" lon="6.81">
        <ele>441</ele>
        <time>2014-03-08T14:48:15.394Z</time>
      </trkpt>
      <trkpt lat="47.45948" lon="6.81004">
        <ele>442</ele>
        <time>2014-03-08T14:48:20.313Z</time>
      </trkpt>
      <trkpt lat="47.45948" lon="6.81007">
        <ele>444</ele>
        <time>2014-03-08T14:48:25.366Z</time>
      </trkpt>
      <trkpt lat="47.45953" lon="6.81011">
        <ele>445</ele>
        <time>2014-03-08T14:48:30.315Z</time>
      </trkpt>
      <trkpt lat="47.45957" lon="6.81016">
        <ele>443</ele>
        <time>2014-03-08T14:48:35.357Z</time>
      </trkpt>
      <trkpt lat="47.45961" lon="6.81019">
        <ele>444</ele>
        <time>2014-03-08T14:48:40.323Z</time>
      </trkpt>
      <trkpt lat="47.45966" lon="6.81024">
        <ele>445</ele>
        <time>2014-03-08T14:48:45.375Z</time>
      </trkpt>
      <trkpt lat="47.4597" lon="6.8103">
        <ele>445</ele>
        <time>2014-03-08T14:48:50.291Z</time>
      </trkpt>
      <trkpt lat="47.45982" lon="6.81043">
        <ele>445</ele>
        <time>2014-03-08T14:49:00.351Z</time>
      </trkpt>
      <trkpt lat="47.45987" lon="6.8105">
        <ele>445</ele>
        <time>2014-03-08T14:49:05.632Z</time>
      </trkpt>
      <trkpt lat="47.45995" lon="6.81055">
        <ele>444</ele>
        <time>2014-03-08T14:49:10.363Z</time>
      </trkpt>
      <trkpt lat="47.46" lon="6.81061">
        <ele>444</ele>
        <time>2014-03-08T14:49:15.324Z</time>
      </trkpt>
      <trkpt lat="47.46005" lon="6.81067">
        <ele>444</ele>
        <time>2014-03-08T14:49:20.395Z</time>
      </trkpt>
      <trkpt lat="47.46012" lon="6.81071">
        <ele>444</ele>
        <time>2014-03-08T14:49:25.319Z</time>
      </trkpt>
      <trkpt lat="47.46017" lon="6.81075">
        <ele>446</ele>
        <time>2014-03-08T14:49:30.383Z</time>
      </trkpt>
      <trkpt lat="47.46024" lon="6.81079">
        <ele>447</ele>
        <time>2014-03-08T14:49:35.324Z</time>
      </trkpt>
      <trkpt lat="47.46029" lon="6.81084">
        <ele>448</ele>
        <time>2014-03-08T14:49:40.392Z</time>
      </trkpt>
      <trkpt lat="47.46034" lon="6.81091">
        <ele>450</ele>
        <time>2014-03-08T14:49:45.326Z</time>
      </trkpt>
      <trkpt lat="47.4604" lon="6.81097">
        <ele>451</ele>
        <time>2014-03-08T14:49:50.352Z</time>
      </trkpt>
      <trkpt lat="47.46047" lon="6.81103">
        <ele>453</ele>
        <time>2014-03-08T14:49:55.324Z</time>
      </trkpt>
      <trkpt lat="47.46062" lon="6.81111">
        <ele>455</ele>
        <time>2014-03-08T14:50:05.923Z</time>
      </trkpt>
      <trkpt lat="47.46069" lon="6.81116">
        <ele>456</ele>
        <time>2014-03-08T14:50:10.392Z</time>
      </trkpt>
      <trkpt lat="47.46076" lon="6.81121">
        <ele>457</ele>
        <time>2014-03-08T14:50:15.321Z</time>
      </trkpt>
      <trkpt lat="47.46082" lon="6.81126">
        <ele>458</ele>
        <time>2014-03-08T14:50:20.397Z</time>
      </trkpt>
      <trkpt lat="47.46089" lon="6.81129">
        <ele>458</ele>
        <time>2014-03-08T14:50:25.317Z</time>
      </trkpt>
      <trkpt lat="47.46094" lon="6.81136">
        <ele>459</ele>
        <time>2014-03-08T14:50:30.355Z</time>
      </trkpt>
      <trkpt lat="47.46103" lon="6.81143">
        <ele>459</ele>
        <time>2014-03-08T14:50:35.319Z</time>
      </trkpt>
      <trkpt lat="47.46111" lon="6.81148">
        <ele>459</ele>
        <time>2014-03-08T14:50:40.393Z</time>
      </trkpt>
      <trkpt lat="47.46125" lon="6.8116">
        <ele>461</ele>
        <time>2014-03-08T14:50:50.393Z</time>
      </trkpt>
      <trkpt lat="47.46131" lon="6.81165">
        <ele>462</ele>
        <time>2014-03-08T14:50:55.327Z</time>
      </trkpt>
      <trkpt lat="47.46137" lon="6.8117">
        <ele>463</ele>
        <time>2014-03-08T14:51:00.392Z</time>
      </trkpt>
      <trkpt lat="47.46142" lon="6.81174">
        <ele>463</ele>
        <time>2014-03-08T14:51:05.325Z</time>
      </trkpt>
      <trkpt lat="47.46148" lon="6.81177">
        <ele>463</ele>
        <time>2014-03-08T14:51:10.398Z</time>
      </trkpt>
      <trkpt lat="47.46154" lon="6.81179">
        <ele>464</ele>
        <time>2014-03-08T14:51:15.316Z</time>
      </trkpt>
      <trkpt lat="47.46161" lon="6.81182">
        <ele>466</ele>
        <time>2014-03-08T14:51:20.317Z</time>
      </trkpt>
      <trkpt lat="47.46167" lon="6.81187">
        <ele>467</ele>
        <time>2014-03-08T14:51:25.365Z</time>
      </trkpt>
      <trkpt lat="47.46173" lon="6.81191">
        <ele>468</ele>
        <time>2014-03-08T14:51:30.316Z</time>
      </trkpt>
      <trkpt lat="47.46178" lon="6.81197">
        <ele>469</ele>
        <time>2014-03-08T14:51:35.367Z</time>
      </trkpt>
      <trkpt lat="47.46185" lon="6.81202">
        <ele>469</ele>
        <time>2014-03-08T14:51:40.322Z</time>
      </trkpt>
      <trkpt lat="47.46192" lon="6.81206">
        <ele>470</ele>
        <time>2014-03-08T14:51:45.395Z</time>
      </trkpt>
      <trkpt lat="47.46199" lon="6.81211">
        <ele>473</ele>
        <time>2014-03-08T14:51:50.322Z</time>
      </trkpt>
      <trkpt lat="47.46208" lon="6.81216">
        <ele>474</ele>
        <time>2014-03-08T14:51:55.357Z</time>
      </trkpt>
      <trkpt lat="47.46218" lon="6.8122">
        <ele>475</ele>
        <time>2014-03-08T14:52:00.326Z</time>
      </trkpt>
      <trkpt lat="47.46227" lon="6.81228">
        <ele>475</ele>
        <time>2014-03-08T14:52:05.357Z</time>
      </trkpt>
      <trkpt lat="47.46238" lon="6.81236">
        <ele>475</ele>
        <time>2014-03-08T14:52:10.326Z</time>
      </trkpt>
      <trkpt lat="47.46246" lon="6.8124">
        <ele>476</ele>
        <time>2014-03-08T14:52:15.400Z</time>
      </trkpt>
      <trkpt lat="47.46251" lon="6.81244">
        <ele>476</ele>
        <time>2014-03-08T14:52:20.382Z</time>
      </trkpt>
      <trkpt lat="47.46256" lon="6.81248">
        <ele>476</ele>
        <time>2014-03-08T14:52:25.291Z</time>
      </trkpt>
      <trkpt lat="47.4626" lon="6.81252">
        <ele>475</ele>
        <time>2014-03-08T14:52:30.394Z</time>
      </trkpt>
      <trkpt lat="47.46261" lon="6.81249">
        <ele>476</ele>
        <time>2014-03-08T14:52:35.324Z</time>
      </trkpt>
      <trkpt lat="47.46261" lon="6.81249">
        <ele>476</ele>
        <time>2014-03-08T14:52:40.386Z</time>
      </trkpt>
      <trkpt lat="47.46261" lon="6.81249">
        <ele>476</ele>
        <time>2014-03-08T14:52:45.323Z</time>
      </trkpt>
      <trkpt lat="47.46261" lon="6.81249">
        <ele>476</ele>
        <time>2014-03-08T14:52:50.394Z</time>
      </trkpt>
      <trkpt lat="47.46261" lon="6.81248">
        <ele>476</ele>
        <time>2014-03-08T14:52:55.327Z</time>
      </trkpt>
      <trkpt lat="47.46261" lon="6.81248">
        <ele>476</ele>
        <time>2014-03-08T14:53:00.374Z</time>
      </trkpt>
      <trkpt lat="47.46261" lon="6.81248">
        <ele>476</ele>
        <time>2014-03-08T14:53:05.321Z</time>
      </trkpt>
      <trkpt lat="47.46261" lon="6.81248">
        <ele>476</ele>
        <time>2014-03-08T14:53:10.393Z</time>
      </trkpt>
      <trkpt lat="47.46261" lon="6.81248">
        <ele>476</ele>
        <time>2014-03-08T14:53:15.322Z</time>
      </trkpt>
      <trkpt lat="47.46261" lon="6.81247">
        <ele>477</ele>
        <time>2014-03-08T14:53:20.326Z</time>
      </trkpt>
      <trkpt lat="47.46261" lon="6.81247">
        <ele>477</ele>
        <time>2014-03-08T14:53:25.326Z</time>
      </trkpt>
      <trkpt lat="47.46261" lon="6.81249">
        <ele>476</ele>
        <time>2014-03-08T14:53:30.390Z</time>
      </trkpt>
      <trkpt lat="47.46261" lon="6.81249">
        <ele>476</ele>
        <time>2014-03-08T14:53:35.321Z</time>
      </trkpt>
      <trkpt lat="47.46261" lon="6.81249">
        <ele>476</ele>
        <time>2014-03-08T14:53:40.361Z</time>
      </trkpt>
      <trkpt lat="47.46261" lon="6.81249">
        <ele>476</ele>
        <time>2014-03-08T14:53:45.328Z</time>
      </trkpt>
      <trkpt lat="47.46261" lon="6.81249">
        <ele>476</ele>
        <time>2014-03-08T14:53:50.395Z</time>
      </trkpt>
      <trkpt lat="47.46261" lon="6.81249">
        <ele>476</ele>
        <time>2014-03-08T14:53:55.328Z</time>
      </trkpt>
      <trkpt lat="47.46262" lon="6.81248">
        <ele>478</ele>
        <time>2014-03-08T14:54:20.395Z</time>
      </trkpt>
      <trkpt lat="47.46263" lon="6.81247">
        <ele>478</ele>
        <time>2014-03-08T14:54:25.310Z</time>
      </trkpt>
      <trkpt lat="47.46263" lon="6.81247">
        <ele>478</ele>
        <time>2014-03-08T14:54:30.393Z</time>
      </trkpt>
      <trkpt lat="47.46263" lon="6.81247">
        <ele>479</ele>
        <time>2014-03-08T14:54:35.312Z</time>
      </trkpt>
      <trkpt lat="47.46263" lon="6.81247">
        <ele>479</ele>
        <time>2014-03-08T14:54:40.390Z</time>
      </trkpt>
      <trkpt lat="47.46263" lon="6.81247">
        <ele>479</ele>
        <time>2014-03-08T14:54:45.312Z</time>
      </trkpt>
      <trkpt lat="47.46263" lon="6.81247">
        <ele>479</ele>
        <time>2014-03-08T14:54:50.393Z</time>
      </trkpt>
      <trkpt lat="47.46262" lon="6.81247">
        <ele>479</ele>
        <time>2014-03-08T14:54:55.325Z</time>
      </trkpt>
      <trkpt lat="47.46262" lon="6.81247">
        <ele>479</ele>
        <time>2014-03-08T14:55:00.396Z</time>
      </trkpt>
      <trkpt lat="47.46262" lon="6.81247">
        <ele>478</ele>
        <time>2014-03-08T14:55:05.318Z</time>
      </trkpt>
      <trkpt lat="47.46263" lon="6.81247">
        <ele>478</ele>
        <time>2014-03-08T14:55:10.394Z</time>
      </trkpt>
      <trkpt lat="47.46262" lon="6.81248">
        <ele>479</ele>
        <time>2014-03-08T14:55:15.326Z</time>
      </trkpt>
      <trkpt lat="47.46265" lon="6.81248">
        <ele>478</ele>
        <time>2014-03-08T14:55:20.393Z</time>
      </trkpt>
      <trkpt lat="47.46266" lon="6.81249">
        <ele>478</ele>
        <time>2014-03-08T14:55:25.292Z</time>
      </trkpt>
      <trkpt lat="47.46266" lon="6.8125">
        <ele>478</ele>
        <time>2014-03-08T14:55:30.392Z</time>
      </trkpt>
      <trkpt lat="47.46266" lon="6.8125">
        <ele>478</ele>
        <time>2014-03-08T14:55:35.326Z</time>
      </trkpt>
      <trkpt lat="47.46267" lon="6.81251">
        <ele>478</ele>
        <time>2014-03-08T14:55:40.396Z</time>
      </trkpt>
      <trkpt lat="47.46267" lon="6.81251">
        <ele>478</ele>
        <time>2014-03-08T14:55:45.329Z</time>
      </trkpt>
      <trkpt lat="47.46267" lon="6.81251">
        <ele>479</ele>
        <time>2014-03-08T14:55:50.383Z</time>
      </trkpt>
      <trkpt lat="47.46268" lon="6.81252">
        <ele>479</ele>
        <time>2014-03-08T14:55:55.318Z</time>
      </trkpt>
      <trkpt lat="47.46269" lon="6.81253">
        <ele>479</ele>
        <time>2014-03-08T14:56:00.396Z</time>
      </trkpt>
      <trkpt lat="47.46269" lon="6.81253">
        <ele>479</ele>
        <time>2014-03-08T14:56:05.318Z</time>
      </trkpt>
      <trkpt lat="47.46269" lon="6.81253">
        <ele>479</ele>
        <time>2014-03-08T14:56:10.392Z</time>
      </trkpt>
      <trkpt lat="47.46269" lon="6.81253">
        <ele>479</ele>
        <time>2014-03-08T14:56:15.323Z</time>
      </trkpt>
      <trkpt lat="47.46269" lon="6.81253">
        <ele>479</ele>
        <time>2014-03-08T14:56:20.399Z</time>
      </trkpt>
      <trkpt lat="47.46269" lon="6.81253">
        <ele>479</ele>
        <time>2014-03-08T14:56:25.319Z</time>
      </trkpt>
      <trkpt lat="47.46269" lon="6.81253">
        <ele>479</ele>
        <time>2014-03-08T14:56:30.396Z</time>
      </trkpt>
      <trkpt lat="47.46269" lon="6.81253">
        <ele>479</ele>
        <time>2014-03-08T14:56:35.318Z</time>
      </trkpt>
      <trkpt lat="47.46269" lon="6.81253">
        <ele>479</ele>
        <time>2014-03-08T14:56:40.391Z</time>
      </trkpt>
      <trkpt lat="47.46269" lon="6.81253">
        <ele>479</ele>
        <time>2014-03-08T14:56:45.324Z</time>
      </trkpt>
      <trkpt lat="47.46269" lon="6.81253">
        <ele>479</ele>
        <time>2014-03-08T14:56:50.378Z</time>
      </trkpt>
      <trkpt lat="47.46266" lon="6.81252">
        <ele>476</ele>
        <time>2014-03-08T14:56:55.317Z</time>
      </trkpt>
      <trkpt lat="47.46265" lon="6.81252">
        <ele>476</ele>
        <time>2014-03-08T14:57:04.852Z</time>
      </trkpt>
      <trkpt lat="47.46265" lon="6.81252">
        <ele>476</ele>
        <time>2014-03-08T14:57:05.318Z</time>
      </trkpt>
      <trkpt lat="47.46265" lon="6.81252">
        <ele>476</ele>
        <time>2014-03-08T14:57:10.394Z</time>
      </trkpt>
      <trkpt lat="47.46265" lon="6.81252">
        <ele>476</ele>
        <time>2014-03-08T14:57:15.317Z</time>
      </trkpt>
      <trkpt lat="47.46264" lon="6.81252">
        <ele>477</ele>
        <time>2014-03-08T14:57:20.391Z</time>
      </trkpt>
      <trkpt lat="47.46264" lon="6.81252">
        <ele>476</ele>
        <time>2014-03-08T14:57:25.327Z</time>
      </trkpt>
      <trkpt lat="47.46264" lon="6.81253">
        <ele>476</ele>
        <time>2014-03-08T14:57:30.369Z</time>
      </trkpt>
      <trkpt lat="47.46263" lon="6.81253">
        <ele>477</ele>
        <time>2014-03-08T14:57:35.326Z</time>
      </trkpt>
      <trkpt lat="47.46263" lon="6.81253">
        <ele>477</ele>
        <time>2014-03-08T14:57:40.371Z</time>
      </trkpt>
      <trkpt lat="47.46264" lon="6.81254">
        <ele>477</ele>
        <time>2014-03-08T14:57:45.290Z</time>
      </trkpt>
      <trkpt lat="47.46267" lon="6.81255">
        <ele>478</ele>
        <time>2014-03-08T14:57:55.331Z</time>
      </trkpt>
      <trkpt lat="47.46267" lon="6.81272">
        <ele>477</ele>
        <time>2014-03-08T14:58:16.188Z</time>
      </trkpt>
      <trkpt lat="47.46303" lon="6.81283">
        <ele>476</ele>
        <time>2014-03-08T14:58:20.328Z</time>
      </trkpt>
      <trkpt lat="47.46325" lon="6.81302">
        <ele>475</ele>
        <time>2014-03-08T14:58:25.411Z</time>
      </trkpt>
      <trkpt lat="47.4635" lon="6.81321">
        <ele>474</ele>
        <time>2014-03-08T14:58:30.329Z</time>
      </trkpt>
      <trkpt lat="47.46376" lon="6.81346">
        <ele>473</ele>
        <time>2014-03-08T14:58:35.350Z</time>
      </trkpt>
      <trkpt lat="47.46407" lon="6.81367">
        <ele>470</ele>
        <time>2014-03-08T14:58:40.328Z</time>
      </trkpt>
      <trkpt lat="47.46437" lon="6.81394">
        <ele>468</ele>
        <time>2014-03-08T14:58:45.396Z</time>
      </trkpt>
      <trkpt lat="47.46472" lon="6.8142">
        <ele>464</ele>
        <time>2014-03-08T14:58:50.330Z</time>
      </trkpt>
      <trkpt lat="47.46512" lon="6.81433">
        <ele>461</ele>
        <time>2014-03-08T14:58:55.395Z</time>
      </trkpt>
      <trkpt lat="47.4655" lon="6.81448">
        <ele>457</ele>
        <time>2014-03-08T14:59:00.371Z</time>
      </trkpt>
      <trkpt lat="47.46584" lon="6.81457">
        <ele>454</ele>
        <time>2014-03-08T14:59:05.401Z</time>
      </trkpt>
      <trkpt lat="47.46617" lon="6.81467">
        <ele>451</ele>
        <time>2014-03-08T14:59:10.318Z</time>
      </trkpt>
      <trkpt lat="47.46651" lon="6.81456">
        <ele>448</ele>
        <time>2014-03-08T14:59:15.398Z</time>
      </trkpt>
      <trkpt lat="47.46676" lon="6.81471">
        <ele>446</ele>
        <time>2014-03-08T14:59:20.319Z</time>
      </trkpt>
      <trkpt lat="47.46695" lon="6.81486">
        <ele>445</ele>
        <time>2014-03-08T14:59:25.394Z</time>
      </trkpt>
      <trkpt lat="47.46706" lon="6.81498">
        <ele>445</ele>
        <time>2014-03-08T14:59:30.318Z</time>
      </trkpt>
      <trkpt lat="47.46717" lon="6.81509">
        <ele>445</ele>
        <time>2014-03-08T14:59:35.396Z</time>
      </trkpt>
      <trkpt lat="47.46729" lon="6.81525">
        <ele>444</ele>
        <time>2014-03-08T14:59:40.322Z</time>
      </trkpt>
      <trkpt lat="47.46728" lon="6.81547">
        <ele>444</ele>
        <time>2014-03-08T14:59:45.403Z</time>
      </trkpt>
      <trkpt lat="47.4672" lon="6.81571">
        <ele>445</ele>
        <time>2014-03-08T14:59:50.331Z</time>
      </trkpt>
      <trkpt lat="47.46711" lon="6.81591">
        <ele>445</ele>
        <time>2014-03-08T14:59:55.402Z</time>
      </trkpt>
      <trkpt lat="47.46705" lon="6.81614">
        <ele>446</ele>
        <time>2014-03-08T15:00:02.487Z</time>
      </trkpt>
      <trkpt lat="47.46701" lon="6.81633">
        <ele>446</ele>
        <time>2014-03-08T15:00:05.380Z</time>
      </trkpt>
      <trkpt lat="47.46695" lon="6.81654">
        <ele>446</ele>
        <time>2014-03-08T15:00:10.325Z</time>
      </trkpt>
      <trkpt lat="47.46689" lon="6.81679">
        <ele>445</ele>
        <time>2014-03-08T15:00:15.397Z</time>
      </trkpt>
      <trkpt lat="47.46682" lon="6.81701">
        <ele>446</ele>
        <time>2014-03-08T15:00:20.337Z</time>
      </trkpt>
      <trkpt lat="47.46676" lon="6.81723">
        <ele>446</ele>
        <time>2014-03-08T15:00:25.399Z</time>
      </trkpt>
      <trkpt lat="47.4667" lon="6.81745">
        <ele>447</ele>
        <time>2014-03-08T15:00:30.325Z</time>
      </trkpt>
      <trkpt lat="47.46663" lon="6.81768">
        <ele>447</ele>
        <time>2014-03-08T15:00:35.384Z</time>
      </trkpt>
      <trkpt lat="47.46656" lon="6.8179">
        <ele>448</ele>
        <time>2014-03-08T15:00:40.328Z</time>
      </trkpt>
      <trkpt lat="47.4665" lon="6.81813">
        <ele>448</ele>
        <time>2014-03-08T15:00:45.399Z</time>
      </trkpt>
      <trkpt lat="47.46642" lon="6.81835">
        <ele>448</ele>
        <time>2014-03-08T15:00:50.315Z</time>
      </trkpt>
      <trkpt lat="47.46632" lon="6.81857">
        <ele>449</ele>
        <time>2014-03-08T15:00:55.400Z</time>
      </trkpt>
      <trkpt lat="47.46621" lon="6.81879">
        <ele>449</ele>
        <time>2014-03-08T15:01:00.334Z</time>
      </trkpt>
      <trkpt lat="47.46609" lon="6.81904">
        <ele>448</ele>
        <time>2014-03-08T15:01:05.372Z</time>
      </trkpt>
      <trkpt lat="47.46597" lon="6.81929">
        <ele>448</ele>
        <time>2014-03-08T15:01:10.329Z</time>
      </trkpt>
      <trkpt lat="47.46585" lon="6.81956">
        <ele>447</ele>
        <time>2014-03-08T15:01:15.403Z</time>
      </trkpt>
      <trkpt lat="47.46569" lon="6.81987">
        <ele>446</ele>
        <time>2014-03-08T15:01:20.327Z</time>
      </trkpt>
      <trkpt lat="47.46579" lon="6.82018">
        <ele>446</ele>
        <time>2014-03-08T15:01:25.401Z</time>
      </trkpt>
      <trkpt lat="47.46602" lon="6.82036">
        <ele>447</ele>
        <time>2014-03-08T15:01:30.401Z</time>
      </trkpt>
      <trkpt lat="47.46623" lon="6.82053">
        <ele>448</ele>
        <time>2014-03-08T15:01:35.337Z</time>
      </trkpt>
      <trkpt lat="47.46641" lon="6.8206">
        <ele>450</ele>
        <time>2014-03-08T15:01:40.403Z</time>
      </trkpt>
      <trkpt lat="47.46657" lon="6.82062">
        <ele>451</ele>
        <time>2014-03-08T15:01:45.386Z</time>
      </trkpt>
      <trkpt lat="47.46671" lon="6.82059">
        <ele>452</ele>
        <time>2014-03-08T15:01:50.334Z</time>
      </trkpt>
      <trkpt lat="47.46683" lon="6.82049">
        <ele>454</ele>
        <time>2014-03-08T15:01:55.382Z</time>
      </trkpt>
      <trkpt lat="47.46691" lon="6.82044">
        <ele>456</ele>
        <time>2014-03-08T15:02:00.333Z</time>
      </trkpt>
      <trkpt lat="47.467" lon="6.82042">
        <ele>457</ele>
        <time>2014-03-08T15:02:05.401Z</time>
      </trkpt>
      <trkpt lat="47.46715" lon="6.82036">
        <ele>458</ele>
        <time>2014-03-08T15:02:10.323Z</time>
      </trkpt>
      <trkpt lat="47.46729" lon="6.82038">
        <ele>459</ele>
        <time>2014-03-08T15:02:15.395Z</time>
      </trkpt>
      <trkpt lat="47.46745" lon="6.82044">
        <ele>459</ele>
        <time>2014-03-08T15:02:20.331Z</time>
      </trkpt>
      <trkpt lat="47.46762" lon="6.82052">
        <ele>459</ele>
        <time>2014-03-08T15:02:25.401Z</time>
      </trkpt>
      <trkpt lat="47.46776" lon="6.82063">
        <ele>459</ele>
        <time>2014-03-08T15:02:30.334Z</time>
      </trkpt>
      <trkpt lat="47.4679" lon="6.82071">
        <ele>461</ele>
        <time>2014-03-08T15:02:35.396Z</time>
      </trkpt>
      <trkpt lat="47.46802" lon="6.82075">
        <ele>462</ele>
        <time>2014-03-08T15:02:40.334Z</time>
      </trkpt>
      <trkpt lat="47.4682" lon="6.82095">
        <ele>462</ele>
        <time>2014-03-08T15:02:45.384Z</time>
      </trkpt>
      <trkpt lat="47.46847" lon="6.8212">
        <ele>461</ele>
        <time>2014-03-08T15:02:50.328Z</time>
      </trkpt>
      <trkpt lat="47.46924" lon="6.82187">
        <ele>456</ele>
        <time>2014-03-08T15:03:02.442Z</time>
      </trkpt>
      <trkpt lat="47.46967" lon="6.82198">
        <ele>455</ele>
        <time>2014-03-08T15:03:05.394Z</time>
      </trkpt>
      <trkpt lat="47.47008" lon="6.82207">
        <ele>452</ele>
        <time>2014-03-08T15:03:10.311Z</time>
      </trkpt>
      <trkpt lat="47.47046" lon="6.82216">
        <ele>452</ele>
        <time>2014-03-08T15:03:15.392Z</time>
      </trkpt>
      <trkpt lat="47.47076" lon="6.82211">
        <ele>453</ele>
        <time>2014-03-08T15:03:20.327Z</time>
      </trkpt>
      <trkpt lat="47.47105" lon="6.82196">
        <ele>454</ele>
        <time>2014-03-08T15:03:25.396Z</time>
      </trkpt>
      <trkpt lat="47.47132" lon="6.82195">
        <ele>455</ele>
        <time>2014-03-08T15:03:30.322Z</time>
      </trkpt>
      <trkpt lat="47.47155" lon="6.82206">
        <ele>455</ele>
        <time>2014-03-08T15:03:35.397Z</time>
      </trkpt>
      <trkpt lat="47.4718" lon="6.82211">
        <ele>453</ele>
        <time>2014-03-08T15:03:40.323Z</time>
      </trkpt>
      <trkpt lat="47.47207" lon="6.82227">
        <ele>452</ele>
        <time>2014-03-08T15:03:45.386Z</time>
      </trkpt>
      <trkpt lat="47.47234" lon="6.82252">
        <ele>449</ele>
        <time>2014-03-08T15:03:50.338Z</time>
      </trkpt>
      <trkpt lat="47.47262" lon="6.82231">
        <ele>446</ele>
        <time>2014-03-08T15:03:55.395Z</time>
      </trkpt>
      <trkpt lat="47.47283" lon="6.82173">
        <ele>444</ele>
        <time>2014-03-08T15:04:00.316Z</time>
      </trkpt>
      <trkpt lat="47.47305" lon="6.82112">
        <ele>442</ele>
        <time>2014-03-08T15:04:05.364Z</time>
      </trkpt>
      <trkpt lat="47.47325" lon="6.82051">
        <ele>437</ele>
        <time>2014-03-08T15:04:10.328Z</time>
      </trkpt>
      <trkpt lat="47.47349" lon="6.82015">
        <ele>432</ele>
        <time>2014-03-08T15:04:15.367Z</time>
      </trkpt>
      <trkpt lat="47.4738" lon="6.82012">
        <ele>428</ele>
        <time>2014-03-08T15:04:20.324Z</time>
      </trkpt>
      <trkpt lat="47.47401" lon="6.82026">
        <ele>429</ele>
        <time>2014-03-08T15:04:25.397Z</time>
      </trkpt>
      <trkpt lat="47.47412" lon="6.82043">
        <ele>429</ele>
        <time>2014-03-08T15:04:30.329Z</time>
      </trkpt>
      <trkpt lat="47.47423" lon="6.8205">
        <ele>430</ele>
        <time>2014-03-08T15:04:35.401Z</time>
      </trkpt>
      <trkpt lat="47.47438" lon="6.82058">
        <ele>431</ele>
        <time>2014-03-08T15:04:40.292Z</time>
      </trkpt>
      <trkpt lat="47.4745" lon="6.8206">
        <ele>433</ele>
        <time>2014-03-08T15:04:45.401Z</time>
      </trkpt>
      <trkpt lat="47.47458" lon="6.8206">
        <ele>434</ele>
        <time>2014-03-08T15:04:50.320Z</time>
      </trkpt>
      <trkpt lat="47.47472" lon="6.82052">
        <ele>437</ele>
        <time>2014-03-08T15:04:55.399Z</time>
      </trkpt>
      <trkpt lat="47.47484" lon="6.82053">
        <ele>438</ele>
        <time>2014-03-08T15:05:00.300Z</time>
      </trkpt>
      <trkpt lat="47.47496" lon="6.82052">
        <ele>439</ele>
        <time>2014-03-08T15:05:05.404Z</time>
      </trkpt>
      <trkpt lat="47.47507" lon="6.82057">
        <ele>439</ele>
        <time>2014-03-08T15:05:10.323Z</time>
      </trkpt>
      <trkpt lat="47.4752" lon="6.82056">
        <ele>441</ele>
        <time>2014-03-08T15:05:15.398Z</time>
      </trkpt>
      <trkpt lat="47.47537" lon="6.82049">
        <ele>444</ele>
        <time>2014-03-08T15:05:20.332Z</time>
      </trkpt>
      <trkpt lat="47.47536" lon="6.82049">
        <ele>444</ele>
        <time>2014-03-08T15:05:25.370Z</time>
      </trkpt>
      <trkpt lat="47.47535" lon="6.8205">
        <ele>444</ele>
        <time>2014-03-08T15:05:30.320Z</time>
      </trkpt>
      <trkpt lat="47.47545" lon="6.82052">
        <ele>449</ele>
        <time>2014-03-08T15:05:35.337Z</time>
      </trkpt>
      <trkpt lat="47.47568" lon="6.82067">
        <ele>447</ele>
        <time>2014-03-08T15:05:40.313Z</time>
      </trkpt>
      <trkpt lat="47.47601" lon="6.82083">
        <ele>446</ele>
        <time>2014-03-08T15:05:45.399Z</time>
      </trkpt>
      <trkpt lat="47.47633" lon="6.82089">
        <ele>443</ele>
        <time>2014-03-08T15:05:50.329Z</time>
      </trkpt>
      <trkpt lat="47.47658" lon="6.82108">
        <ele>441</ele>
        <time>2014-03-08T15:05:55.505Z</time>
      </trkpt>
      <trkpt lat="47.47682" lon="6.82123">
        <ele>438</ele>
        <time>2014-03-08T15:06:00.382Z</time>
      </trkpt>
      <trkpt lat="47.47704" lon="6.82137">
        <ele>436</ele>
        <time>2014-03-08T15:06:05.332Z</time>
      </trkpt>
      <trkpt lat="47.47712" lon="6.82138">
        <ele>435</ele>
        <time>2014-03-08T15:06:10.380Z</time>
      </trkpt>
      <trkpt lat="47.47723" lon="6.82142">
        <ele>434</ele>
        <time>2014-03-08T15:06:15.332Z</time>
      </trkpt>
      <trkpt lat="47.47741" lon="6.82146">
        <ele>432</ele>
        <time>2014-03-08T15:06:20.394Z</time>
      </trkpt>
      <trkpt lat="47.47772" lon="6.82145">
        <ele>432</ele>
        <time>2014-03-08T15:06:25.332Z</time>
      </trkpt>
      <trkpt lat="47.4781" lon="6.82162">
        <ele>429</ele>
        <time>2014-03-08T15:06:30.396Z</time>
      </trkpt>
      <trkpt lat="47.47842" lon="6.82157">
        <ele>427</ele>
        <time>2014-03-08T15:06:35.335Z</time>
      </trkpt>
      <trkpt lat="47.4787" lon="6.82162">
        <ele>424</ele>
        <time>2014-03-08T15:06:40.372Z</time>
      </trkpt>
      <trkpt lat="47.47889" lon="6.82157">
        <ele>423</ele>
        <time>2014-03-08T15:06:45.337Z</time>
      </trkpt>
      <trkpt lat="47.47901" lon="6.8215">
        <ele>424</ele>
        <time>2014-03-08T15:06:50.388Z</time>
      </trkpt>
      <trkpt lat="47.47941" lon="6.8205">
        <ele>425</ele>
        <time>2014-03-08T15:07:20.238Z</time>
      </trkpt>
      <trkpt lat="47.47925" lon="6.81986">
        <ele>419</ele>
        <time>2014-03-08T15:07:25.395Z</time>
      </trkpt>
      <trkpt lat="47.4792" lon="6.81952">
        <ele>416</ele>
        <time>2014-03-08T15:07:30.320Z</time>
      </trkpt>
      <trkpt lat="47.47927" lon="6.81924">
        <ele>415</ele>
        <time>2014-03-08T15:07:35.391Z</time>
      </trkpt>
      <trkpt lat="47.47931" lon="6.81896">
        <ele>415</ele>
        <time>2014-03-08T15:07:40.320Z</time>
      </trkpt>
      <trkpt lat="47.4793" lon="6.8186">
        <ele>414</ele>
        <time>2014-03-08T15:07:45.398Z</time>
      </trkpt>
      <trkpt lat="47.47931" lon="6.81839">
        <ele>413</ele>
        <time>2014-03-08T15:07:50.332Z</time>
      </trkpt>
      <trkpt lat="47.47931" lon="6.81804">
        <ele>413</ele>
        <time>2014-03-08T15:07:55.349Z</time>
      </trkpt>
      <trkpt lat="47.47922" lon="6.81783">
        <ele>412</ele>
        <time>2014-03-08T15:08:00.323Z</time>
      </trkpt>
      <trkpt lat="47.47917" lon="6.81785">
        <ele>412</ele>
        <time>2014-03-08T15:08:05.396Z</time>
      </trkpt>
      <trkpt lat="47.47919" lon="6.81774">
        <ele>411</ele>
        <time>2014-03-08T15:08:10.319Z</time>
      </trkpt>
      <trkpt lat="47.47916" lon="6.81771">
        <ele>411</ele>
        <time>2014-03-08T15:08:15.378Z</time>
      </trkpt>
      <trkpt lat="47.47914" lon="6.8176">
        <ele>411</ele>
        <time>2014-03-08T15:08:20.318Z</time>
      </trkpt>
      <trkpt lat="47.47911" lon="6.81744">
        <ele>412</ele>
        <time>2014-03-08T15:08:25.394Z</time>
      </trkpt>
      <trkpt lat="47.47914" lon="6.81719">
        <ele>413</ele>
        <time>2014-03-08T15:08:30.325Z</time>
      </trkpt>
      <trkpt lat="47.47911" lon="6.81698">
        <ele>414</ele>
        <time>2014-03-08T15:08:35.397Z</time>
      </trkpt>
      <trkpt lat="47.47912" lon="6.8168">
        <ele>415</ele>
        <time>2014-03-08T15:08:40.328Z</time>
      </trkpt>
      <trkpt lat="47.47911" lon="6.81669">
        <ele>415</ele>
        <time>2014-03-08T15:08:45.369Z</time>
      </trkpt>
      <trkpt lat="47.4791" lon="6.81659">
        <ele>416</ele>
        <time>2014-03-08T15:08:50.318Z</time>
      </trkpt>
      <trkpt lat="47.47922" lon="6.8164">
        <ele>419</ele>
        <time>2014-03-08T15:08:55.365Z</time>
      </trkpt>
      <trkpt lat="47.47935" lon="6.81587">
        <ele>420</ele>
        <time>2014-03-08T15:09:10.323Z</time>
      </trkpt>
      <trkpt lat="47.47938" lon="6.81572">
        <ele>420</ele>
        <time>2014-03-08T15:09:15.395Z</time>
      </trkpt>
      <trkpt lat="47.47943" lon="6.81557">
        <ele>422</ele>
        <time>2014-03-08T15:09:20.331Z</time>
      </trkpt>
      <trkpt lat="47.47947" lon="6.81547">
        <ele>423</ele>
        <time>2014-03-08T15:09:25.395Z</time>
      </trkpt>
      <trkpt lat="47.47951" lon="6.81538">
        <ele>423</ele>
        <time>2014-03-08T15:09:30.320Z</time>
      </trkpt>
      <trkpt lat="47.47956" lon="6.81527">
        <ele>425</ele>
        <time>2014-03-08T15:09:35.354Z</time>
      </trkpt>
      <trkpt lat="47.47957" lon="6.81517">
        <ele>425</ele>
        <time>2014-03-08T15:09:40.330Z</time>
      </trkpt>
      <trkpt lat="47.47956" lon="6.81509">
        <ele>425</ele>
        <time>2014-03-08T15:09:45.397Z</time>
      </trkpt>
      <trkpt lat="47.47957" lon="6.81503">
        <ele>424</ele>
        <time>2014-03-08T15:09:50.332Z</time>
      </trkpt>
      <trkpt lat="47.47959" lon="6.81499">
        <ele>424</ele>
        <time>2014-03-08T15:09:55.395Z</time>
      </trkpt>
      <trkpt lat="47.47959" lon="6.81492">
        <ele>421</ele>
        <time>2014-03-08T15:10:12.888Z</time>
      </trkpt>
      <trkpt lat="47.48027" lon="6.81494">
        <ele>419</ele>
        <time>2014-03-08T15:10:15.396Z</time>
      </trkpt>
      <trkpt lat="47.48052" lon="6.8147">
        <ele>418</ele>
        <time>2014-03-08T15:10:20.326Z</time>
      </trkpt>
      <trkpt lat="47.48067" lon="6.81444">
        <ele>419</ele>
        <time>2014-03-08T15:10:25.404Z</time>
      </trkpt>
      <trkpt lat="47.48065" lon="6.81445">
        <ele>420</ele>
        <time>2014-03-08T15:10:30.547Z</time>
      </trkpt>
      <trkpt lat="47.48064" lon="6.81445">
        <ele>420</ele>
        <time>2014-03-08T15:10:35.367Z</time>
      </trkpt>
      <trkpt lat="47.48061" lon="6.81444">
        <ele>419</ele>
        <time>2014-03-08T15:10:40.319Z</time>
      </trkpt>
      <trkpt lat="47.48059" lon="6.81446">
        <ele>419</ele>
        <time>2014-03-08T15:10:45.400Z</time>
      </trkpt>
      <trkpt lat="47.48059" lon="6.81446">
        <ele>419</ele>
        <time>2014-03-08T15:10:50.320Z</time>
      </trkpt>
      <trkpt lat="47.4806" lon="6.81445">
        <ele>418</ele>
        <time>2014-03-08T15:10:55.401Z</time>
      </trkpt>
      <trkpt lat="47.48061" lon="6.81444">
        <ele>419</ele>
        <time>2014-03-08T15:11:00.325Z</time>
      </trkpt>
      <trkpt lat="47.48063" lon="6.81452">
        <ele>415</ele>
        <time>2014-03-08T15:11:05.353Z</time>
      </trkpt>
      <trkpt lat="47.48077" lon="6.81459">
        <ele>413</ele>
        <time>2014-03-08T15:11:10.317Z</time>
      </trkpt>
      <trkpt lat="47.48092" lon="6.81469">
        <ele>412</ele>
        <time>2014-03-08T15:11:15.363Z</time>
      </trkpt>
      <trkpt lat="47.48124" lon="6.81473">
        <ele>410</ele>
        <time>2014-03-08T15:11:20.319Z</time>
      </trkpt>
      <trkpt lat="47.4817" lon="6.81469">
        <ele>406</ele>
        <time>2014-03-08T15:11:25.373Z</time>
      </trkpt>
      <trkpt lat="47.48211" lon="6.81461">
        <ele>401</ele>
        <time>2014-03-08T15:11:30.324Z</time>
      </trkpt>
      <trkpt lat="47.48243" lon="6.81441">
        <ele>394</ele>
        <time>2014-03-08T15:11:35.391Z</time>
      </trkpt>
      <trkpt lat="47.48268" lon="6.81415">
        <ele>391</ele>
        <time>2014-03-08T15:11:40.324Z</time>
      </trkpt>
      <trkpt lat="47.48278" lon="6.81406">
        <ele>388</ele>
        <time>2014-03-08T15:11:45.398Z</time>
      </trkpt>
      <trkpt lat="47.48276" lon="6.81424">
        <ele>385</ele>
        <time>2014-03-08T15:11:50.324Z</time>
      </trkpt>
      <trkpt lat="47.48276" lon="6.81441">
        <ele>382</ele>
        <time>2014-03-08T15:11:55.396Z</time>
      </trkpt>
      <trkpt lat="47.48277" lon="6.81454">
        <ele>381</ele>
        <time>2014-03-08T15:12:00.323Z</time>
      </trkpt>
      <trkpt lat="47.48289" lon="6.81473">
        <ele>379</ele>
        <time>2014-03-08T15:12:05.385Z</time>
      </trkpt>
      <trkpt lat="47.48295" lon="6.81504">
        <ele>378</ele>
        <time>2014-03-08T15:12:10.328Z</time>
      </trkpt>
      <trkpt lat="47.48299" lon="6.81533">
        <ele>378</ele>
        <time>2014-03-08T15:12:15.396Z</time>
      </trkpt>
      <trkpt lat="47.48305" lon="6.81564">
        <ele>378</ele>
        <time>2014-03-08T15:12:20.329Z</time>
      </trkpt>
      <trkpt lat="47.48314" lon="6.81596">
        <ele>377</ele>
        <time>2014-03-08T15:12:25.362Z</time>
      </trkpt>
      <trkpt lat="47.48331" lon="6.8162">
        <ele>376</ele>
        <time>2014-03-08T15:12:30.319Z</time>
      </trkpt>
      <trkpt lat="47.48349" lon="6.81635">
        <ele>375</ele>
        <time>2014-03-08T15:12:35.396Z</time>
      </trkpt>
      <trkpt lat="47.48369" lon="6.81629">
        <ele>376</ele>
        <time>2014-03-08T15:12:40.321Z</time>
      </trkpt>
      <trkpt lat="47.48388" lon="6.81623">
        <ele>375</ele>
        <time>2014-03-08T15:12:45.378Z</time>
      </trkpt>
      <trkpt lat="47.4841" lon="6.81617">
        <ele>375</ele>
        <time>2014-03-08T15:12:50.321Z</time>
      </trkpt>
      <trkpt lat="47.48424" lon="6.81606">
        <ele>374</ele>
        <time>2014-03-08T15:12:55.395Z</time>
      </trkpt>
      <trkpt lat="47.48411" lon="6.81577">
        <ele>372</ele>
        <time>2014-03-08T15:13:00.319Z</time>
      </trkpt>
      <trkpt lat="47.48405" lon="6.81536">
        <ele>370</ele>
        <time>2014-03-08T15:13:05.399Z</time>
      </trkpt>
      <trkpt lat="47.48399" lon="6.81495">
        <ele>370</ele>
        <time>2014-03-08T15:13:10.321Z</time>
      </trkpt>
      <trkpt lat="47.48395" lon="6.81456">
        <ele>370</ele>
        <time>2014-03-08T15:13:15.383Z</time>
      </trkpt>
      <trkpt lat="47.48391" lon="6.81416">
        <ele>369</ele>
        <time>2014-03-08T15:13:20.321Z</time>
      </trkpt>
      <trkpt lat="47.48386" lon="6.81375">
        <ele>369</ele>
        <time>2014-03-08T15:13:25.378Z</time>
      </trkpt>
      <trkpt lat="47.48383" lon="6.81335">
        <ele>369</ele>
        <time>2014-03-08T15:13:30.328Z</time>
      </trkpt>
      <trkpt lat="47.48384" lon="6.81294">
        <ele>369</ele>
        <time>2014-03-08T15:13:35.397Z</time>
      </trkpt>
      <trkpt lat="47.48391" lon="6.81252">
        <ele>368</ele>
        <time>2014-03-08T15:13:40.318Z</time>
      </trkpt>
      <trkpt lat="47.48398" lon="6.81213">
        <ele>369</ele>
        <time>2014-03-08T15:13:45.363Z</time>
      </trkpt>
      <trkpt lat="47.48407" lon="6.81171">
        <ele>369</ele>
        <time>2014-03-08T15:13:50.321Z</time>
      </trkpt>
      <trkpt lat="47.48416" lon="6.81127">
        <ele>369</ele>
        <time>2014-03-08T15:13:55.404Z</time>
      </trkpt>
      <trkpt lat="47.48434" lon="6.81038">
        <ele>369</ele>
        <time>2014-03-08T15:14:05.353Z</time>
      </trkpt>
      <trkpt lat="47.48442" lon="6.80995">
        <ele>369</ele>
        <time>2014-03-08T15:14:10.326Z</time>
      </trkpt>
      <trkpt lat="47.4845" lon="6.80954">
        <ele>369</ele>
        <time>2014-03-08T15:14:15.353Z</time>
      </trkpt>
      <trkpt lat="47.48457" lon="6.80912">
        <ele>368</ele>
        <time>2014-03-08T15:14:20.317Z</time>
      </trkpt>
      <trkpt lat="47.48466" lon="6.80872">
        <ele>368</ele>
        <time>2014-03-08T15:14:25.391Z</time>
      </trkpt>
      <trkpt lat="47.48476" lon="6.80837">
        <ele>368</ele>
        <time>2014-03-08T15:14:30.318Z</time>
      </trkpt>
      <trkpt lat="47.4848" lon="6.80798">
        <ele>368</ele>
        <time>2014-03-08T15:14:35.397Z</time>
      </trkpt>
      <trkpt lat="47.48479" lon="6.80759">
        <ele>368</ele>
        <time>2014-03-08T15:14:40.321Z</time>
      </trkpt>
      <trkpt lat="47.48475" lon="6.80724">
        <ele>367</ele>
        <time>2014-03-08T15:14:45.394Z</time>
      </trkpt>
      <trkpt lat="47.48478" lon="6.80697">
        <ele>367</ele>
        <time>2014-03-08T15:14:50.318Z</time>
      </trkpt>
      <trkpt lat="47.48486" lon="6.80699">
        <ele>368</ele>
        <time>2014-03-08T15:14:55.397Z</time>
      </trkpt>
      <trkpt lat="47.485" lon="6.80677">
        <ele>371</ele>
        <time>2014-03-08T15:15:00.316Z</time>
      </trkpt>
      <trkpt lat="47.48519" lon="6.80629">
        <ele>372</ele>
        <time>2014-03-08T15:15:05.380Z</time>
      </trkpt>
      <trkpt lat="47.48531" lon="6.806">
        <ele>373</ele>
        <time>2014-03-08T15:15:10.321Z</time>
      </trkpt>
      <trkpt lat="47.4854" lon="6.80567">
        <ele>373</ele>
        <time>2014-03-08T15:15:15.402Z</time>
      </trkpt>
      <trkpt lat="47.4855" lon="6.80529">
        <ele>374</ele>
        <time>2014-03-08T15:15:20.328Z</time>
      </trkpt>
      <trkpt lat="47.48557" lon="6.80495">
        <ele>375</ele>
        <time>2014-03-08T15:15:25.378Z</time>
      </trkpt>
      <trkpt lat="47.48567" lon="6.80461">
        <ele>376</ele>
        <time>2014-03-08T15:15:30.320Z</time>
      </trkpt>
      <trkpt lat="47.48581" lon="6.80425">
        <ele>376</ele>
        <time>2014-03-08T15:15:35.397Z</time>
      </trkpt>
      <trkpt lat="47.48594" lon="6.804">
        <ele>376</ele>
        <time>2014-03-08T15:15:40.320Z</time>
      </trkpt>
      <trkpt lat="47.48608" lon="6.80378">
        <ele>376</ele>
        <time>2014-03-08T15:15:45.394Z</time>
      </trkpt>
      <trkpt lat="47.48622" lon="6.80354">
        <ele>377</ele>
        <time>2014-03-08T15:15:50.322Z</time>
      </trkpt>
      <trkpt lat="47.48637" lon="6.80326">
        <ele>377</ele>
        <time>2014-03-08T15:15:55.392Z</time>
      </trkpt>
      <trkpt lat="47.48673" lon="6.80262">
        <ele>375</ele>
        <time>2014-03-08T15:16:05.400Z</time>
      </trkpt>
      <trkpt lat="47.4869" lon="6.80232">
        <ele>375</ele>
        <time>2014-03-08T15:16:10.326Z</time>
      </trkpt>
      <trkpt lat="47.48702" lon="6.80201">
        <ele>374</ele>
        <time>2014-03-08T15:16:15.397Z</time>
      </trkpt>
      <trkpt lat="47.48708" lon="6.80165">
        <ele>374</ele>
        <time>2014-03-08T15:16:20.329Z</time>
      </trkpt>
      <trkpt lat="47.48709" lon="6.8013">
        <ele>373</ele>
        <time>2014-03-08T15:16:25.369Z</time>
      </trkpt>
      <trkpt lat="47.48709" lon="6.8009">
        <ele>371</ele>
        <time>2014-03-08T15:16:30.403Z</time>
      </trkpt>
      <trkpt lat="47.48708" lon="6.80051">
        <ele>370</ele>
        <time>2014-03-08T15:16:35.328Z</time>
      </trkpt>
      <trkpt lat="47.48707" lon="6.80008">
        <ele>369</ele>
        <time>2014-03-08T15:16:40.391Z</time>
      </trkpt>
      <trkpt lat="47.48706" lon="6.79971">
        <ele>369</ele>
        <time>2014-03-08T15:16:45.330Z</time>
      </trkpt>
      <trkpt lat="47.48705" lon="6.79942">
        <ele>369</ele>
        <time>2014-03-08T15:16:50.397Z</time>
      </trkpt>
      <trkpt lat="47.48703" lon="6.79908">
        <ele>369</ele>
        <time>2014-03-08T15:16:55.321Z</time>
      </trkpt>
      <trkpt lat="47.487" lon="6.79869">
        <ele>369</ele>
        <time>2014-03-08T15:17:00.396Z</time>
      </trkpt>
      <trkpt lat="47.48696" lon="6.7983">
        <ele>369</ele>
        <time>2014-03-08T15:17:05.322Z</time>
      </trkpt>
      <trkpt lat="47.48691" lon="6.7979">
        <ele>369</ele>
        <time>2014-03-08T15:17:10.387Z</time>
      </trkpt>
      <trkpt lat="47.48685" lon="6.79752">
        <ele>369</ele>
        <time>2014-03-08T15:17:15.403Z</time>
      </trkpt>
      <trkpt lat="47.48679" lon="6.7971">
        <ele>369</ele>
        <time>2014-03-08T15:17:20.307Z</time>
      </trkpt>
      <trkpt lat="47.4867" lon="6.79668">
        <ele>368</ele>
        <time>2014-03-08T15:17:25.378Z</time>
      </trkpt>
      <trkpt lat="47.48659" lon="6.79627">
        <ele>368</ele>
        <time>2014-03-08T15:17:30.320Z</time>
      </trkpt>
      <trkpt lat="47.48645" lon="6.79588">
        <ele>368</ele>
        <time>2014-03-08T15:17:35.328Z</time>
      </trkpt>
      <trkpt lat="47.48629" lon="6.79553">
        <ele>368</ele>
        <time>2014-03-08T15:17:40.396Z</time>
      </trkpt>
      <trkpt lat="47.48613" lon="6.79518">
        <ele>367</ele>
        <time>2014-03-08T15:17:45.330Z</time>
      </trkpt>
      <trkpt lat="47.48595" lon="6.79486">
        <ele>367</ele>
        <time>2014-03-08T15:17:50.371Z</time>
      </trkpt>
      <trkpt lat="47.48578" lon="6.79451">
        <ele>367</ele>
        <time>2014-03-08T15:17:55.321Z</time>
      </trkpt>
      <trkpt lat="47.48494" lon="6.79279">
        <ele>367</ele>
        <time>2014-03-08T15:18:20.393Z</time>
      </trkpt>
      <trkpt lat="47.48478" lon="6.79245">
        <ele>367</ele>
        <time>2014-03-08T15:18:25.328Z</time>
      </trkpt>
      <trkpt lat="47.48464" lon="6.79213">
        <ele>367</ele>
        <time>2014-03-08T15:18:30.394Z</time>
      </trkpt>
      <trkpt lat="47.48451" lon="6.79185">
        <ele>368</ele>
        <time>2014-03-08T15:18:35.318Z</time>
      </trkpt>
      <trkpt lat="47.48439" lon="6.79154">
        <ele>368</ele>
        <time>2014-03-08T15:18:40.395Z</time>
      </trkpt>
      <trkpt lat="47.48424" lon="6.79125">
        <ele>368</ele>
        <time>2014-03-08T15:18:45.328Z</time>
      </trkpt>
      <trkpt lat="47.48416" lon="6.79102">
        <ele>368</ele>
        <time>2014-03-08T15:18:50.395Z</time>
      </trkpt>
      <trkpt lat="47.48414" lon="6.7908">
        <ele>368</ele>
        <time>2014-03-08T15:18:55.320Z</time>
      </trkpt>
      <trkpt lat="47.48423" lon="6.79044">
        <ele>370</ele>
        <time>2014-03-08T15:19:05.326Z</time>
      </trkpt>
      <trkpt lat="47.48423" lon="6.79044">
        <ele>370</ele>
        <time>2014-03-08T15:19:10.393Z</time>
      </trkpt>
      <trkpt lat="47.48422" lon="6.79044">
        <ele>370</ele>
        <time>2014-03-08T15:19:15.318Z</time>
      </trkpt>
      <trkpt lat="47.48422" lon="6.79044">
        <ele>369</ele>
        <time>2014-03-08T15:19:20.394Z</time>
      </trkpt>
      <trkpt lat="47.48422" lon="6.79043">
        <ele>369</ele>
        <time>2014-03-08T15:19:25.324Z</time>
      </trkpt>
      <trkpt lat="47.48422" lon="6.79043">
        <ele>369</ele>
        <time>2014-03-08T15:19:30.396Z</time>
      </trkpt>
      <trkpt lat="47.48422" lon="6.79043">
        <ele>369</ele>
        <time>2014-03-08T15:19:35.319Z</time>
      </trkpt>
      <trkpt lat="47.48423" lon="6.79043">
        <ele>369</ele>
        <time>2014-03-08T15:19:40.396Z</time>
      </trkpt>
      <trkpt lat="47.48423" lon="6.79043">
        <ele>369</ele>
        <time>2014-03-08T15:19:45.315Z</time>
      </trkpt>
      <trkpt lat="47.48423" lon="6.79043">
        <ele>369</ele>
        <time>2014-03-08T15:19:50.395Z</time>
      </trkpt>
      <trkpt lat="47.48423" lon="6.79043">
        <ele>369</ele>
        <time>2014-03-08T15:19:55.325Z</time>
      </trkpt>
      <trkpt lat="47.48423" lon="6.79043">
        <ele>369</ele>
        <time>2014-03-08T15:20:00.378Z</time>
      </trkpt>
      <trkpt lat="47.48423" lon="6.79043">
        <ele>369</ele>
        <time>2014-03-08T15:20:05.318Z</time>
      </trkpt>
      <trkpt lat="47.48423" lon="6.79043">
        <ele>369</ele>
        <time>2014-03-08T15:20:10.394Z</time>
      </trkpt>
      <trkpt lat="47.48422" lon="6.79042">
        <ele>369</ele>
        <time>2014-03-08T15:20:15.317Z</time>
      </trkpt>
      <trkpt lat="47.48422" lon="6.79042">
        <ele>369</ele>
        <time>2014-03-08T15:20:20.397Z</time>
      </trkpt>
      <trkpt lat="47.48422" lon="6.79042">
        <ele>369</ele>
        <time>2014-03-08T15:20:25.327Z</time>
      </trkpt>
      <trkpt lat="47.48422" lon="6.79042">
        <ele>369</ele>
        <time>2014-03-08T15:20:30.391Z</time>
      </trkpt>
      <trkpt lat="47.48422" lon="6.79042">
        <ele>369</ele>
        <time>2014-03-08T15:20:35.316Z</time>
      </trkpt>
      <trkpt lat="47.48422" lon="6.79042">
        <ele>369</ele>
        <time>2014-03-08T15:20:40.396Z</time>
      </trkpt>
      <trkpt lat="47.48422" lon="6.79043">
        <ele>369</ele>
        <time>2014-03-08T15:20:45.397Z</time>
      </trkpt>
      <trkpt lat="47.48422" lon="6.79043">
        <ele>369</ele>
        <time>2014-03-08T15:20:50.324Z</time>
      </trkpt>
      <trkpt lat="47.48422" lon="6.79044">
        <ele>369</ele>
        <time>2014-03-08T15:20:55.395Z</time>
      </trkpt>
      <trkpt lat="47.48421" lon="6.79044">
        <ele>369</ele>
        <time>2014-03-08T15:21:00.322Z</time>
      </trkpt>
      <trkpt lat="47.48421" lon="6.79044">
        <ele>369</ele>
        <time>2014-03-08T15:21:05.397Z</time>
      </trkpt>
      <trkpt lat="47.48422" lon="6.79044">
        <ele>369</ele>
        <time>2014-03-08T15:21:10.321Z</time>
      </trkpt>
      <trkpt lat="47.48423" lon="6.79033">
        <ele>369</ele>
        <time>2014-03-08T15:21:15.397Z</time>
      </trkpt>
      <trkpt lat="47.48428" lon="6.79009">
        <ele>369</ele>
        <time>2014-03-08T15:21:20.328Z</time>
      </trkpt>
      <trkpt lat="47.48433" lon="6.7898">
        <ele>369</ele>
        <time>2014-03-08T15:21:25.405Z</time>
      </trkpt>
      <trkpt lat="47.48439" lon="6.78949">
        <ele>368</ele>
        <time>2014-03-08T15:21:30.398Z</time>
      </trkpt>
      <trkpt lat="47.48444" lon="6.78916">
        <ele>368</ele>
        <time>2014-03-08T15:21:35.331Z</time>
      </trkpt>
      <trkpt lat="47.4845" lon="6.78879">
        <ele>368</ele>
        <time>2014-03-08T15:21:40.371Z</time>
      </trkpt>
      <trkpt lat="47.48457" lon="6.78843">
        <ele>368</ele>
        <time>2014-03-08T15:21:45.292Z</time>
      </trkpt>
      <trkpt lat="47.48468" lon="6.78773">
        <ele>368</ele>
        <time>2014-03-08T15:21:55.326Z</time>
      </trkpt>
      <trkpt lat="47.48499" lon="6.78629">
        <ele>368</ele>
        <time>2014-03-08T15:22:15.398Z</time>
      </trkpt>
      <trkpt lat="47.48505" lon="6.78594">
        <ele>368</ele>
        <time>2014-03-08T15:22:20.326Z</time>
      </trkpt>
      <trkpt lat="47.48507" lon="6.78557">
        <ele>367</ele>
        <time>2014-03-08T15:22:25.397Z</time>
      </trkpt>
      <trkpt lat="47.48499" lon="6.78521">
        <ele>366</ele>
        <time>2014-03-08T15:22:30.398Z</time>
      </trkpt>
      <trkpt lat="47.48493" lon="6.78485">
        <ele>366</ele>
        <time>2014-03-08T15:22:35.330Z</time>
      </trkpt>
      <trkpt lat="47.48486" lon="6.78449">
        <ele>366</ele>
        <time>2014-03-08T15:22:40.396Z</time>
      </trkpt>
      <trkpt lat="47.4848" lon="6.78414">
        <ele>366</ele>
        <time>2014-03-08T15:22:45.317Z</time>
      </trkpt>
      <trkpt lat="47.48478" lon="6.78382">
        <ele>367</ele>
        <time>2014-03-08T15:22:50.343Z</time>
      </trkpt>
      <trkpt lat="47.48474" lon="6.7835">
        <ele>366</ele>
        <time>2014-03-08T15:22:55.325Z</time>
      </trkpt>
      <trkpt lat="47.48468" lon="6.78313">
        <ele>366</ele>
        <time>2014-03-08T15:23:00.396Z</time>
      </trkpt>
      <trkpt lat="47.48464" lon="6.78275">
        <ele>366</ele>
        <time>2014-03-08T15:23:05.317Z</time>
      </trkpt>
      <trkpt lat="47.48461" lon="6.78239">
        <ele>366</ele>
        <time>2014-03-08T15:23:10.392Z</time>
      </trkpt>
      <trkpt lat="47.48455" lon="6.78201">
        <ele>365</ele>
        <time>2014-03-08T15:23:15.321Z</time>
      </trkpt>
      <trkpt lat="47.48455" lon="6.78161">
        <ele>366</ele>
        <time>2014-03-08T15:23:20.397Z</time>
      </trkpt>
      <trkpt lat="47.48462" lon="6.78123">
        <ele>366</ele>
        <time>2014-03-08T15:23:25.319Z</time>
      </trkpt>
      <trkpt lat="47.48471" lon="6.78085">
        <ele>367</ele>
        <time>2014-03-08T15:23:30.364Z</time>
      </trkpt>
      <trkpt lat="47.48481" lon="6.78048">
        <ele>367</ele>
        <time>2014-03-08T15:23:35.317Z</time>
      </trkpt>
      <trkpt lat="47.48491" lon="6.7801">
        <ele>367</ele>
        <time>2014-03-08T15:23:40.395Z</time>
      </trkpt>
      <trkpt lat="47.48508" lon="6.77986">
        <ele>366</ele>
        <time>2014-03-08T15:23:45.317Z</time>
      </trkpt>
      <trkpt lat="47.48528" lon="6.77974">
        <ele>366</ele>
        <time>2014-03-08T15:23:50.396Z</time>
      </trkpt>
      <trkpt lat="47.48546" lon="6.77961">
        <ele>366</ele>
        <time>2014-03-08T15:23:55.325Z</time>
      </trkpt>
      <trkpt lat="47.48551" lon="6.77927">
        <ele>365</ele>
        <time>2014-03-08T15:24:02.456Z</time>
      </trkpt>
      <trkpt lat="47.48557" lon="6.77896">
        <ele>365</ele>
        <time>2014-03-08T15:24:05.335Z</time>
      </trkpt>
      <trkpt lat="47.48565" lon="6.77861">
        <ele>365</ele>
        <time>2014-03-08T15:24:10.387Z</time>
      </trkpt>
      <trkpt lat="47.48571" lon="6.77825">
        <ele>366</ele>
        <time>2014-03-08T15:24:15.315Z</time>
      </trkpt>
      <trkpt lat="47.48576" lon="6.77788">
        <ele>367</ele>
        <time>2014-03-08T15:24:20.383Z</time>
      </trkpt>
      <trkpt lat="47.48584" lon="6.77752">
        <ele>366</ele>
        <time>2014-03-08T15:24:25.324Z</time>
      </trkpt>
      <trkpt lat="47.4859" lon="6.77714">
        <ele>366</ele>
        <time>2014-03-08T15:24:30.394Z</time>
      </trkpt>
      <trkpt lat="47.48597" lon="6.77677">
        <ele>366</ele>
        <time>2014-03-08T15:24:35.318Z</time>
      </trkpt>
      <trkpt lat="47.48605" lon="6.77643">
        <ele>367</ele>
        <time>2014-03-08T15:24:40.395Z</time>
      </trkpt>
      <trkpt lat="47.48613" lon="6.7761">
        <ele>367</ele>
        <time>2014-03-08T15:24:45.314Z</time>
      </trkpt>
      <trkpt lat="47.48591" lon="6.7755">
        <ele>369</ele>
        <time>2014-03-08T15:24:55.378Z</time>
      </trkpt>
      <trkpt lat="47.48551" lon="6.77473">
        <ele>371</ele>
        <time>2014-03-08T15:25:10.353Z</time>
      </trkpt>
      <trkpt lat="47.48529" lon="6.77464">
        <ele>371</ele>
        <time>2014-03-08T15:25:15.319Z</time>
      </trkpt>
      <trkpt lat="47.48511" lon="6.77439">
        <ele>371</ele>
        <time>2014-03-08T15:25:20.359Z</time>
      </trkpt>
      <trkpt lat="47.48492" lon="6.77412">
        <ele>371</ele>
        <time>2014-03-08T15:25:25.300Z</time>
      </trkpt>
      <trkpt lat="47.4847" lon="6.77387">
        <ele>371</ele>
        <time>2014-03-08T15:25:30.377Z</time>
      </trkpt>
      <trkpt lat="47.48449" lon="6.77361">
        <ele>371</ele>
        <time>2014-03-08T15:25:35.312Z</time>
      </trkpt>
      <trkpt lat="47.48426" lon="6.7734">
        <ele>371</ele>
        <time>2014-03-08T15:25:40.392Z</time>
      </trkpt>
      <trkpt lat="47.48405" lon="6.77312">
        <ele>371</ele>
        <time>2014-03-08T15:25:45.319Z</time>
      </trkpt>
      <trkpt lat="47.48378" lon="6.77293">
        <ele>371</ele>
        <time>2014-03-08T15:25:50.390Z</time>
      </trkpt>
      <trkpt lat="47.48353" lon="6.7727">
        <ele>370</ele>
        <time>2014-03-08T15:25:55.610Z</time>
      </trkpt>
      <trkpt lat="47.48325" lon="6.77253">
        <ele>370</ele>
        <time>2014-03-08T15:26:01.538Z</time>
      </trkpt>
      <trkpt lat="47.48296" lon="6.77238">
        <ele>369</ele>
        <time>2014-03-08T15:26:05.350Z</time>
      </trkpt>
      <trkpt lat="47.48269" lon="6.77223">
        <ele>368</ele>
        <time>2014-03-08T15:26:10.319Z</time>
      </trkpt>
      <trkpt lat="47.48246" lon="6.77203">
        <ele>367</ele>
        <time>2014-03-08T15:26:15.391Z</time>
      </trkpt>
      <trkpt lat="47.48248" lon="6.77162">
        <ele>368</ele>
        <time>2014-03-08T15:26:20.326Z</time>
      </trkpt>
      <trkpt lat="47.48256" lon="6.77126">
        <ele>369</ele>
        <time>2014-03-08T15:26:25.368Z</time>
      </trkpt>
      <trkpt lat="47.48261" lon="6.77103">
        <ele>371</ele>
        <time>2014-03-08T15:26:30.320Z</time>
      </trkpt>
      <trkpt lat="47.48267" lon="6.77079">
        <ele>370</ele>
        <time>2014-03-08T15:26:35.394Z</time>
      </trkpt>
      <trkpt lat="47.48272" lon="6.77058">
        <ele>371</ele>
        <time>2014-03-08T15:26:40.318Z</time>
      </trkpt>
      <trkpt lat="47.48277" lon="6.77037">
        <ele>371</ele>
        <time>2014-03-08T15:26:45.397Z</time>
      </trkpt>
      <trkpt lat="47.4828" lon="6.77013">
        <ele>370</ele>
        <time>2014-03-08T15:26:50.330Z</time>
      </trkpt>
      <trkpt lat="47.48267" lon="6.76999">
        <ele>369</ele>
        <time>2014-03-08T15:26:55.399Z</time>
      </trkpt>
      <trkpt lat="47.48206" lon="6.76961">
        <ele>368</ele>
        <time>2014-03-08T15:27:10.317Z</time>
      </trkpt>
      <trkpt lat="47.48183" lon="6.76948">
        <ele>367</ele>
        <time>2014-03-08T15:27:15.400Z</time>
      </trkpt>
      <trkpt lat="47.48161" lon="6.76936">
        <ele>367</ele>
        <time>2014-03-08T15:27:20.316Z</time>
      </trkpt>
      <trkpt lat="47.48139" lon="6.76924">
        <ele>367</ele>
        <time>2014-03-08T15:27:25.406Z</time>
      </trkpt>
      <trkpt lat="47.48117" lon="6.76909">
        <ele>367</ele>
        <time>2014-03-08T15:27:30.316Z</time>
      </trkpt>
      <trkpt lat="47.48096" lon="6.76892">
        <ele>367</ele>
        <time>2014-03-08T15:27:35.377Z</time>
      </trkpt>
      <trkpt lat="47.48075" lon="6.76874">
        <ele>367</ele>
        <time>2014-03-08T15:27:40.316Z</time>
      </trkpt>
      <trkpt lat="47.48057" lon="6.76853">
        <ele>367</ele>
        <time>2014-03-08T15:27:45.396Z</time>
      </trkpt>
      <trkpt lat="47.48038" lon="6.76828">
        <ele>367</ele>
        <time>2014-03-08T15:27:50.322Z</time>
      </trkpt>
      <trkpt lat="47.48019" lon="6.768">
        <ele>367</ele>
        <time>2014-03-08T15:27:55.394Z</time>
      </trkpt>
      <trkpt lat="47.47969" lon="6.7664">
        <ele>366</ele>
        <time>2014-03-08T15:28:20.317Z</time>
      </trkpt>
      <trkpt lat="47.47966" lon="6.76616">
        <ele>366</ele>
        <time>2014-03-08T15:28:25.395Z</time>
      </trkpt>
      <trkpt lat="47.47983" lon="6.76607">
        <ele>366</ele>
        <time>2014-03-08T15:28:30.359Z</time>
      </trkpt>
      <trkpt lat="47.48001" lon="6.76597">
        <ele>367</ele>
        <time>2014-03-08T15:28:35.394Z</time>
      </trkpt>
      <trkpt lat="47.48022" lon="6.76585">
        <ele>367</ele>
        <time>2014-03-08T15:28:40.317Z</time>
      </trkpt>
      <trkpt lat="47.48043" lon="6.76568">
        <ele>366</ele>
        <time>2014-03-08T15:28:45.367Z</time>
      </trkpt>
      <trkpt lat="47.48064" lon="6.76549">
        <ele>367</ele>
        <time>2014-03-08T15:28:50.319Z</time>
      </trkpt>
      <trkpt lat="47.48085" lon="6.76529">
        <ele>367</ele>
        <time>2014-03-08T15:28:55.393Z</time>
      </trkpt>
      <trkpt lat="47.48105" lon="6.76512">
        <ele>366</ele>
        <time>2014-03-08T15:29:00.331Z</time>
      </trkpt>
      <trkpt lat="47.48117" lon="6.76529">
        <ele>366</ele>
        <time>2014-03-08T15:29:05.381Z</time>
      </trkpt>
      <trkpt lat="47.48119" lon="6.76554">
        <ele>366</ele>
        <time>2014-03-08T15:29:10.320Z</time>
      </trkpt>
      <trkpt lat="47.48103" lon="6.76584">
        <ele>367</ele>
        <time>2014-03-08T15:29:15.394Z</time>
      </trkpt>
      <trkpt lat="47.48098" lon="6.76621">
        <ele>369</ele>
        <time>2014-03-08T15:29:20.365Z</time>
      </trkpt>
      <trkpt lat="47.48107" lon="6.76649">
        <ele>370</ele>
        <time>2014-03-08T15:29:25.412Z</time>
      </trkpt>
      <trkpt lat="47.48124" lon="6.76677">
        <ele>369</ele>
        <time>2014-03-08T15:29:30.329Z</time>
      </trkpt>
      <trkpt lat="47.48141" lon="6.7671">
        <ele>367</ele>
        <time>2014-03-08T15:29:35.368Z</time>
      </trkpt>
      <trkpt lat="47.48157" lon="6.76741">
        <ele>366</ele>
        <time>2014-03-08T15:29:40.317Z</time>
      </trkpt>
      <trkpt lat="47.48174" lon="6.76766">
        <ele>366</ele>
        <time>2014-03-08T15:29:45.396Z</time>
      </trkpt>
      <trkpt lat="47.48193" lon="6.76784">
        <ele>366</ele>
        <time>2014-03-08T15:29:50.325Z</time>
      </trkpt>
      <trkpt lat="47.48213" lon="6.76793">
        <ele>365</ele>
        <time>2014-03-08T15:29:55.396Z</time>
      </trkpt>
      <trkpt lat="47.48251" lon="6.7682">
        <ele>365</ele>
        <time>2014-03-08T15:30:05.546Z</time>
      </trkpt>
      <trkpt lat="47.48267" lon="6.76844">
        <ele>365</ele>
        <time>2014-03-08T15:30:10.394Z</time>
      </trkpt>
      <trkpt lat="47.48284" lon="6.76869">
        <ele>365</ele>
        <time>2014-03-08T15:30:15.331Z</time>
      </trkpt>
      <trkpt lat="47.48304" lon="6.76889">
        <ele>365</ele>
        <time>2014-03-08T15:30:20.364Z</time>
      </trkpt>
      <trkpt lat="47.48326" lon="6.76906">
        <ele>364</ele>
        <time>2014-03-08T15:30:25.315Z</time>
      </trkpt>
      <trkpt lat="47.48347" lon="6.76921">
        <ele>364</ele>
        <time>2014-03-08T15:30:30.371Z</time>
      </trkpt>
      <trkpt lat="47.48367" lon="6.76933">
        <ele>364</ele>
        <time>2014-03-08T15:30:35.317Z</time>
      </trkpt>
      <trkpt lat="47.48387" lon="6.76945">
        <ele>364</ele>
        <time>2014-03-08T15:30:40.357Z</time>
      </trkpt>
      <trkpt lat="47.48407" lon="6.76957">
        <ele>363</ele>
        <time>2014-03-08T15:30:45.288Z</time>
      </trkpt>
      <trkpt lat="47.48447" lon="6.76975">
        <ele>363</ele>
        <time>2014-03-08T15:30:55.324Z</time>
      </trkpt>
      <trkpt lat="47.48533" lon="6.77036">
        <ele>363</ele>
        <time>2014-03-08T15:31:20.331Z</time>
      </trkpt>
      <trkpt lat="47.48551" lon="6.7705">
        <ele>364</ele>
        <time>2014-03-08T15:31:25.398Z</time>
      </trkpt>
      <trkpt lat="47.48566" lon="6.77054">
        <ele>365</ele>
        <time>2014-03-08T15:31:30.316Z</time>
      </trkpt>
      <trkpt lat="47.48581" lon="6.77062">
        <ele>366</ele>
        <time>2014-03-08T15:31:35.394Z</time>
      </trkpt>
      <trkpt lat="47.48596" lon="6.7707">
        <ele>366</ele>
        <time>2014-03-08T15:31:40.321Z</time>
      </trkpt>
      <trkpt lat="47.48611" lon="6.7708">
        <ele>365</ele>
        <time>2014-03-08T15:31:45.397Z</time>
      </trkpt>
      <trkpt lat="47.48627" lon="6.7709">
        <ele>366</ele>
        <time>2014-03-08T15:31:50.318Z</time>
      </trkpt>
      <trkpt lat="47.48646" lon="6.77107">
        <ele>365</ele>
        <time>2014-03-08T15:31:55.364Z</time>
      </trkpt>
      <trkpt lat="47.48666" lon="6.7713">
        <ele>365</ele>
        <time>2014-03-08T15:32:00.325Z</time>
      </trkpt>
      <trkpt lat="47.48684" lon="6.7715">
        <ele>365</ele>
        <time>2014-03-08T15:32:05.393Z</time>
      </trkpt>
      <trkpt lat="47.48702" lon="6.77168">
        <ele>364</ele>
        <time>2014-03-08T15:32:10.329Z</time>
      </trkpt>
      <trkpt lat="47.4872" lon="6.77182">
        <ele>364</ele>
        <time>2014-03-08T15:32:15.383Z</time>
      </trkpt>
      <trkpt lat="47.48737" lon="6.77195">
        <ele>363</ele>
        <time>2014-03-08T15:32:20.702Z</time>
      </trkpt>
      <trkpt lat="47.48756" lon="6.77209">
        <ele>363</ele>
        <time>2014-03-08T15:32:25.391Z</time>
      </trkpt>
      <trkpt lat="47.48776" lon="6.77224">
        <ele>363</ele>
        <time>2014-03-08T15:32:30.388Z</time>
      </trkpt>
      <trkpt lat="47.48795" lon="6.77239">
        <ele>363</ele>
        <time>2014-03-08T15:32:35.415Z</time>
      </trkpt>
      <trkpt lat="47.48815" lon="6.77254">
        <ele>363</ele>
        <time>2014-03-08T15:32:40.474Z</time>
      </trkpt>
      <trkpt lat="47.48833" lon="6.77268">
        <ele>363</ele>
        <time>2014-03-08T15:32:45.424Z</time>
      </trkpt>
      <trkpt lat="47.48853" lon="6.7728">
        <ele>363</ele>
        <time>2014-03-08T15:32:50.474Z</time>
      </trkpt>
      <trkpt lat="47.48874" lon="6.7729">
        <ele>363</ele>
        <time>2014-03-08T15:32:55.416Z</time>
      </trkpt>
      <trkpt lat="47.48895" lon="6.77296">
        <ele>364</ele>
        <time>2014-03-08T15:33:00.496Z</time>
      </trkpt>
      <trkpt lat="47.48914" lon="6.77303">
        <ele>364</ele>
        <time>2014-03-08T15:33:05.417Z</time>
      </trkpt>
      <trkpt lat="47.48933" lon="6.77311">
        <ele>363</ele>
        <time>2014-03-08T15:33:10.498Z</time>
      </trkpt>
      <trkpt lat="47.48952" lon="6.77318">
        <ele>364</ele>
        <time>2014-03-08T15:33:15.416Z</time>
      </trkpt>
      <trkpt lat="47.48971" lon="6.7732">
        <ele>364</ele>
        <time>2014-03-08T15:33:20.454Z</time>
      </trkpt>
      <trkpt lat="47.48993" lon="6.77323">
        <ele>363</ele>
        <time>2014-03-08T15:33:25.417Z</time>
      </trkpt>
      <trkpt lat="47.49016" lon="6.77325">
        <ele>363</ele>
        <time>2014-03-08T15:33:30.491Z</time>
      </trkpt>
      <trkpt lat="47.49038" lon="6.77327">
        <ele>364</ele>
        <time>2014-03-08T15:33:35.420Z</time>
      </trkpt>
      <trkpt lat="47.49059" lon="6.77328">
        <ele>364</ele>
        <time>2014-03-08T15:33:40.507Z</time>
      </trkpt>
      <trkpt lat="47.49081" lon="6.7733">
        <ele>364</ele>
        <time>2014-03-08T15:33:45.428Z</time>
      </trkpt>
      <trkpt lat="47.491" lon="6.77332">
        <ele>364</ele>
        <time>2014-03-08T15:33:50.484Z</time>
      </trkpt>
      <trkpt lat="47.49119" lon="6.77334">
        <ele>365</ele>
        <time>2014-03-08T15:33:55.417Z</time>
      </trkpt>
      <trkpt lat="47.49139" lon="6.77335">
        <ele>365</ele>
        <time>2014-03-08T15:34:00.476Z</time>
      </trkpt>
      <trkpt lat="47.49157" lon="6.77334">
        <ele>365</ele>
        <time>2014-03-08T15:34:05.426Z</time>
      </trkpt>
      <trkpt lat="47.49168" lon="6.77307">
        <ele>364</ele>
        <time>2014-03-08T15:34:10.495Z</time>
      </trkpt>
      <trkpt lat="47.49173" lon="6.7728">
        <ele>364</ele>
        <time>2014-03-08T15:34:15.416Z</time>
      </trkpt>
      <trkpt lat="47.4918" lon="6.77254">
        <ele>364</ele>
        <time>2014-03-08T15:34:20.494Z</time>
      </trkpt>
      <trkpt lat="47.49185" lon="6.77226">
        <ele>364</ele>
        <time>2014-03-08T15:34:25.384Z</time>
      </trkpt>
      <trkpt lat="47.49188" lon="6.77197">
        <ele>365</ele>
        <time>2014-03-08T15:34:30.493Z</time>
      </trkpt>
      <trkpt lat="47.49188" lon="6.7717">
        <ele>366</ele>
        <time>2014-03-08T15:34:35.416Z</time>
      </trkpt>
      <trkpt lat="47.49186" lon="6.77148">
        <ele>366</ele>
        <time>2014-03-08T15:34:40.495Z</time>
      </trkpt>
      <trkpt lat="47.4918" lon="6.77131">
        <ele>366</ele>
        <time>2014-03-08T15:34:45.426Z</time>
      </trkpt>
      <trkpt lat="47.49178" lon="6.77095">
        <ele>367</ele>
        <time>2014-03-08T15:34:50.495Z</time>
      </trkpt>
      <trkpt lat="47.49172" lon="6.7706">
        <ele>366</ele>
        <time>2014-03-08T15:34:55.496Z</time>
      </trkpt>
      <trkpt lat="47.49168" lon="6.7703">
        <ele>366</ele>
        <time>2014-03-08T15:35:00.415Z</time>
      </trkpt>
      <trkpt lat="47.49159" lon="6.77006">
        <ele>365</ele>
        <time>2014-03-08T15:35:05.487Z</time>
      </trkpt>
      <trkpt lat="47.4915" lon="6.76982">
        <ele>366</ele>
        <time>2014-03-08T15:35:10.413Z</time>
      </trkpt>
      <trkpt lat="47.49148" lon="6.76959">
        <ele>365</ele>
        <time>2014-03-08T15:35:15.490Z</time>
      </trkpt>
      <trkpt lat="47.4915" lon="6.76928">
        <ele>366</ele>
        <time>2014-03-08T15:35:20.415Z</time>
      </trkpt>
      <trkpt lat="47.49151" lon="6.76896">
        <ele>366</ele>
        <time>2014-03-08T15:35:25.494Z</time>
      </trkpt>
      <trkpt lat="47.49151" lon="6.76862">
        <ele>365</ele>
        <time>2014-03-08T15:35:30.414Z</time>
      </trkpt>
      <trkpt lat="47.49151" lon="6.76829">
        <ele>365</ele>
        <time>2014-03-08T15:35:35.467Z</time>
      </trkpt>
      <trkpt lat="47.49151" lon="6.76796">
        <ele>365</ele>
        <time>2014-03-08T15:35:40.417Z</time>
      </trkpt>
      <trkpt lat="47.4915" lon="6.76762">
        <ele>365</ele>
        <time>2014-03-08T15:35:45.495Z</time>
      </trkpt>
      <trkpt lat="47.49146" lon="6.76727">
        <ele>365</ele>
        <time>2014-03-08T15:35:50.417Z</time>
      </trkpt>
      <trkpt lat="47.49143" lon="6.76692">
        <ele>365</ele>
        <time>2014-03-08T15:35:55.497Z</time>
      </trkpt>
      <trkpt lat="47.49139" lon="6.76658">
        <ele>365</ele>
        <time>2014-03-08T15:36:00.423Z</time>
      </trkpt>
      <trkpt lat="47.49135" lon="6.76626">
        <ele>366</ele>
        <time>2014-03-08T15:36:05.457Z</time>
      </trkpt>
      <trkpt lat="47.4913" lon="6.76593">
        <ele>366</ele>
        <time>2014-03-08T15:36:10.418Z</time>
      </trkpt>
      <trkpt lat="47.49125" lon="6.76559">
        <ele>366</ele>
        <time>2014-03-08T15:36:15.500Z</time>
      </trkpt>
      <trkpt lat="47.49124" lon="6.76525">
        <ele>366</ele>
        <time>2014-03-08T15:36:20.417Z</time>
      </trkpt>
      <trkpt lat="47.49123" lon="6.76493">
        <ele>367</ele>
        <time>2014-03-08T15:36:25.494Z</time>
      </trkpt>
      <trkpt lat="47.49125" lon="6.76463">
        <ele>367</ele>
        <time>2014-03-08T15:36:30.414Z</time>
      </trkpt>
      <trkpt lat="47.49126" lon="6.76433">
        <ele>368</ele>
        <time>2014-03-08T15:36:35.493Z</time>
      </trkpt>
      <trkpt lat="47.49126" lon="6.764">
        <ele>368</ele>
        <time>2014-03-08T15:36:40.420Z</time>
      </trkpt>
      <trkpt lat="47.49125" lon="6.76368">
        <ele>368</ele>
        <time>2014-03-08T15:36:45.491Z</time>
      </trkpt>
      <trkpt lat="47.49125" lon="6.76335">
        <ele>367</ele>
        <time>2014-03-08T15:36:50.423Z</time>
      </trkpt>
      <trkpt lat="47.49127" lon="6.76302">
        <ele>368</ele>
        <time>2014-03-08T15:36:55.487Z</time>
      </trkpt>
      <trkpt lat="47.49127" lon="6.7627">
        <ele>369</ele>
        <time>2014-03-08T15:37:03.750Z</time>
      </trkpt>
      <trkpt lat="47.49129" lon="6.76237">
        <ele>368</ele>
        <time>2014-03-08T15:37:05.401Z</time>
      </trkpt>
      <trkpt lat="47.4913" lon="6.76199">
        <ele>368</ele>
        <time>2014-03-08T15:37:10.475Z</time>
      </trkpt>
      <trkpt lat="47.49135" lon="6.76164">
        <ele>369</ele>
        <time>2014-03-08T15:37:15.410Z</time>
      </trkpt>
      <trkpt lat="47.4914" lon="6.7613">
        <ele>370</ele>
        <time>2014-03-08T15:37:20.474Z</time>
      </trkpt>
      <trkpt lat="47.49146" lon="6.76098">
        <ele>370</ele>
        <time>2014-03-08T15:37:25.419Z</time>
      </trkpt>
      <trkpt lat="47.49155" lon="6.76065">
        <ele>369</ele>
        <time>2014-03-08T15:37:30.495Z</time>
      </trkpt>
      <trkpt lat="47.49165" lon="6.76034">
        <ele>368</ele>
        <time>2014-03-08T15:37:35.387Z</time>
      </trkpt>
      <trkpt lat="47.49177" lon="6.76005">
        <ele>369</ele>
        <time>2014-03-08T15:37:40.460Z</time>
      </trkpt>
      <trkpt lat="47.4919" lon="6.75978">
        <ele>370</ele>
        <time>2014-03-08T15:37:45.413Z</time>
      </trkpt>
      <trkpt lat="47.49203" lon="6.75954">
        <ele>370</ele>
        <time>2014-03-08T15:37:50.492Z</time>
      </trkpt>
      <trkpt lat="47.49216" lon="6.75929">
        <ele>370</ele>
        <time>2014-03-08T15:37:55.422Z</time>
      </trkpt>
      <trkpt lat="47.49287" lon="6.75789">
        <ele>369</ele>
        <time>2014-03-08T15:38:20.742Z</time>
      </trkpt>
      <trkpt lat="47.49303" lon="6.75769">
        <ele>370</ele>
        <time>2014-03-08T15:38:25.426Z</time>
      </trkpt>
      <trkpt lat="47.49318" lon="6.75753">
        <ele>371</ele>
        <time>2014-03-08T15:38:30.496Z</time>
      </trkpt>
      <trkpt lat="47.49332" lon="6.75742">
        <ele>372</ele>
        <time>2014-03-08T15:38:35.423Z</time>
      </trkpt>
      <trkpt lat="47.49346" lon="6.75732">
        <ele>373</ele>
        <time>2014-03-08T15:38:40.500Z</time>
      </trkpt>
      <trkpt lat="47.49351" lon="6.75726">
        <ele>372</ele>
        <time>2014-03-08T15:38:45.418Z</time>
      </trkpt>
      <trkpt lat="47.49353" lon="6.75726">
        <ele>373</ele>
        <time>2014-03-08T15:38:50.753Z</time>
      </trkpt>
      <trkpt lat="47.49353" lon="6.75727">
        <ele>373</ele>
        <time>2014-03-08T15:38:55.417Z</time>
      </trkpt>
      <trkpt lat="47.49353" lon="6.75727">
        <ele>373</ele>
        <time>2014-03-08T15:39:00.546Z</time>
      </trkpt>
      <trkpt lat="47.49353" lon="6.75727">
        <ele>373</ele>
        <time>2014-03-08T15:39:05.424Z</time>
      </trkpt>
      <trkpt lat="47.49353" lon="6.75727">
        <ele>373</ele>
        <time>2014-03-08T15:39:10.494Z</time>
      </trkpt>
      <trkpt lat="47.49353" lon="6.75727">
        <ele>373</ele>
        <time>2014-03-08T15:39:15.417Z</time>
      </trkpt>
      <trkpt lat="47.49353" lon="6.75727">
        <ele>373</ele>
        <time>2014-03-08T15:39:20.497Z</time>
      </trkpt>
      <trkpt lat="47.49353" lon="6.75726">
        <ele>373</ele>
        <time>2014-03-08T15:39:25.416Z</time>
      </trkpt>
      <trkpt lat="47.49353" lon="6.75726">
        <ele>373</ele>
        <time>2014-03-08T15:39:30.498Z</time>
      </trkpt>
      <trkpt lat="47.49353" lon="6.75727">
        <ele>374</ele>
        <time>2014-03-08T15:39:35.418Z</time>
      </trkpt>
      <trkpt lat="47.49353" lon="6.75728">
        <ele>375</ele>
        <time>2014-03-08T15:39:40.493Z</time>
      </trkpt>
      <trkpt lat="47.49353" lon="6.75729">
        <ele>375</ele>
        <time>2014-03-08T15:39:45.418Z</time>
      </trkpt>
      <trkpt lat="47.49352" lon="6.7573">
        <ele>374</ele>
        <time>2014-03-08T15:39:50.493Z</time>
      </trkpt>
      <trkpt lat="47.49352" lon="6.7573">
        <ele>374</ele>
        <time>2014-03-08T15:39:55.425Z</time>
      </trkpt>
      <trkpt lat="47.49352" lon="6.7573">
        <ele>374</ele>
        <time>2014-03-08T15:40:00.456Z</time>
      </trkpt>
      <trkpt lat="47.49352" lon="6.7573">
        <ele>374</ele>
        <time>2014-03-08T15:40:05.390Z</time>
      </trkpt>
      <trkpt lat="47.49352" lon="6.7573">
        <ele>374</ele>
        <time>2014-03-08T15:40:10.497Z</time>
      </trkpt>
      <trkpt lat="47.49351" lon="6.7573">
        <ele>373</ele>
        <time>2014-03-08T15:40:15.425Z</time>
      </trkpt>
      <trkpt lat="47.49351" lon="6.75731">
        <ele>373</ele>
        <time>2014-03-08T15:40:20.478Z</time>
      </trkpt>
      <trkpt lat="47.4935" lon="6.7573">
        <ele>373</ele>
        <time>2014-03-08T15:40:25.420Z</time>
      </trkpt>
      <trkpt lat="47.4935" lon="6.75731">
        <ele>374</ele>
        <time>2014-03-08T15:40:30.493Z</time>
      </trkpt>
      <trkpt lat="47.4935" lon="6.75731">
        <ele>374</ele>
        <time>2014-03-08T15:40:35.415Z</time>
      </trkpt>
      <trkpt lat="47.4935" lon="6.75731">
        <ele>374</ele>
        <time>2014-03-08T15:40:40.494Z</time>
      </trkpt>
      <trkpt lat="47.4935" lon="6.75731">
        <ele>374</ele>
        <time>2014-03-08T15:40:45.422Z</time>
      </trkpt>
      <trkpt lat="47.4935" lon="6.75731">
        <ele>374</ele>
        <time>2014-03-08T15:40:50.460Z</time>
      </trkpt>
      <trkpt lat="47.4935" lon="6.75731">
        <ele>374</ele>
        <time>2014-03-08T15:40:55.429Z</time>
      </trkpt>
      <trkpt lat="47.4935" lon="6.75731">
        <ele>374</ele>
        <time>2014-03-08T15:41:00.491Z</time>
      </trkpt>
      <trkpt lat="47.4935" lon="6.75732">
        <ele>374</ele>
        <time>2014-03-08T15:41:05.422Z</time>
      </trkpt>
      <trkpt lat="47.4935" lon="6.75732">
        <ele>374</ele>
        <time>2014-03-08T15:41:10.494Z</time>
      </trkpt>
      <trkpt lat="47.4935" lon="6.75732">
        <ele>374</ele>
        <time>2014-03-08T15:41:15.415Z</time>
      </trkpt>
      <trkpt lat="47.49351" lon="6.75732">
        <ele>374</ele>
        <time>2014-03-08T15:41:20.502Z</time>
      </trkpt>
      <trkpt lat="47.49351" lon="6.75732">
        <ele>374</ele>
        <time>2014-03-08T15:41:25.415Z</time>
      </trkpt>
      <trkpt lat="47.49353" lon="6.75732">
        <ele>374</ele>
        <time>2014-03-08T15:41:30.495Z</time>
      </trkpt>
      <trkpt lat="47.49353" lon="6.75732">
        <ele>374</ele>
        <time>2014-03-08T15:41:35.426Z</time>
      </trkpt>
      <trkpt lat="47.49352" lon="6.75735">
        <ele>375</ele>
        <time>2014-03-08T15:41:40.417Z</time>
      </trkpt>
      <trkpt lat="47.49352" lon="6.75735">
        <ele>375</ele>
        <time>2014-03-08T15:41:45.500Z</time>
      </trkpt>
      <trkpt lat="47.49352" lon="6.75735">
        <ele>375</ele>
        <time>2014-03-08T15:41:50.538Z</time>
      </trkpt>
      <trkpt lat="47.49352" lon="6.75735">
        <ele>375</ele>
        <time>2014-03-08T15:41:55.476Z</time>
      </trkpt>
      <trkpt lat="47.49352" lon="6.75736">
        <ele>375</ele>
        <time>2014-03-08T15:42:00.423Z</time>
      </trkpt>
      <trkpt lat="47.49352" lon="6.75736">
        <ele>374</ele>
        <time>2014-03-08T15:42:05.492Z</time>
      </trkpt>
      <trkpt lat="47.49352" lon="6.75737">
        <ele>374</ele>
        <time>2014-03-08T15:42:10.426Z</time>
      </trkpt>
      <trkpt lat="47.49353" lon="6.75736">
        <ele>375</ele>
        <time>2014-03-08T15:42:15.477Z</time>
      </trkpt>
      <trkpt lat="47.49353" lon="6.75735">
        <ele>374</ele>
        <time>2014-03-08T15:42:20.417Z</time>
      </trkpt>
      <trkpt lat="47.49355" lon="6.75734">
        <ele>374</ele>
        <time>2014-03-08T15:42:25.461Z</time>
      </trkpt>
      <trkpt lat="47.49358" lon="6.75731">
        <ele>375</ele>
        <time>2014-03-08T15:42:30.430Z</time>
      </trkpt>
      <trkpt lat="47.4936" lon="6.75727">
        <ele>375</ele>
        <time>2014-03-08T15:42:35.494Z</time>
      </trkpt>
      <trkpt lat="47.49372" lon="6.75718">
        <ele>374</ele>
        <time>2014-03-08T15:42:40.423Z</time>
      </trkpt>
      <trkpt lat="47.49389" lon="6.75704">
        <ele>374</ele>
        <time>2014-03-08T15:42:45.494Z</time>
      </trkpt>
      <trkpt lat="47.49409" lon="6.75688">
        <ele>373</ele>
        <time>2014-03-08T15:42:50.415Z</time>
      </trkpt>
      <trkpt lat="47.49428" lon="6.75673">
        <ele>374</ele>
        <time>2014-03-08T15:42:55.497Z</time>
      </trkpt>
      <trkpt lat="47.49437" lon="6.75684">
        <ele>374</ele>
        <time>2014-03-08T15:43:00.425Z</time>
      </trkpt>
      <trkpt lat="47.49443" lon="6.75701">
        <ele>373</ele>
        <time>2014-03-08T15:43:05.497Z</time>
      </trkpt>
      <trkpt lat="47.4946" lon="6.75696">
        <ele>373</ele>
        <time>2014-03-08T15:43:10.419Z</time>
      </trkpt>
      <trkpt lat="47.49468" lon="6.7571">
        <ele>372</ele>
        <time>2014-03-08T15:43:15.498Z</time>
      </trkpt>
      <trkpt lat="47.49476" lon="6.7573">
        <ele>373</ele>
        <time>2014-03-08T15:43:20.431Z</time>
      </trkpt>
      <trkpt lat="47.49492" lon="6.75744">
        <ele>372</ele>
        <time>2014-03-08T15:43:25.497Z</time>
      </trkpt>
      <trkpt lat="47.49511" lon="6.75737">
        <ele>372</ele>
        <time>2014-03-08T15:43:30.417Z</time>
      </trkpt>
      <trkpt lat="47.49529" lon="6.75725">
        <ele>372</ele>
        <time>2014-03-08T15:43:35.473Z</time>
      </trkpt>
      <trkpt lat="47.49547" lon="6.75708">
        <ele>373</ele>
        <time>2014-03-08T15:43:40.414Z</time>
      </trkpt>
      <trkpt lat="47.49562" lon="6.75688">
        <ele>372</ele>
        <time>2014-03-08T15:43:45.828Z</time>
      </trkpt>
      <trkpt lat="47.49575" lon="6.7567">
        <ele>372</ele>
        <time>2014-03-08T15:43:50.424Z</time>
      </trkpt>
      <trkpt lat="47.49587" lon="6.75682">
        <ele>372</ele>
        <time>2014-03-08T15:43:55.495Z</time>
      </trkpt>
      <trkpt lat="47.49594" lon="6.75692">
        <ele>373</ele>
        <time>2014-03-08T15:44:00.414Z</time>
      </trkpt>
      <trkpt lat="47.49593" lon="6.75704">
        <ele>373</ele>
        <time>2014-03-08T15:44:05.494Z</time>
      </trkpt>
      <trkpt lat="47.49585" lon="6.75715">
        <ele>374</ele>
        <time>2014-03-08T15:44:10.415Z</time>
      </trkpt>
      <trkpt lat="47.49575" lon="6.75728">
        <ele>374</ele>
        <time>2014-03-08T15:44:15.480Z</time>
      </trkpt>
      <trkpt lat="47.49561" lon="6.75743">
        <ele>374</ele>
        <time>2014-03-08T15:44:20.410Z</time>
      </trkpt>
      <trkpt lat="47.49554" lon="6.75756">
        <ele>375</ele>
        <time>2014-03-08T15:44:25.442Z</time>
      </trkpt>
      <trkpt lat="47.49559" lon="6.75768">
        <ele>376</ele>
        <time>2014-03-08T15:44:30.412Z</time>
      </trkpt>
      <trkpt lat="47.49563" lon="6.75773">
        <ele>377</ele>
        <time>2014-03-08T15:44:35.491Z</time>
      </trkpt>
      <trkpt lat="47.49567" lon="6.75778">
        <ele>378</ele>
        <time>2014-03-08T15:44:40.422Z</time>
      </trkpt>
      <trkpt lat="47.49572" lon="6.75782">
        <ele>380</ele>
        <time>2014-03-08T15:44:45.494Z</time>
      </trkpt>
      <trkpt lat="47.49576" lon="6.75784">
        <ele>382</ele>
        <time>2014-03-08T15:44:50.429Z</time>
      </trkpt>
      <trkpt lat="47.49582" lon="6.75786">
        <ele>383</ele>
        <time>2014-03-08T15:44:55.481Z</time>
      </trkpt>
      <trkpt lat="47.49587" lon="6.75786">
        <ele>385</ele>
        <time>2014-03-08T15:45:02.701Z</time>
      </trkpt>
      <trkpt lat="47.49593" lon="6.75788">
        <ele>386</ele>
        <time>2014-03-08T15:45:05.474Z</time>
      </trkpt>
      <trkpt lat="47.49599" lon="6.75788">
        <ele>388</ele>
        <time>2014-03-08T15:45:10.416Z</time>
      </trkpt>
      <trkpt lat="47.49606" lon="6.75787">
        <ele>390</ele>
        <time>2014-03-08T15:45:15.491Z</time>
      </trkpt>
      <trkpt lat="47.49614" lon="6.75788">
        <ele>392</ele>
        <time>2014-03-08T15:45:20.435Z</time>
      </trkpt>
      <trkpt lat="47.49619" lon="6.75789">
        <ele>393</ele>
        <time>2014-03-08T15:45:25.520Z</time>
      </trkpt>
      <trkpt lat="47.49625" lon="6.75789">
        <ele>395</ele>
        <time>2014-03-08T15:45:30.428Z</time>
      </trkpt>
      <trkpt lat="47.49631" lon="6.75789">
        <ele>397</ele>
        <time>2014-03-08T15:45:35.462Z</time>
      </trkpt>
      <trkpt lat="47.49641" lon="6.75788">
        <ele>398</ele>
        <time>2014-03-08T15:45:40.429Z</time>
      </trkpt>
      <trkpt lat="47.49649" lon="6.75788">
        <ele>399</ele>
        <time>2014-03-08T15:45:45.497Z</time>
      </trkpt>
      <trkpt lat="47.49656" lon="6.75784">
        <ele>400</ele>
        <time>2014-03-08T15:45:50.428Z</time>
      </trkpt>
      <trkpt lat="47.49667" lon="6.75785">
        <ele>400</ele>
        <time>2014-03-08T15:45:55.498Z</time>
      </trkpt>
      <trkpt lat="47.4968" lon="6.75786">
        <ele>402</ele>
        <time>2014-03-08T15:46:00.418Z</time>
      </trkpt>
      <trkpt lat="47.49691" lon="6.75783">
        <ele>403</ele>
        <time>2014-03-08T15:46:05.489Z</time>
      </trkpt>
      <trkpt lat="47.49715" lon="6.75777">
        <ele>404</ele>
        <time>2014-03-08T15:46:15.467Z</time>
      </trkpt>
      <trkpt lat="47.49726" lon="6.75775">
        <ele>405</ele>
        <time>2014-03-08T15:46:20.418Z</time>
      </trkpt>
      <trkpt lat="47.49738" lon="6.75773">
        <ele>408</ele>
        <time>2014-03-08T15:46:25.496Z</time>
      </trkpt>
      <trkpt lat="47.49749" lon="6.75766">
        <ele>409</ele>
        <time>2014-03-08T15:46:30.417Z</time>
      </trkpt>
      <trkpt lat="47.49758" lon="6.7576">
        <ele>409</ele>
        <time>2014-03-08T15:46:35.490Z</time>
      </trkpt>
      <trkpt lat="47.4977" lon="6.75755">
        <ele>409</ele>
        <time>2014-03-08T15:46:40.422Z</time>
      </trkpt>
      <trkpt lat="47.4978" lon="6.75754">
        <ele>409</ele>
        <time>2014-03-08T15:46:45.494Z</time>
      </trkpt>
      <trkpt lat="47.49789" lon="6.75749">
        <ele>410</ele>
        <time>2014-03-08T15:46:50.431Z</time>
      </trkpt>
      <trkpt lat="47.49796" lon="6.75749">
        <ele>411</ele>
        <time>2014-03-08T15:46:55.498Z</time>
      </trkpt>
      <trkpt lat="47.49812" lon="6.75743">
        <ele>412</ele>
        <time>2014-03-08T15:47:05.898Z</time>
      </trkpt>
      <trkpt lat="47.4982" lon="6.75738">
        <ele>413</ele>
        <time>2014-03-08T15:47:10.424Z</time>
      </trkpt>
      <trkpt lat="47.49828" lon="6.75737">
        <ele>413</ele>
        <time>2014-03-08T15:47:15.495Z</time>
      </trkpt>
      <trkpt lat="47.49835" lon="6.75736">
        <ele>413</ele>
        <time>2014-03-08T15:47:20.426Z</time>
      </trkpt>
      <trkpt lat="47.49842" lon="6.75734">
        <ele>415</ele>
        <time>2014-03-08T15:47:25.498Z</time>
      </trkpt>
      <trkpt lat="47.49849" lon="6.75732">
        <ele>416</ele>
        <time>2014-03-08T15:47:30.426Z</time>
      </trkpt>
      <trkpt lat="47.49855" lon="6.75727">
        <ele>417</ele>
        <time>2014-03-08T15:47:35.487Z</time>
      </trkpt>
      <trkpt lat="47.49862" lon="6.75727">
        <ele>417</ele>
        <time>2014-03-08T15:47:40.425Z</time>
      </trkpt>
      <trkpt lat="47.49869" lon="6.75731">
        <ele>418</ele>
        <time>2014-03-08T15:47:45.491Z</time>
      </trkpt>
      <trkpt lat="47.49878" lon="6.75727">
        <ele>419</ele>
        <time>2014-03-08T15:47:50.422Z</time>
      </trkpt>
      <trkpt lat="47.49886" lon="6.75724">
        <ele>418</ele>
        <time>2014-03-08T15:47:55.496Z</time>
      </trkpt>
      <trkpt lat="47.49891" lon="6.75722">
        <ele>419</ele>
        <time>2014-03-08T15:48:00.426Z</time>
      </trkpt>
      <trkpt lat="47.49896" lon="6.75723">
        <ele>420</ele>
        <time>2014-03-08T15:48:05.494Z</time>
      </trkpt>
      <trkpt lat="47.49904" lon="6.75722">
        <ele>420</ele>
        <time>2014-03-08T15:48:10.430Z</time>
      </trkpt>
      <trkpt lat="47.4991" lon="6.75724">
        <ele>421</ele>
        <time>2014-03-08T15:48:15.498Z</time>
      </trkpt>
      <trkpt lat="47.49915" lon="6.75728">
        <ele>422</ele>
        <time>2014-03-08T15:48:20.426Z</time>
      </trkpt>
      <trkpt lat="47.49918" lon="6.75732">
        <ele>423</ele>
        <time>2014-03-08T15:48:25.496Z</time>
      </trkpt>
      <trkpt lat="47.49919" lon="6.75735">
        <ele>424</ele>
        <time>2014-03-08T15:48:30.423Z</time>
      </trkpt>
      <trkpt lat="47.49924" lon="6.75739">
        <ele>424</ele>
        <time>2014-03-08T15:48:35.499Z</time>
      </trkpt>
      <trkpt lat="47.4993" lon="6.75746">
        <ele>426</ele>
        <time>2014-03-08T15:48:40.427Z</time>
      </trkpt>
      <trkpt lat="47.49935" lon="6.75752">
        <ele>427</ele>
        <time>2014-03-08T15:48:45.465Z</time>
      </trkpt>
      <trkpt lat="47.49938" lon="6.75759">
        <ele>428</ele>
        <time>2014-03-08T15:48:50.415Z</time>
      </trkpt>
      <trkpt lat="47.49942" lon="6.75762">
        <ele>428</ele>
        <time>2014-03-08T15:48:55.483Z</time>
      </trkpt>
      <trkpt lat="47.49953" lon="6.75775">
        <ele>428</ele>
        <time>2014-03-08T15:49:06.016Z</time>
      </trkpt>
      <trkpt lat="47.49956" lon="6.75779">
        <ele>429</ele>
        <time>2014-03-08T15:49:10.426Z</time>
      </trkpt>
      <trkpt lat="47.49958" lon="6.75785">
        <ele>431</ele>
        <time>2014-03-08T15:49:15.464Z</time>
      </trkpt>
      <trkpt lat="47.49961" lon="6.75792">
        <ele>432</ele>
        <time>2014-03-08T15:49:20.411Z</time>
      </trkpt>
      <trkpt lat="47.49967" lon="6.758">
        <ele>433</ele>
        <time>2014-03-08T15:49:25.470Z</time>
      </trkpt>
      <trkpt lat="47.49976" lon="6.75814">
        <ele>436</ele>
        <time>2014-03-08T15:49:35.497Z</time>
      </trkpt>
      <trkpt lat="47.49979" lon="6.75821">
        <ele>438</ele>
        <time>2014-03-08T15:49:40.431Z</time>
      </trkpt>
      <trkpt lat="47.49983" lon="6.75833">
        <ele>437</ele>
        <time>2014-03-08T15:49:45.474Z</time>
      </trkpt>
      <trkpt lat="47.49986" lon="6.75842">
        <ele>438</ele>
        <time>2014-03-08T15:49:50.418Z</time>
      </trkpt>
      <trkpt lat="47.4999" lon="6.75852">
        <ele>439</ele>
        <time>2014-03-08T15:49:55.494Z</time>
      </trkpt>
      <trkpt lat="47.49994" lon="6.75859">
        <ele>440</ele>
        <time>2014-03-08T15:50:00.426Z</time>
      </trkpt>
      <trkpt lat="47.50001" lon="6.75868">
        <ele>440</ele>
        <time>2014-03-08T15:50:05.464Z</time>
      </trkpt>
      <trkpt lat="47.50009" lon="6.75876">
        <ele>440</ele>
        <time>2014-03-08T15:50:10.426Z</time>
      </trkpt>
      <trkpt lat="47.50017" lon="6.75887">
        <ele>441</ele>
        <time>2014-03-08T15:50:15.481Z</time>
      </trkpt>
      <trkpt lat="47.50027" lon="6.759">
        <ele>441</ele>
        <time>2014-03-08T15:50:20.418Z</time>
      </trkpt>
      <trkpt lat="47.50035" lon="6.75912">
        <ele>441</ele>
        <time>2014-03-08T15:50:25.495Z</time>
      </trkpt>
      <trkpt lat="47.50044" lon="6.75923">
        <ele>441</ele>
        <time>2014-03-08T15:50:30.417Z</time>
      </trkpt>
      <trkpt lat="47.50052" lon="6.75935">
        <ele>442</ele>
        <time>2014-03-08T15:50:35.494Z</time>
      </trkpt>
      <trkpt lat="47.50059" lon="6.75946">
        <ele>443</ele>
        <time>2014-03-08T15:50:40.416Z</time>
      </trkpt>
      <trkpt lat="47.50066" lon="6.75958">
        <ele>444</ele>
        <time>2014-03-08T15:50:45.458Z</time>
      </trkpt>
      <trkpt lat="47.50076" lon="6.7597">
        <ele>446</ele>
        <time>2014-03-08T15:50:50.418Z</time>
      </trkpt>
      <trkpt lat="47.50086" lon="6.75984">
        <ele>446</ele>
        <time>2014-03-08T15:50:55.493Z</time>
      </trkpt>
      <trkpt lat="47.50088" lon="6.75995">
        <ele>447</ele>
        <time>2014-03-08T15:51:00.427Z</time>
      </trkpt>
      <trkpt lat="47.50087" lon="6.76006">
        <ele>447</ele>
        <time>2014-03-08T15:51:05.499Z</time>
      </trkpt>
      <trkpt lat="47.50088" lon="6.76018">
        <ele>448</ele>
        <time>2014-03-08T15:51:10.431Z</time>
      </trkpt>
      <trkpt lat="47.50089" lon="6.76031">
        <ele>448</ele>
        <time>2014-03-08T15:51:15.498Z</time>
      </trkpt>
      <trkpt lat="47.50089" lon="6.76042">
        <ele>447</ele>
        <time>2014-03-08T15:51:20.431Z</time>
      </trkpt>
      <trkpt lat="47.50092" lon="6.76051">
        <ele>448</ele>
        <time>2014-03-08T15:51:25.395Z</time>
      </trkpt>
      <trkpt lat="47.50092" lon="6.76064">
        <ele>449</ele>
        <time>2014-03-08T15:51:30.498Z</time>
      </trkpt>
      <trkpt lat="47.50096" lon="6.76077">
        <ele>450</ele>
        <time>2014-03-08T15:51:35.422Z</time>
      </trkpt>
      <trkpt lat="47.50095" lon="6.76091">
        <ele>451</ele>
        <time>2014-03-08T15:51:40.477Z</time>
      </trkpt>
      <trkpt lat="47.50099" lon="6.76106">
        <ele>451</ele>
        <time>2014-03-08T15:51:45.423Z</time>
      </trkpt>
      <trkpt lat="47.50102" lon="6.76119">
        <ele>450</ele>
        <time>2014-03-08T15:51:50.498Z</time>
      </trkpt>
      <trkpt lat="47.50106" lon="6.76132">
        <ele>451</ele>
        <time>2014-03-08T15:51:55.429Z</time>
      </trkpt>
      <trkpt lat="47.50107" lon="6.76144">
        <ele>451</ele>
        <time>2014-03-08T15:52:00.497Z</time>
      </trkpt>
      <trkpt lat="47.50109" lon="6.76154">
        <ele>451</ele>
        <time>2014-03-08T15:52:05.422Z</time>
      </trkpt>
      <trkpt lat="47.50115" lon="6.76162">
        <ele>451</ele>
        <time>2014-03-08T15:52:10.496Z</time>
      </trkpt>
      <trkpt lat="47.50118" lon="6.76168">
        <ele>452</ele>
        <time>2014-03-08T15:52:15.430Z</time>
      </trkpt>
      <trkpt lat="47.50122" lon="6.76179">
        <ele>452</ele>
        <time>2014-03-08T15:52:20.466Z</time>
      </trkpt>
      <trkpt lat="47.50125" lon="6.76192">
        <ele>453</ele>
        <time>2014-03-08T15:52:25.428Z</time>
      </trkpt>
      <trkpt lat="47.50125" lon="6.76208">
        <ele>454</ele>
        <time>2014-03-08T15:52:30.493Z</time>
      </trkpt>
      <trkpt lat="47.50125" lon="6.76222">
        <ele>455</ele>
        <time>2014-03-08T15:52:35.581Z</time>
      </trkpt>
      <trkpt lat="47.50127" lon="6.76238">
        <ele>456</ele>
        <time>2014-03-08T15:52:40.498Z</time>
      </trkpt>
      <trkpt lat="47.50128" lon="6.76252">
        <ele>456</ele>
        <time>2014-03-08T15:52:45.431Z</time>
      </trkpt>
      <trkpt lat="47.50132" lon="6.76271">
        <ele>456</ele>
        <time>2014-03-08T15:52:50.502Z</time>
      </trkpt>
      <trkpt lat="47.50137" lon="6.7629">
        <ele>457</ele>
        <time>2014-03-08T15:52:55.430Z</time>
      </trkpt>
      <trkpt lat="47.50158" lon="6.76369">
        <ele>457</ele>
        <time>2014-03-08T15:53:20.470Z</time>
      </trkpt>
      <trkpt lat="47.50162" lon="6.76385">
        <ele>458</ele>
        <time>2014-03-08T15:53:25.430Z</time>
      </trkpt>
      <trkpt lat="47.50166" lon="6.76398">
        <ele>459</ele>
        <time>2014-03-08T15:53:30.462Z</time>
      </trkpt>
      <trkpt lat="47.50172" lon="6.76411">
        <ele>459</ele>
        <time>2014-03-08T15:53:35.422Z</time>
      </trkpt>
      <trkpt lat="47.50176" lon="6.76427">
        <ele>458</ele>
        <time>2014-03-08T15:53:40.501Z</time>
      </trkpt>
      <trkpt lat="47.5018" lon="6.76441">
        <ele>458</ele>
        <time>2014-03-08T15:53:45.422Z</time>
      </trkpt>
      <trkpt lat="47.50185" lon="6.76456">
        <ele>457</ele>
        <time>2014-03-08T15:53:50.503Z</time>
      </trkpt>
      <trkpt lat="47.50189" lon="6.76471">
        <ele>458</ele>
        <time>2014-03-08T15:53:55.421Z</time>
      </trkpt>
      <trkpt lat="47.50197" lon="6.76484">
        <ele>459</ele>
        <time>2014-03-08T15:54:00.460Z</time>
      </trkpt>
      <trkpt lat="47.50199" lon="6.76494">
        <ele>459</ele>
        <time>2014-03-08T15:54:05.422Z</time>
      </trkpt>
      <trkpt lat="47.50201" lon="6.76507">
        <ele>459</ele>
        <time>2014-03-08T15:54:10.497Z</time>
      </trkpt>
      <trkpt lat="47.50201" lon="6.76518">
        <ele>459</ele>
        <time>2014-03-08T15:54:15.421Z</time>
      </trkpt>
      <trkpt lat="47.50204" lon="6.7653">
        <ele>458</ele>
        <time>2014-03-08T15:54:20.504Z</time>
      </trkpt>
      <trkpt lat="47.50211" lon="6.76543">
        <ele>459</ele>
        <time>2014-03-08T15:54:25.422Z</time>
      </trkpt>
      <trkpt lat="47.50217" lon="6.7655">
        <ele>460</ele>
        <time>2014-03-08T15:54:30.689Z</time>
      </trkpt>
      <trkpt lat="47.50215" lon="6.76554">
        <ele>461</ele>
        <time>2014-03-08T15:54:35.423Z</time>
      </trkpt>
      <trkpt lat="47.50209" lon="6.76557">
        <ele>461</ele>
        <time>2014-03-08T15:54:40.496Z</time>
      </trkpt>
      <trkpt lat="47.50203" lon="6.7656">
        <ele>462</ele>
        <time>2014-03-08T15:54:45.421Z</time>
      </trkpt>
      <trkpt lat="47.50196" lon="6.76565">
        <ele>462</ele>
        <time>2014-03-08T15:54:50.499Z</time>
      </trkpt>
      <trkpt lat="47.50187" lon="6.76567">
        <ele>462</ele>
        <time>2014-03-08T15:54:55.423Z</time>
      </trkpt>
      <trkpt lat="47.50176" lon="6.7657">
        <ele>464</ele>
        <time>2014-03-08T15:55:05.422Z</time>
      </trkpt>
      <trkpt lat="47.50168" lon="6.76572">
        <ele>464</ele>
        <time>2014-03-08T15:55:10.499Z</time>
      </trkpt>
      <trkpt lat="47.50162" lon="6.76574">
        <ele>465</ele>
        <time>2014-03-08T15:55:15.421Z</time>
      </trkpt>
      <trkpt lat="47.50157" lon="6.76571">
        <ele>466</ele>
        <time>2014-03-08T15:55:20.497Z</time>
      </trkpt>
      <trkpt lat="47.50148" lon="6.7657">
        <ele>466</ele>
        <time>2014-03-08T15:55:25.421Z</time>
      </trkpt>
      <trkpt lat="47.50139" lon="6.76569">
        <ele>467</ele>
        <time>2014-03-08T15:55:30.488Z</time>
      </trkpt>
      <trkpt lat="47.50131" lon="6.7657">
        <ele>468</ele>
        <time>2014-03-08T15:55:35.422Z</time>
      </trkpt>
      <trkpt lat="47.50123" lon="6.76578">
        <ele>468</ele>
        <time>2014-03-08T15:55:40.491Z</time>
      </trkpt>
      <trkpt lat="47.50121" lon="6.76588">
        <ele>468</ele>
        <time>2014-03-08T15:55:50.497Z</time>
      </trkpt>
      <trkpt lat="47.50119" lon="6.76587">
        <ele>468</ele>
        <time>2014-03-08T15:55:55.417Z</time>
      </trkpt>
      <trkpt lat="47.50175" lon="6.76613">
        <ele>465</ele>
        <time>2014-03-08T15:56:15.482Z</time>
      </trkpt>
      <trkpt lat="47.50202" lon="6.76633">
        <ele>460</ele>
        <time>2014-03-08T15:56:25.463Z</time>
      </trkpt>
      <trkpt lat="47.50208" lon="6.76648">
        <ele>459</ele>
        <time>2014-03-08T15:56:30.496Z</time>
      </trkpt>
      <trkpt lat="47.50213" lon="6.76667">
        <ele>458</ele>
        <time>2014-03-08T15:56:35.499Z</time>
      </trkpt>
      <trkpt lat="47.5022" lon="6.76686">
        <ele>458</ele>
        <time>2014-03-08T15:56:40.427Z</time>
      </trkpt>
      <trkpt lat="47.50227" lon="6.76706">
        <ele>457</ele>
        <time>2014-03-08T15:56:45.497Z</time>
      </trkpt>
      <trkpt lat="47.50236" lon="6.76726">
        <ele>458</ele>
        <time>2014-03-08T15:56:50.425Z</time>
      </trkpt>
      <trkpt lat="47.50245" lon="6.76742">
        <ele>458</ele>
        <time>2014-03-08T15:56:55.494Z</time>
      </trkpt>
      <trkpt lat="47.5026" lon="6.76747">
        <ele>456</ele>
        <time>2014-03-08T15:57:00.430Z</time>
      </trkpt>
      <trkpt lat="47.50277" lon="6.76742">
        <ele>455</ele>
        <time>2014-03-08T15:57:05.497Z</time>
      </trkpt>
      <trkpt lat="47.50297" lon="6.76738">
        <ele>455</ele>
        <time>2014-03-08T15:57:10.426Z</time>
      </trkpt>
      <trkpt lat="47.50315" lon="6.76733">
        <ele>455</ele>
        <time>2014-03-08T15:57:15.496Z</time>
      </trkpt>
      <trkpt lat="47.50333" lon="6.76725">
        <ele>455</ele>
        <time>2014-03-08T15:57:20.428Z</time>
      </trkpt>
      <trkpt lat="47.5035" lon="6.76719">
        <ele>455</ele>
        <time>2014-03-08T15:57:25.459Z</time>
      </trkpt>
      <trkpt lat="47.50367" lon="6.76712">
        <ele>455</ele>
        <time>2014-03-08T15:57:30.419Z</time>
      </trkpt>
      <trkpt lat="47.50385" lon="6.76704">
        <ele>455</ele>
        <time>2014-03-08T15:57:35.499Z</time>
      </trkpt>
      <trkpt lat="47.504" lon="6.76695">
        <ele>455</ele>
        <time>2014-03-08T15:57:40.424Z</time>
      </trkpt>
      <trkpt lat="47.50414" lon="6.76689">
        <ele>455</ele>
        <time>2014-03-08T15:57:45.484Z</time>
      </trkpt>
      <trkpt lat="47.50429" lon="6.76686">
        <ele>455</ele>
        <time>2014-03-08T15:57:50.431Z</time>
      </trkpt>
      <trkpt lat="47.50442" lon="6.7668">
        <ele>455</ele>
        <time>2014-03-08T15:57:55.502Z</time>
      </trkpt>
      <trkpt lat="47.50469" lon="6.76667">
        <ele>455</ele>
        <time>2014-03-08T15:58:05.503Z</time>
      </trkpt>
      <trkpt lat="47.50483" lon="6.76661">
        <ele>456</ele>
        <time>2014-03-08T15:58:10.438Z</time>
      </trkpt>
      <trkpt lat="47.50496" lon="6.76656">
        <ele>456</ele>
        <time>2014-03-08T15:58:15.498Z</time>
      </trkpt>
      <trkpt lat="47.50509" lon="6.76653">
        <ele>456</ele>
        <time>2014-03-08T15:58:20.428Z</time>
      </trkpt>
      <trkpt lat="47.50521" lon="6.76649">
        <ele>456</ele>
        <time>2014-03-08T15:58:25.472Z</time>
      </trkpt>
      <trkpt lat="47.50533" lon="6.76645">
        <ele>457</ele>
        <time>2014-03-08T15:58:30.431Z</time>
      </trkpt>
      <trkpt lat="47.50544" lon="6.76643">
        <ele>457</ele>
        <time>2014-03-08T15:58:35.505Z</time>
      </trkpt>
      <trkpt lat="47.50558" lon="6.76639">
        <ele>457</ele>
        <time>2014-03-08T15:58:40.426Z</time>
      </trkpt>
      <trkpt lat="47.50574" lon="6.76635">
        <ele>456</ele>
        <time>2014-03-08T15:58:45.504Z</time>
      </trkpt>
      <trkpt lat="47.50592" lon="6.76629">
        <ele>456</ele>
        <time>2014-03-08T15:58:50.434Z</time>
      </trkpt>
      <trkpt lat="47.50611" lon="6.76622">
        <ele>455</ele>
        <time>2014-03-08T15:58:55.501Z</time>
      </trkpt>
      <trkpt lat="47.5063" lon="6.76613">
        <ele>454</ele>
        <time>2014-03-08T15:59:00.422Z</time>
      </trkpt>
      <trkpt lat="47.5065" lon="6.76602">
        <ele>454</ele>
        <time>2014-03-08T15:59:05.498Z</time>
      </trkpt>
      <trkpt lat="47.50669" lon="6.76595">
        <ele>452</ele>
        <time>2014-03-08T15:59:10.422Z</time>
      </trkpt>
      <trkpt lat="47.50688" lon="6.76592">
        <ele>452</ele>
        <time>2014-03-08T15:59:15.499Z</time>
      </trkpt>
      <trkpt lat="47.50706" lon="6.76591">
        <ele>451</ele>
        <time>2014-03-08T15:59:20.429Z</time>
      </trkpt>
      <trkpt lat="47.50722" lon="6.76593">
        <ele>451</ele>
        <time>2014-03-08T15:59:25.497Z</time>
      </trkpt>
      <trkpt lat="47.50738" lon="6.76595">
        <ele>450</ele>
        <time>2014-03-08T15:59:30.424Z</time>
      </trkpt>
      <trkpt lat="47.50757" lon="6.76598">
        <ele>450</ele>
        <time>2014-03-08T15:59:35.494Z</time>
      </trkpt>
      <trkpt lat="47.50776" lon="6.76595">
        <ele>449</ele>
        <time>2014-03-08T15:59:40.502Z</time>
      </trkpt>
      <trkpt lat="47.50795" lon="6.76591">
        <ele>449</ele>
        <time>2014-03-08T15:59:45.437Z</time>
      </trkpt>
      <trkpt lat="47.50812" lon="6.7659">
        <ele>449</ele>
        <time>2014-03-08T15:59:50.501Z</time>
      </trkpt>
      <trkpt lat="47.50821" lon="6.76602">
        <ele>448</ele>
        <time>2014-03-08T15:59:55.434Z</time>
      </trkpt>
      <trkpt lat="47.50821" lon="6.76672">
        <ele>445</ele>
        <time>2014-03-08T16:00:10.968Z</time>
      </trkpt>
      <trkpt lat="47.5087" lon="6.76709">
        <ele>443</ele>
        <time>2014-03-08T16:00:15.418Z</time>
      </trkpt>
      <trkpt lat="47.50884" lon="6.7675">
        <ele>442</ele>
        <time>2014-03-08T16:00:20.497Z</time>
      </trkpt>
      <trkpt lat="47.50899" lon="6.76792">
        <ele>441</ele>
        <time>2014-03-08T16:00:25.432Z</time>
      </trkpt>
      <trkpt lat="47.50915" lon="6.7683">
        <ele>440</ele>
        <time>2014-03-08T16:00:30.475Z</time>
      </trkpt>
      <trkpt lat="47.50931" lon="6.76864">
        <ele>439</ele>
        <time>2014-03-08T16:00:35.430Z</time>
      </trkpt>
      <trkpt lat="47.50951" lon="6.76889">
        <ele>438</ele>
        <time>2014-03-08T16:00:40.502Z</time>
      </trkpt>
      <trkpt lat="47.50974" lon="6.76902">
        <ele>436</ele>
        <time>2014-03-08T16:00:45.423Z</time>
      </trkpt>
      <trkpt lat="47.50998" lon="6.7691">
        <ele>435</ele>
        <time>2014-03-08T16:00:50.486Z</time>
      </trkpt>
      <trkpt lat="47.51012" lon="6.7693">
        <ele>435</ele>
        <time>2014-03-08T16:00:55.426Z</time>
      </trkpt>
      <trkpt lat="47.51033" lon="6.76945">
        <ele>435</ele>
        <time>2014-03-08T16:01:00.499Z</time>
      </trkpt>
      <trkpt lat="47.51055" lon="6.76964">
        <ele>435</ele>
        <time>2014-03-08T16:01:05.425Z</time>
      </trkpt>
      <trkpt lat="47.51073" lon="6.76982">
        <ele>435</ele>
        <time>2014-03-08T16:01:10.500Z</time>
      </trkpt>
      <trkpt lat="47.5109" lon="6.76996">
        <ele>436</ele>
        <time>2014-03-08T16:01:15.431Z</time>
      </trkpt>
      <trkpt lat="47.51101" lon="6.77007">
        <ele>437</ele>
        <time>2014-03-08T16:01:20.499Z</time>
      </trkpt>
      <trkpt lat="47.51115" lon="6.77015">
        <ele>437</ele>
        <time>2014-03-08T16:01:25.425Z</time>
      </trkpt>
      <trkpt lat="47.51131" lon="6.77031">
        <ele>436</ele>
        <time>2014-03-08T16:01:30.500Z</time>
      </trkpt>
      <trkpt lat="47.51148" lon="6.77046">
        <ele>436</ele>
        <time>2014-03-08T16:01:35.433Z</time>
      </trkpt>
      <trkpt lat="47.51155" lon="6.77058">
        <ele>436</ele>
        <time>2014-03-08T16:01:40.499Z</time>
      </trkpt>
      <trkpt lat="47.51166" lon="6.77079">
        <ele>436</ele>
        <time>2014-03-08T16:01:45.423Z</time>
      </trkpt>
      <trkpt lat="47.51179" lon="6.771">
        <ele>436</ele>
        <time>2014-03-08T16:01:50.503Z</time>
      </trkpt>
      <trkpt lat="47.5119" lon="6.7712">
        <ele>436</ele>
        <time>2014-03-08T16:01:55.426Z</time>
      </trkpt>
      <trkpt lat="47.51211" lon="6.77161">
        <ele>437</ele>
        <time>2014-03-08T16:02:05.426Z</time>
      </trkpt>
      <trkpt lat="47.5122" lon="6.77181">
        <ele>438</ele>
        <time>2014-03-08T16:02:10.497Z</time>
      </trkpt>
      <trkpt lat="47.51229" lon="6.77201">
        <ele>438</ele>
        <time>2014-03-08T16:02:15.499Z</time>
      </trkpt>
      <trkpt lat="47.51239" lon="6.77221">
        <ele>438</ele>
        <time>2014-03-08T16:02:20.427Z</time>
      </trkpt>
      <trkpt lat="47.51248" lon="6.7724">
        <ele>439</ele>
        <time>2014-03-08T16:02:25.503Z</time>
      </trkpt>
      <trkpt lat="47.51259" lon="6.77256">
        <ele>440</ele>
        <time>2014-03-08T16:02:30.425Z</time>
      </trkpt>
      <trkpt lat="47.51273" lon="6.77268">
        <ele>441</ele>
        <time>2014-03-08T16:02:35.502Z</time>
      </trkpt>
      <trkpt lat="47.51292" lon="6.77276">
        <ele>440</ele>
        <time>2014-03-08T16:02:40.431Z</time>
      </trkpt>
      <trkpt lat="47.51314" lon="6.77286">
        <ele>439</ele>
        <time>2014-03-08T16:02:45.838Z</time>
      </trkpt>
      <trkpt lat="47.51341" lon="6.77287">
        <ele>438</ele>
        <time>2014-03-08T16:02:50.433Z</time>
      </trkpt>
      <trkpt lat="47.51373" lon="6.7726">
        <ele>435</ele>
        <time>2014-03-08T16:02:55.498Z</time>
      </trkpt>
      <trkpt lat="47.51414" lon="6.77235">
        <ele>431</ele>
        <time>2014-03-08T16:03:00.439Z</time>
      </trkpt>
      <trkpt lat="47.51454" lon="6.77214">
        <ele>429</ele>
        <time>2014-03-08T16:03:05.498Z</time>
      </trkpt>
      <trkpt lat="47.51482" lon="6.77206">
        <ele>430</ele>
        <time>2014-03-08T16:03:10.426Z</time>
      </trkpt>
      <trkpt lat="47.51487" lon="6.77236">
        <ele>430</ele>
        <time>2014-03-08T16:03:15.496Z</time>
      </trkpt>
      <trkpt lat="47.51488" lon="6.77265">
        <ele>430</ele>
        <time>2014-03-08T16:03:20.431Z</time>
      </trkpt>
      <trkpt lat="47.51491" lon="6.7729">
        <ele>431</ele>
        <time>2014-03-08T16:03:25.498Z</time>
      </trkpt>
      <trkpt lat="47.51502" lon="6.77274">
        <ele>431</ele>
        <time>2014-03-08T16:03:30.425Z</time>
      </trkpt>
      <trkpt lat="47.51519" lon="6.77262">
        <ele>432</ele>
        <time>2014-03-08T16:03:35.501Z</time>
      </trkpt>
      <trkpt lat="47.51536" lon="6.77251">
        <ele>432</ele>
        <time>2014-03-08T16:03:40.429Z</time>
      </trkpt>
      <trkpt lat="47.51552" lon="6.77243">
        <ele>432</ele>
        <time>2014-03-08T16:03:45.499Z</time>
      </trkpt>
      <trkpt lat="47.51565" lon="6.77235">
        <ele>433</ele>
        <time>2014-03-08T16:03:50.390Z</time>
      </trkpt>
      <trkpt lat="47.51576" lon="6.77228">
        <ele>433</ele>
        <time>2014-03-08T16:03:55.503Z</time>
      </trkpt>
      <trkpt lat="47.51589" lon="6.77213">
        <ele>433</ele>
        <time>2014-03-08T16:04:00.435Z</time>
      </trkpt>
      <trkpt lat="47.51603" lon="6.77201">
        <ele>434</ele>
        <time>2014-03-08T16:04:05.481Z</time>
      </trkpt>
      <trkpt lat="47.51618" lon="6.77192">
        <ele>434</ele>
        <time>2014-03-08T16:04:10.428Z</time>
      </trkpt>
      <trkpt lat="47.51631" lon="6.77185">
        <ele>435</ele>
        <time>2014-03-08T16:04:15.499Z</time>
      </trkpt>
      <trkpt lat="47.51645" lon="6.77177">
        <ele>436</ele>
        <time>2014-03-08T16:04:20.431Z</time>
      </trkpt>
      <trkpt lat="47.51657" lon="6.7717">
        <ele>436</ele>
        <time>2014-03-08T16:04:25.500Z</time>
      </trkpt>
      <trkpt lat="47.5167" lon="6.77166">
        <ele>437</ele>
        <time>2014-03-08T16:04:30.429Z</time>
      </trkpt>
      <trkpt lat="47.51685" lon="6.77162">
        <ele>437</ele>
        <time>2014-03-08T16:04:35.463Z</time>
      </trkpt>
      <trkpt lat="47.51699" lon="6.77159">
        <ele>437</ele>
        <time>2014-03-08T16:04:40.421Z</time>
      </trkpt>
      <trkpt lat="47.51716" lon="6.77159">
        <ele>437</ele>
        <time>2014-03-08T16:04:45.499Z</time>
      </trkpt>
      <trkpt lat="47.51738" lon="6.77159">
        <ele>436</ele>
        <time>2014-03-08T16:04:50.428Z</time>
      </trkpt>
      <trkpt lat="47.51761" lon="6.77161">
        <ele>435</ele>
        <time>2014-03-08T16:04:55.501Z</time>
      </trkpt>
      <trkpt lat="47.5185" lon="6.77232">
        <ele>439</ele>
        <time>2014-03-08T16:05:20.441Z</time>
      </trkpt>
      <trkpt lat="47.51864" lon="6.77246">
        <ele>440</ele>
        <time>2014-03-08T16:05:25.503Z</time>
      </trkpt>
      <trkpt lat="47.5188" lon="6.77259">
        <ele>441</ele>
        <time>2014-03-08T16:05:30.517Z</time>
      </trkpt>
      <trkpt lat="47.51893" lon="6.77271">
        <ele>440</ele>
        <time>2014-03-08T16:05:35.419Z</time>
      </trkpt>
      <trkpt lat="47.51889" lon="6.77296">
        <ele>441</ele>
        <time>2014-03-08T16:05:40.462Z</time>
      </trkpt>
      <trkpt lat="47.51881" lon="6.77319">
        <ele>442</ele>
        <time>2014-03-08T16:05:45.431Z</time>
      </trkpt>
      <trkpt lat="47.51871" lon="6.7734">
        <ele>443</ele>
        <time>2014-03-08T16:05:50.469Z</time>
      </trkpt>
      <trkpt lat="47.5186" lon="6.77363">
        <ele>443</ele>
        <time>2014-03-08T16:05:55.430Z</time>
      </trkpt>
      <trkpt lat="47.51851" lon="6.77388">
        <ele>443</ele>
        <time>2014-03-08T16:06:02.853Z</time>
      </trkpt>
      <trkpt lat="47.51845" lon="6.77412">
        <ele>442</ele>
        <time>2014-03-08T16:06:05.433Z</time>
      </trkpt>
      <trkpt lat="47.5184" lon="6.77434">
        <ele>443</ele>
        <time>2014-03-08T16:06:10.465Z</time>
      </trkpt>
      <trkpt lat="47.51839" lon="6.77448">
        <ele>443</ele>
        <time>2014-03-08T16:06:15.425Z</time>
      </trkpt>
      <trkpt lat="47.51837" lon="6.77468">
        <ele>443</ele>
        <time>2014-03-08T16:06:20.473Z</time>
      </trkpt>
      <trkpt lat="47.51835" lon="6.7749">
        <ele>444</ele>
        <time>2014-03-08T16:06:25.429Z</time>
      </trkpt>
      <trkpt lat="47.51823" lon="6.77497">
        <ele>445</ele>
        <time>2014-03-08T16:06:30.506Z</time>
      </trkpt>
      <trkpt lat="47.51813" lon="6.77491">
        <ele>447</ele>
        <time>2014-03-08T16:06:35.427Z</time>
      </trkpt>
      <trkpt lat="47.5181" lon="6.77484">
        <ele>447</ele>
        <time>2014-03-08T16:06:40.504Z</time>
      </trkpt>
      <trkpt lat="47.51809" lon="6.77482">
        <ele>447</ele>
        <time>2014-03-08T16:06:45.427Z</time>
      </trkpt>
      <trkpt lat="47.51809" lon="6.77482">
        <ele>447</ele>
        <time>2014-03-08T16:06:50.502Z</time>
      </trkpt>
      <trkpt lat="47.51809" lon="6.77483">
        <ele>446</ele>
        <time>2014-03-08T16:06:55.430Z</time>
      </trkpt>
      <trkpt lat="47.51809" lon="6.77483">
        <ele>446</ele>
        <time>2014-03-08T16:07:05.237Z</time>
      </trkpt>
      <trkpt lat="47.51809" lon="6.77483">
        <ele>446</ele>
        <time>2014-03-08T16:07:05.448Z</time>
      </trkpt>
      <trkpt lat="47.51809" lon="6.77483">
        <ele>446</ele>
        <time>2014-03-08T16:07:10.427Z</time>
      </trkpt>
      <trkpt lat="47.51809" lon="6.77483">
        <ele>446</ele>
        <time>2014-03-08T16:07:15.479Z</time>
      </trkpt>
      <trkpt lat="47.51809" lon="6.77483">
        <ele>446</ele>
        <time>2014-03-08T16:07:20.394Z</time>
      </trkpt>
      <trkpt lat="47.51809" lon="6.77484">
        <ele>446</ele>
        <time>2014-03-08T16:07:30.430Z</time>
      </trkpt>
      <trkpt lat="47.51809" lon="6.77484">
        <ele>446</ele>
        <time>2014-03-08T16:07:35.499Z</time>
      </trkpt>
      <trkpt lat="47.5181" lon="6.77484">
        <ele>446</ele>
        <time>2014-03-08T16:07:40.424Z</time>
      </trkpt>
      <trkpt lat="47.51809" lon="6.77483">
        <ele>446</ele>
        <time>2014-03-08T16:07:45.461Z</time>
      </trkpt>
      <trkpt lat="47.51809" lon="6.77484">
        <ele>446</ele>
        <time>2014-03-08T16:07:50.422Z</time>
      </trkpt>
      <trkpt lat="47.51808" lon="6.77485">
        <ele>447</ele>
        <time>2014-03-08T16:07:55.497Z</time>
      </trkpt>
      <trkpt lat="47.51806" lon="6.77487">
        <ele>449</ele>
        <time>2014-03-08T16:08:00.428Z</time>
      </trkpt>
      <trkpt lat="47.51805" lon="6.77487">
        <ele>448</ele>
        <time>2014-03-08T16:08:05.434Z</time>
      </trkpt>
      <trkpt lat="47.51805" lon="6.77488">
        <ele>448</ele>
        <time>2014-03-08T16:08:10.427Z</time>
      </trkpt>
      <trkpt lat="47.51805" lon="6.77488">
        <ele>448</ele>
        <time>2014-03-08T16:08:15.429Z</time>
      </trkpt>
      <trkpt lat="47.51805" lon="6.77488">
        <ele>448</ele>
        <time>2014-03-08T16:08:20.438Z</time>
      </trkpt>
      <trkpt lat="47.51805" lon="6.77488">
        <ele>448</ele>
        <time>2014-03-08T16:08:25.391Z</time>
      </trkpt>
    </trkseg>
  </trk>
</gpx>